Date StartTime U_cm/s V_cm/s W_cm/s Ustd_cm/s Vstd_cm/s Wstd_cm/s Uvar_(cm/s)^2 Vvar_(cm/s)^2 Wvar_(cm/s)^2 KE_(m/s)^2 TurbulentKE_(m/s)^2 HorizWindSpeed_cm/s FrictionSpeec_cm/s DragCoef SpeedOfSound_m/s SonicTemperature_C Pressure_mb 
09/17/2013  00:00:00       49.177      -33.695       21.853       41.732       40.732       28.151     1741.547     1659.095      792.483        0.411        0.210       59.614       24.640        0.171      343.613       19.848      856.403
09/17/2013  00:01:00        0.305       -7.485       26.559       31.362       44.651       25.942      983.548     1993.728      672.967        0.221        0.183        7.491       20.502        7.491      343.738       20.061      856.389
09/17/2013  00:02:00      -17.531     -108.483      -13.216       57.201       46.631       26.479     3271.912     2174.433      701.121        0.920        0.307      109.891       24.877        0.051      344.403       21.195      856.402
09/17/2013  00:03:00      -10.395      -78.436        4.599       47.661       65.293       26.924     2271.556     4263.128      724.916        0.677        0.363       79.122       28.657        0.131      344.404       21.199      856.391
09/17/2013  00:04:00       43.161       -3.395       42.274       45.662       74.190       49.612     2084.975     5504.164     2461.336        0.685        0.503       43.294       54.317        1.574      343.853       20.257      856.359
09/17/2013  00:05:00       66.723      -32.081       27.462       56.186       65.158       50.519     3156.917     4245.519     2552.167        0.809        0.498       74.035       47.481        0.411      343.423       19.523      856.327
09/17/2013  00:06:00       50.388        9.887       46.085       68.133       64.715       49.094     4642.073     4187.984     2410.232        0.800        0.562       51.349       45.609        0.789      343.632       19.881      856.314
09/17/2013  00:07:00      123.253     -116.523      -25.080       81.341       72.692       44.332     6616.437     5284.114     1965.350        2.163        0.693      169.614       53.582        0.100      344.158       20.776      856.300
09/17/2013  00:08:00       85.037     -101.139      -16.425       55.326       61.300       41.306     3060.999     3757.672     1706.170        1.313        0.426      132.138       41.852        0.100      344.113       20.700      856.284
09/17/2013  00:09:00       45.853      -42.653       14.634       57.512       72.753       44.833     3307.629     5292.938     2010.020        0.737        0.531       62.625       48.227        0.593      343.978       20.469      856.268
09/17/2013  00:10:00       31.857       10.486       32.787       39.847       40.787       31.190     1587.799     1663.540      972.836        0.321        0.211       33.538       21.870        0.425      343.443       19.557      856.239
09/17/2013  00:11:00       44.612      -39.252       -0.027       38.321       41.480       30.453     1468.526     1720.557      927.414        0.382        0.206       59.422       32.911        0.307      343.282       19.283      856.232
09/17/2013  00:12:00       62.537      -39.848        1.423       40.302       35.866       26.993     1624.246     1286.352      728.609        0.457        0.182       74.153       21.074        0.081      343.388       19.464      856.241
09/17/2013  00:13:00       23.673      -16.593       19.678       46.151       44.522       31.076     2129.873     1982.219      965.728        0.315        0.254       28.909       26.765        0.857      343.660       19.929      856.244
09/17/2013  00:14:00        0.007       14.166       14.996       27.509       30.392       15.598      756.769      923.702      243.304        0.117        0.096       14.166       11.238        0.629      343.523       19.693      856.243
09/17/2013  00:15:00       50.857      -50.182       -0.103       43.267       43.756       28.116     1872.006     1914.604      790.516        0.484        0.229       71.447       26.766        0.140      343.843       20.241      856.240
09/17/2013  00:16:00       39.033      -29.158       13.096       37.198       48.768       32.066     1383.723     2378.317     1028.205        0.367        0.240       48.721       25.598        0.276      344.039       20.574      856.240
09/17/2013  00:17:00       26.137        3.306       40.284       57.399       57.568       40.703     3294.681     3314.027     1656.772        0.529        0.413       26.346       31.911        1.467      343.471       19.606      856.227
09/17/2013  00:18:00      -21.892      -39.827       17.203       52.035       52.744       40.519     2707.639     2781.898     1641.816        0.474        0.357       45.448       17.770        0.153      344.056       20.604      856.238
09/17/2013  00:19:00      -24.872      -27.655        5.449       56.437       30.215       19.033     3185.167      912.962      362.236        0.294        0.223       37.195       14.310        0.148      344.062       20.616      856.266
09/17/2013  00:20:00      -14.753      -82.227        6.920       24.046       29.634       14.807      578.200      878.164      219.259        0.435        0.084       83.540       11.642        0.019      344.257       20.947      856.295
09/17/2013  00:21:00      -18.333      -63.373        8.075       41.633       48.108       25.746     1733.341     2314.357      662.848        0.456        0.236       65.971       15.482        0.055      344.216       20.877      856.304
09/17/2013  00:22:00       -0.432     -101.804        5.490       58.576       70.160       37.959     3431.204     4922.418     1440.899        1.009        0.490      101.804       30.512        0.090      344.238       20.915      856.301
09/17/2013  00:23:00       23.407      -24.239       45.374       61.031       71.597       57.552     3724.833     5126.172     3312.181        0.768        0.608       33.696       35.469        1.108      343.671       19.947      856.236
09/17/2013  00:24:00        4.804       72.379      123.590       39.264       55.538       29.746     1541.667     3084.446      884.825        1.302        0.276       72.538       18.930        0.068      343.375       19.441      856.198
09/17/2013  00:25:00       39.936       22.011       55.363       72.012       64.447       50.216     5185.749     4153.469     2521.617        0.850        0.593       45.600       44.838        0.967      343.478       19.619      856.192
09/17/2013  00:26:00       32.956       60.493       55.697       53.752       43.696       34.235     2889.289     1909.361     1172.057        0.691        0.299       68.887       24.291        0.124      343.844       20.242      856.189
09/17/2013  00:27:00        5.953       79.439       83.038       38.734       58.364       44.172     1500.332     3406.367     1951.205        1.005        0.343       79.662       29.693        0.139      343.984       20.481      856.190
09/17/2013  00:28:00       43.141      -53.924       24.347       60.809       72.043       49.556     3697.738     5190.222     2455.845        0.835        0.567       69.057       51.067        0.547      343.487       19.633      856.200
09/17/2013  00:29:00       18.759       -5.560       41.400       49.968       70.262       48.635     2496.794     4936.740     2365.374        0.595        0.490       19.565       48.068        6.036      343.528       19.703      856.215
09/17/2013  00:30:00       22.144       27.104       59.278       43.309       41.440       42.230     1875.705     1717.262     1783.400        0.506        0.269       35.000       26.956        0.593      343.536       19.717      856.230
09/17/2013  00:31:00       -9.887       -1.347       40.162       27.890       34.896       31.488      777.865     1217.752      991.484        0.235        0.149        9.978       23.703        5.643      343.533       19.712      856.253
09/17/2013  00:32:00       11.863       -0.798        9.346       24.055       24.072       12.648      578.664      579.451      159.983        0.077        0.066       11.890       10.191        0.735      343.281       19.281      856.280
09/17/2013  00:33:00       25.256        1.954       20.981       41.434       39.134       30.480     1716.787     1531.435      929.012        0.263        0.209       25.331       20.951        0.684      343.156       19.070      856.282
09/17/2013  00:34:00      104.898       84.321       48.673       52.071       36.677       33.721     2711.339     1345.167     1137.129        1.284        0.260      134.586       23.417        0.030      343.415       19.510      856.287
09/17/2013  00:35:00       70.277       38.409       34.932       73.951       66.387       26.388     5468.697     4407.197      696.352        0.910        0.529       80.088       22.414        0.078      343.584       19.797      856.310
09/17/2013  00:36:00        4.019      -35.378      -16.791       32.387       23.862       18.755     1048.917      569.417      351.766        0.176        0.099       35.606       12.650        0.126      343.143       19.047      856.310
09/17/2013  00:37:00       25.334      -19.473        9.873       28.165       20.013       15.545      793.280      400.536      241.644        0.128        0.072       31.953        6.505        0.041      343.147       19.055      856.293
09/17/2013  00:38:00       47.412       37.671       26.981       40.345       43.046       24.937     1627.750     1852.928      621.849        0.425        0.205       60.555       26.202        0.187      343.163       19.081      856.277
09/17/2013  00:39:00       89.943       92.213       58.805       41.720       39.243       29.809     1740.574     1540.014      888.589        1.211        0.208      128.814       20.580        0.026      343.301       19.317      856.269
09/17/2013  00:40:00       46.433       68.694       71.287       33.691       39.284       29.036     1135.063     1543.262      843.099        0.774        0.176       82.915       20.103        0.059      343.524       19.697      856.244
09/17/2013  00:41:00       29.246       27.383       47.833       34.799       30.773       26.080     1210.937      946.952      680.168        0.337        0.142       40.064       16.911        0.178      343.449       19.568      856.235
09/17/2013  00:42:00      -38.708      -26.043        1.208       20.132       26.696       18.607      405.300      712.657      346.228        0.182        0.073       46.653       20.830        0.199      342.997       18.799      856.238
09/17/2013  00:43:00      -36.808       -6.403        7.127       18.223       17.354       15.552      332.093      301.177      241.861        0.116        0.044       37.361       12.560        0.113      343.436       19.547      856.266
09/17/2013  00:44:00      -53.298      -12.264       -1.179       15.022       13.908       10.598      225.647      193.423      112.327        0.176        0.027       54.691        7.975        0.021      343.554       19.746      856.285
09/17/2013  00:45:00      -67.120      -16.715        3.518       25.653       19.479       15.227      658.072      379.427      231.877        0.303        0.063       69.170        9.023        0.017      343.573       19.779      856.297
09/17/2013  00:46:00      -94.905      -40.203       -8.270       32.792       26.567       14.246     1075.316      705.830      202.945        0.634        0.099      103.069        9.289        0.008      343.574       19.781      856.319
09/17/2013  00:47:00      -97.717      -35.703        1.176       23.641       21.131       11.046      558.884      446.514      122.025        0.598        0.056      104.035        6.368        0.004      343.642       19.896      856.335
09/17/2013  00:48:00        2.397      -13.894        5.183       27.434       14.291       12.884      752.626      204.246      165.997        0.067        0.056       14.099        7.552        0.287      343.611       19.844      856.330
09/17/2013  00:49:00       53.611        6.389        9.919       24.694       24.347       20.221      609.774      592.798      408.894        0.231        0.081       53.990        8.676        0.026      343.051       18.890      856.301
09/17/2013  00:50:00       51.819       68.769      -11.266       16.824       26.095       15.452      283.057      680.968      238.763        0.437        0.060       86.107       10.453        0.015      343.426       19.529      856.281
09/17/2013  00:51:00       56.375       63.904       -9.760       22.106       24.637       12.338      488.686      607.003      152.228        0.430        0.062       85.217       10.985        0.017      343.736       20.057      856.287
09/17/2013  00:52:00       44.028       -5.958        5.465       27.125       36.959       16.200      735.767     1365.945      262.444        0.218        0.118       44.429        9.278        0.044      343.401       19.487      856.296
09/17/2013  00:53:00        6.136      -14.019       -9.842       13.742       21.667       15.596      188.834      469.437      243.250        0.062        0.045       15.303       12.652        0.683      343.453       19.576      856.306
09/17/2013  00:54:00       34.794       15.047       15.770       32.684       17.497       24.026     1068.240      306.129      577.266        0.182        0.098       37.908       11.909        0.099      343.278       19.277      856.303
09/17/2013  00:55:00       65.142       29.036       11.261       25.875       35.412       26.390      669.499     1254.035      696.442        0.392        0.131       71.320       11.713        0.027      343.171       19.096      856.277
09/17/2013  00:56:00       59.344       42.118       11.692       35.413       26.773       17.205     1254.059      716.806      296.027        0.385        0.113       72.771        9.378        0.017      343.513       19.678      856.256
09/17/2013  00:57:00      -18.565      -12.375        2.761       18.379       22.421       13.851      337.777      502.683      191.851        0.077        0.052       22.311       12.811        0.330      343.426       19.530      856.249
09/17/2013  00:58:00      -31.184      -34.565       -1.810       25.235       19.590       13.303      636.790      383.749      176.971        0.168        0.060       46.553       12.808        0.076      343.389       19.467      856.237
09/17/2013  00:59:00      -24.645      -35.615       10.128       10.464       15.264       14.907      109.500      232.998      222.226        0.127        0.028       43.310        7.360        0.029      343.600       19.824      856.244
09/17/2013  01:00:00       24.408      -43.266       10.722       35.687       25.089       19.150     1273.591      629.449      366.716        0.243        0.113       49.676       17.331        0.122      343.611       19.845      856.255
09/17/2013  01:01:00       45.061        6.243       26.527       48.892       42.644       34.133     2390.458     1818.474     1165.083        0.407        0.269       45.491       36.246        0.635      343.090       18.957      856.245
09/17/2013  01:02:00       19.716       -1.547       30.034       30.780       38.442       22.618      947.410     1477.816      511.576        0.211        0.147       19.776       14.232        0.518      342.940       18.703      856.236
09/17/2013  01:03:00      -18.120       12.285       17.792       37.750       33.372       27.564     1425.099     1113.672      759.754        0.205        0.165       21.892       15.984        0.533      343.265       19.255      856.241
09/17/2013  01:04:00       33.904      -23.963       22.112       41.165       37.102       34.402     1694.540     1376.524     1183.488        0.323        0.213       41.518       26.240        0.399      343.088       18.953      856.244
09/17/2013  01:05:00      -28.507      -48.485        6.160       30.683       44.867       25.156      941.474     2013.068      632.844        0.339        0.179       56.244       14.171        0.063      343.154       19.066      856.242
09/17/2013  01:06:00      -19.598      -57.359        4.175       38.163       32.106       22.508     1456.400     1030.787      506.614        0.334        0.150       60.615       20.937        0.119      343.370       19.432      856.253
09/17/2013  01:07:00      -28.475      -10.642        8.056       48.011       31.603       15.618     2305.102      998.763      243.919        0.227        0.177       30.399       16.811        0.306      343.426       19.530      856.254
09/17/2013  01:08:00      -82.655      -61.237       -4.315       35.036       29.509       17.499     1227.488      870.765      306.219        0.650        0.120      102.868       18.092        0.031      343.796       20.160      856.234
09/17/2013  01:09:00     -120.693      -74.609       -4.281       26.449       24.005       21.381      699.548      576.262      457.134        1.094        0.087      141.892       13.729        0.009      343.683       19.967      856.226
09/17/2013  01:10:00      -82.390      -24.689       -6.217       19.156       19.606       12.136      366.939      384.405      147.282        0.417        0.045       86.010       11.292        0.017      343.592       19.812      856.222
09/17/2013  01:11:00       -1.089       -9.186        3.619       48.808       20.877       24.695     2382.188      435.834      609.862        0.176        0.171        9.251       27.478        8.823      343.429       19.533      856.199
09/17/2013  01:12:00       42.168      -21.354       22.894       30.365       31.203       19.579      922.033      973.633      383.355        0.252        0.114       47.267       15.608        0.109      343.091       18.959      856.172
09/17/2013  01:13:00       58.686      -32.046        6.462       37.404       27.251       31.415     1399.033      742.623      986.891        0.382        0.156       66.865       23.489        0.123      343.231       19.198      856.142
09/17/2013  01:14:00        4.711      -65.514       -8.909       19.172       27.278       23.991      367.576      744.081      575.558        0.304        0.084       65.683       16.393        0.062      343.070       18.923      856.128
09/17/2013  01:15:00      -13.996      -65.476      -11.500       28.056       14.624       17.166      787.123      213.857      294.664        0.296        0.065       66.955       14.565        0.047      343.224       19.185      856.126
09/17/2013  01:16:00       -8.784      -14.337       11.419       28.983       26.920       16.973      840.035      724.674      288.068        0.113        0.093       16.814       18.521        1.213      343.547       19.734      856.132
09/17/2013  01:17:00       10.868       -8.653       14.480       29.505       15.877       17.003      870.520      252.069      289.098        0.091        0.071       13.892        9.724        0.490      343.435       19.545      856.136
09/17/2013  01:18:00       13.331      -16.224       20.013       28.861       30.205       23.497      832.934      912.327      552.126        0.157        0.115       20.998       19.362        0.850      343.303       19.320      856.135
09/17/2013  01:19:00        6.752        4.491       16.067       37.978       22.830       22.471     1442.334      521.194      504.930        0.140        0.123        8.109       12.142        2.242      343.292       19.300      856.125
09/17/2013  01:20:00       26.988      -12.288       15.473       32.406       17.155       17.069     1050.166      294.292      291.342        0.138        0.082       29.654       14.939        0.254      343.167       19.088      856.103
09/17/2013  01:21:00       -4.998      -25.907        2.981       15.697       39.546       17.668      246.407     1563.913      312.145        0.141        0.106       26.385       14.216        0.290      343.475       19.613      856.098
09/17/2013  01:22:00      -23.256      -34.137        4.757       36.929       22.337       18.101     1363.740      498.924      327.634        0.196        0.110       41.306       22.839        0.306      343.861       20.272      856.078
09/17/2013  01:23:00       11.320      -33.577        6.921       19.287       16.296       20.364      371.984      265.556      414.682        0.118        0.053       35.434       13.163        0.138      343.628       19.874      856.058
09/17/2013  01:24:00      -35.154      -15.786       -1.427       15.022        9.239        7.491      225.658       85.364       56.108        0.093        0.018       38.536        5.775        0.022      343.699       19.995      856.035
09/17/2013  01:25:00      -16.094       -6.874       -0.268       30.897       17.063       12.930      954.605      291.154      167.198        0.086        0.071       17.500       11.879        0.461      343.642       19.897      855.996
09/17/2013  01:26:00       26.573      -11.301        9.463       34.498       33.572       25.822     1190.128     1127.102      666.761        0.195        0.149       28.876       23.420        0.658      342.918       18.664      855.963
09/17/2013  01:27:00       42.693       -1.267        2.679       22.759       20.786       21.924      517.967      432.040      480.648        0.163        0.072       42.712        9.161        0.046      343.112       18.994      855.947
09/17/2013  01:28:00       80.212      -52.845       -0.140       27.678       34.145       22.348      766.076     1165.853      499.444        0.583        0.122       96.055       16.402        0.029      343.095       18.965      855.935
09/17/2013  01:29:00       36.016      -23.220       -1.512       22.720       29.420       23.963      516.202      865.511      574.223        0.190        0.098       42.853       11.392        0.071      343.184       19.117      855.941
09/17/2013  01:30:00       24.002      -10.443       -8.049       23.429       23.430       19.017      548.937      548.949      361.639        0.110        0.073       26.176        8.595        0.108      342.979       18.767      855.948
09/17/2013  01:31:00       54.800      -35.000        3.019       33.105       35.274       30.906     1095.970     1244.245      955.194        0.377        0.165       65.023       21.537        0.110      342.922       18.671      855.958
09/17/2013  01:32:00       54.949      -17.389      -11.938       19.283       19.044       27.319      371.834      362.683      746.341        0.247        0.074       57.635        6.747        0.014      343.068       18.920      855.953
09/17/2013  01:33:00       18.730        0.078       11.767       28.403       29.539       23.316      806.710      872.563      543.620        0.136        0.111       18.731       13.875        0.549      342.981       18.772      855.926
09/17/2013  01:34:00       44.178       24.102       19.985       27.348       24.113       17.230      747.932      581.418      296.886        0.228        0.081       50.325        9.507        0.036      343.196       19.138      855.901
09/17/2013  01:35:00       57.799       37.839        6.271       40.952       35.073       18.805     1677.058     1230.141      353.638        0.404        0.163       69.083       16.553        0.057      343.228       19.193      855.894
09/17/2013  01:36:00       36.404      -10.354       -6.925       24.549       34.929       17.394      602.633     1220.036      302.550        0.180        0.106       37.848       11.371        0.090      343.028       18.851      855.894
09/17/2013  01:37:00       -2.908      -21.232      -18.159       20.208       16.955       15.344      408.382      287.458      235.447        0.086        0.047       21.430       12.021        0.315      342.813       18.486      855.897
09/17/2013  01:38:00        5.236      -30.655        3.844       13.910       30.227       23.143      193.482      913.687      535.579        0.131        0.082       31.099       20.381        0.429      343.059       18.904      855.908
09/17/2013  01:39:00       31.684      -49.543       -5.732       23.520       18.742       13.161      553.208      351.244      173.221        0.228        0.054       58.808        8.323        0.020      343.174       19.100      855.927
09/17/2013  01:40:00       -4.685       12.701       22.110       26.270       25.990       17.697      690.106      675.501      313.176        0.118        0.084       13.537       13.805        1.040      343.171       19.094      855.931
09/17/2013  01:41:00       31.794       -2.362       22.166       32.695       30.550       22.850     1068.986      933.295      522.108        0.202        0.126       31.881       22.494        0.498      343.057       18.900      855.905
09/17/2013  01:42:00       42.661       -5.933        9.705       45.526       34.269       29.396     2072.620     1174.373      864.113        0.303        0.206       43.071       23.669        0.302      342.711       18.309      855.873
09/17/2013  01:43:00       55.180      -46.468       -0.042       45.382       29.644       28.726     2059.531      878.776      825.159        0.448        0.188       72.140       17.284        0.057      342.601       18.126      855.856
09/17/2013  01:44:00       74.559      -48.451       -2.680       28.975       30.291       25.360      839.570      917.569      643.122        0.516        0.120       88.919       19.390        0.048      342.907       18.645      855.842
09/17/2013  01:45:00       71.342      -93.877       -6.521       23.701       24.746       17.214      561.737      612.349      296.315        0.771        0.074      117.909       11.542        0.010      343.521       19.691      855.815
09/17/2013  01:46:00       12.402      -12.675       22.407       27.382       40.472       16.846      749.751     1637.946      283.785        0.174        0.134       17.733       22.151        1.560      343.232       19.199      855.784
09/17/2013  01:47:00      -35.580      -19.282       -2.649       26.108       19.282       13.935      681.633      371.807      194.182        0.145        0.062       40.469       12.573        0.097      343.267       19.260      855.758
09/17/2013  01:48:00        8.237        3.948       10.633       32.319       28.604       19.354     1044.527      818.201      374.586        0.122        0.112        9.134       15.856        3.013      343.112       18.995      855.753
09/17/2013  01:49:00       15.234      -46.734        6.428       24.812       22.580       21.865      615.642      509.860      478.064        0.203        0.080       49.154       15.535        0.100      343.437       19.547      855.770
09/17/2013  01:50:00       11.694       -9.402       27.493       23.813       42.349       24.332      567.064     1793.432      592.053        0.197        0.148       15.004       29.241        3.798      343.227       19.190      855.797
09/17/2013  01:51:00       35.872      -62.745       14.991       45.279       44.751       28.350     2050.210     2002.663      803.719        0.515        0.243       72.276       18.746        0.067      343.562       19.761      855.832
09/17/2013  01:52:00       59.386      -63.083       17.742       31.837       47.983       27.399     1013.579     2302.346      750.678        0.594        0.203       86.638       26.180        0.091      343.736       20.059      855.868
09/17/2013  01:53:00       78.328      -69.738       17.502       40.369       38.656       28.253     1629.669     1494.285      798.209        0.761        0.196      104.875       24.220        0.053      343.710       20.012      855.883
09/17/2013  01:54:00       65.783      -45.402       25.176       42.869       42.671       25.603     1837.726     1820.855      655.507        0.567        0.216       79.930       25.547        0.102      343.507       19.668      855.888
09/17/2013  01:55:00       71.384      -53.407        9.050       35.542       39.340       24.237     1263.237     1547.633      587.439        0.571        0.170       89.151       18.067        0.041      343.062       18.910      855.887
09/17/2013  01:56:00       16.901       -1.852       13.832       26.505       18.695       16.424      702.514      349.493      269.740        0.090        0.066       17.002       12.013        0.499      342.843       18.536      855.881
09/17/2013  01:57:00      -10.998        5.014        3.467       15.732       12.016        7.345      247.489      144.384       53.950        0.030        0.022       12.087        4.287        0.126      343.030       18.855      855.886
09/17/2013  01:58:00        9.964        2.745       15.287       28.896       17.297       16.939      834.950      299.173      286.913        0.088        0.071       10.335       16.989        2.702      343.026       18.849      855.892
09/17/2013  01:59:00       20.743       -4.838        9.442       31.156       38.309       20.727      970.696     1467.595      429.601        0.170        0.143       21.300       22.066        1.073      342.785       18.439      855.891
09/17/2013  02:00:00       58.772      -28.659       -1.295       46.703       32.004       34.494     2181.188     1024.240     1189.830        0.434        0.220       65.388       22.915        0.123      342.648       18.204      855.910
09/17/2013  02:01:00       46.188      -42.333       -4.491       41.604       36.670       30.292     1730.859     1344.685      917.605        0.397        0.200       62.654       22.631        0.130      342.688       18.274      855.918
09/17/2013  02:02:00        8.296       -2.337       12.624       29.062       17.607       19.373      844.588      309.994      375.315        0.088        0.076        8.619       16.904        3.846      342.743       18.368      855.947
09/17/2013  02:03:00      -48.674       30.822        1.855       34.111       17.102       10.893     1163.556      292.480      118.659        0.245        0.079       57.612        9.055        0.025      343.064       18.913      855.977
09/17/2013  02:04:00     -146.543       64.318      -21.240       39.234       38.669       19.980     1539.330     1495.283      399.188        1.475        0.172      160.036       18.049        0.013      343.231       19.197      855.993
09/17/2013  02:05:00     -103.906       63.630      -19.776       33.012       28.306       19.335     1089.785      801.225      373.827        0.875        0.113      121.841       20.996        0.030      343.394       19.474      855.987
09/17/2013  02:06:00      -31.854      113.837       -5.973       31.208       27.023       18.417      973.928      730.264      339.175        0.803        0.102      118.210       16.785        0.020      343.379       19.449      855.977
09/17/2013  02:07:00       18.549       73.607       -7.070       14.262       33.113       15.694      203.408     1096.449      246.293        0.368        0.077       75.908       15.717        0.043      343.406       19.493      855.962
09/17/2013  02:08:00       34.396       21.712        1.579       20.375       12.213        9.908      415.128      149.158       98.172        0.116        0.033       40.675        5.476        0.018      343.248       19.226      855.941
09/17/2013  02:09:00       19.729       48.445       -0.226       31.941       28.269       17.086     1020.204      799.115      291.936        0.242        0.106       52.308       15.152        0.084      343.088       18.954      855.896
09/17/2013  02:10:00       26.380      133.894      -11.475       31.897       55.271       29.785     1017.440     3054.900      887.137        1.186        0.248      136.468       30.868        0.051      343.053       18.894      855.828
09/17/2013  02:11:00       65.443      104.499       -7.337       40.508       58.309       33.497     1640.922     3399.896     1122.045        1.071        0.308      123.300       39.053        0.100      342.993       18.793      855.770
09/17/2013  02:12:00       64.283       48.926       43.107       58.643       32.886       36.582     3438.988     1081.471     1338.239        0.712        0.293       80.784       37.243        0.213      342.732       18.347      855.744
09/17/2013  02:13:00       41.621       45.194       36.541       37.680       36.130       34.308     1419.791     1305.344     1177.014        0.451        0.195       61.440       19.423        0.100      342.500       17.952      855.773
09/17/2013  02:14:00       86.239       60.076       38.587       73.061       42.261       28.539     5337.894     1785.957      814.460        1.024        0.397      105.102       20.268        0.037      342.577       18.086      855.804
09/17/2013  02:15:00       82.451       57.733        7.310       72.466       28.029       24.723     5251.336      785.641      611.205        0.842        0.332      100.654       25.294        0.063      342.977       18.765      855.838
09/17/2013  02:16:00       15.033       31.083       -2.849       39.387       26.328       18.976     1551.298      693.184      360.099        0.190        0.130       34.527       22.049        0.408      342.927       18.679      855.875
09/17/2013  02:17:00       95.722       43.760       13.331       24.963       28.452       22.375      623.172      809.511      500.639        0.659        0.097      105.250       12.405        0.014      343.028       18.851      855.875
09/17/2013  02:18:00       60.728       28.134       28.378       26.578       29.573       28.194      706.381      874.570      794.879        0.383        0.119       66.928       11.301        0.029      342.852       18.551      855.873
09/17/2013  02:19:00       62.378        9.399       -1.809       42.066       36.903       27.049     1769.560     1361.866      731.634        0.392        0.193       63.082       13.471        0.046      342.547       18.033      855.848
09/17/2013  02:20:00       32.557       35.671       10.287       41.495       45.446       29.946     1721.833     2065.330      896.788        0.356        0.234       48.295       15.839        0.108      342.855       18.557      855.826
09/17/2013  02:21:00       50.324       -1.054       15.572       37.712       28.157       19.624     1422.209      792.797      385.114        0.269        0.130       50.335       12.485        0.062      342.872       18.586      855.794
09/17/2013  02:22:00       48.715        3.522        6.067       16.842       27.244       28.612      283.642      742.234      818.658        0.213        0.092       48.842       17.596        0.130      342.899       18.632      855.758
09/17/2013  02:23:00       38.775      -34.333        6.948       21.477       28.941       22.681      461.245      837.601      514.450        0.227        0.091       51.791       14.539        0.079      342.769       18.411      855.730
09/17/2013  02:24:00        9.039      -59.937       14.411       18.390       19.307       22.848      338.206      372.742      522.038        0.256        0.062       60.615        6.926        0.013      342.514       17.977      855.713
09/17/2013  02:25:00      -16.193      -34.381       16.134       38.766       50.135       36.841     1502.766     2513.490     1357.285        0.354        0.269       38.003       23.213        0.373      342.809       18.480      855.715
09/17/2013  02:26:00       51.752      -88.923       -0.488       52.754       79.022       41.474     2783.024     6244.420     1720.058        1.066        0.537      102.887       42.457        0.170      342.856       18.558      855.734
09/17/2013  02:27:00       41.116      -75.689      -12.427       25.401       33.181       15.514      645.189     1101.012      240.690        0.478        0.099       86.136       11.505        0.018      342.934       18.691      855.748
09/17/2013  02:28:00       48.560      -15.052        2.596       36.089       14.922       25.372     1302.445      222.664      643.715        0.238        0.108       50.840       14.054        0.076      342.622       18.161      855.741
09/17/2013  02:29:00       67.182      -30.615       21.062       37.843       32.058       29.824     1432.062     1027.724      889.467        0.462        0.167       73.829       21.513        0.085      342.413       17.805      855.710
09/17/2013  02:30:00       43.933      -38.306       10.571       30.979       36.951       24.739      959.693     1365.401      612.024        0.322        0.147       58.288       10.603        0.033      342.253       17.533      855.658
09/17/2013  02:31:00       32.629      -66.983       -1.690       38.174       27.621       24.885     1457.216      762.892      619.259        0.420        0.142       74.507       12.829        0.030      342.135       17.332      855.614
09/17/2013  02:32:00       12.017      -62.972        8.974       23.729       28.171       18.360      563.051      793.583      337.105        0.294        0.085       64.108       15.827        0.061      342.274       17.568      855.586
09/17/2013  02:33:00       18.560      -57.935       -7.046       18.069       26.641       16.182      326.493      709.748      261.860        0.252        0.065       60.835       10.656        0.031      342.675       18.252      855.600
09/17/2013  02:34:00       -8.220      -17.865        9.771       32.616       16.862       14.758     1063.822      284.343      217.806        0.102        0.078       19.666       17.410        0.784      342.759       18.393      855.604
09/17/2013  02:35:00     -109.939      -73.398       -9.028       34.730       35.293       22.817     1206.169     1245.599      520.637        1.026        0.149      132.188       13.499        0.010      342.781       18.430      855.594
09/17/2013  02:36:00     -107.655      -54.585      -10.536       26.257       26.756       15.563      689.408      715.902      242.213        0.816        0.082      120.703        9.778        0.007      342.829       18.511      855.565
09/17/2013  02:37:00      -60.598      -21.450       -9.582       24.655       20.991       15.781      607.873      440.606      249.034        0.276        0.065       64.282       15.380        0.057      342.818       18.496      855.541
09/17/2013  02:38:00      -38.470      -36.294       -1.952       17.431       27.082       13.901      303.837      733.451      193.251        0.202        0.062       52.888       16.696        0.100      342.847       18.543      855.537
09/17/2013  02:39:00       -6.343       -3.492       12.586       37.985       23.380       19.248     1442.839      546.625      370.466        0.128        0.118        7.241       24.174       11.147      342.725       18.335      855.535
09/17/2013  02:40:00       16.773        2.971       24.391       32.963       40.206       32.916     1086.533     1616.561     1083.474        0.234        0.189       17.034       35.084        4.242      342.292       17.598      855.545
09/17/2013  02:41:00       15.622      -16.687       18.507       33.143       27.414       22.337     1098.446      751.552      498.933        0.161        0.117       22.858       14.562        0.406      342.381       17.750      855.559
09/17/2013  02:42:00       -8.778      -43.819        4.354       19.208       34.704       18.819      368.942     1204.356      354.162        0.197        0.096       44.689        9.305        0.043      342.543       18.026      855.577
09/17/2013  02:43:00        3.790      -88.206      -13.088       27.877       23.110       19.291      777.103      534.093      372.127        0.482        0.084       88.287       18.327        0.043      342.710       18.310      855.583
09/17/2013  02:44:00       -2.986      -21.930       -1.893       25.883       20.954       21.257      669.910      439.083      451.876        0.103        0.078       22.133       13.314        0.362      342.759       18.393      855.575
09/17/2013  02:45:00        9.537      -29.358      -12.752       21.144       26.933       16.502      447.051      725.394      272.311        0.128        0.072       30.869        8.485        0.076      342.832       18.518      855.564
09/17/2013  02:46:00       14.354        5.738       -2.064       13.128       31.472       23.350      172.344      990.504      545.206        0.098        0.085       15.458       18.935        1.500      342.655       18.216      855.544
09/17/2013  02:47:00       20.748      -15.292       -5.766       17.654       28.338       20.106      311.656      803.042      404.232        0.111        0.076       25.774       11.178        0.188      342.367       17.727      855.524
09/17/2013  02:48:00        2.568       -2.697      -10.163       20.078       24.849       13.107      403.128      617.455      171.795        0.065        0.060        3.724        9.713        6.803      342.348       17.695      855.512
09/17/2013  02:49:00        5.375      -23.453        1.260       14.958       33.182       15.851      223.743     1101.056      251.269        0.108        0.079       24.062        8.175        0.115      342.341       17.683      855.503
09/17/2013  02:50:00        2.061       -9.797        2.341       17.675       22.567       18.785      312.388      509.279      352.894        0.064        0.059       10.011        8.721        0.759      342.254       17.534      855.492
09/17/2013  02:51:00       40.511       29.429       30.972       24.758       18.555       20.319      612.953      344.278      412.861        0.242        0.069       50.072       11.389        0.052      342.598       18.119      855.482
09/17/2013  02:52:00      -13.663        3.129       -4.390       24.686       16.236       19.206      609.380      263.591      368.864        0.073        0.062       14.017        9.982        0.507      342.478       17.916      855.488
09/17/2013  02:53:00       -1.619      -44.742        2.562       10.418       12.069       13.890      108.529      145.650      192.935        0.123        0.022       44.771        9.075        0.041      342.476       17.913      855.508
09/17/2013  02:54:00       37.636       -7.663       25.972       27.861       24.164       19.712      776.219      583.913      388.558        0.195        0.087       38.408       18.354        0.228      342.458       17.882      855.520
09/17/2013  02:55:00      -16.866       -5.168        7.028       15.508       15.618       13.614      240.498      243.935      185.328        0.052        0.033       17.640       10.127        0.330      342.604       18.131      855.517
09/17/2013  02:56:00      -60.377      -10.016       -5.536       15.002       12.573       10.041      225.073      158.088      100.831        0.213        0.024       61.202        7.675        0.016      342.852       18.550      855.508
09/17/2013  02:57:00      -64.711        5.958       -7.972        9.566       12.257        5.965       91.505      150.231       35.580        0.228        0.014       64.984        4.090        0.004      342.974       18.760      855.485
09/17/2013  02:58:00      -58.338        2.981       -9.047        8.130        6.893        5.975       66.103       47.516       35.696        0.182        0.007       58.414        3.808        0.004      342.974       18.761      855.464
09/17/2013  02:59:00      -78.758      -34.555       -4.419       11.637       20.714        8.804      135.409      429.072       77.512        0.403        0.032       86.005        4.887        0.003      343.065       18.914      855.457
09/17/2013  03:00:00      -27.190      -17.099        7.142       36.353       23.792       20.803     1321.534      566.079      432.762        0.170        0.116       32.119       21.384        0.443      342.856       18.558      855.460
09/17/2013  03:01:00      -73.610      -57.335       12.223       57.709       46.775       26.934     3330.306     2187.934      725.452        0.755        0.312       93.304       25.047        0.072      342.853       18.554      855.455
09/17/2013  03:02:00     -104.636      -74.062       -5.455       35.796       19.773       18.899     1281.326      390.984      357.177        0.925        0.101      128.195       14.202        0.012      342.872       18.586      855.451
09/17/2013  03:03:00      -68.661      -19.985       -0.761       18.562       19.267       11.160      344.532      371.226      124.548        0.298        0.042       71.510        4.302        0.004      342.883       18.604      855.449
09/17/2013  03:04:00      -38.701      -13.288       -9.719       11.708       10.991        6.327      137.068      120.798       40.029        0.103        0.015       40.919        6.919        0.029      343.003       18.807      855.444
09/17/2013  03:05:00      -38.436      -24.294       -3.226       21.528       10.335        7.808      463.439      106.818       60.958        0.135        0.032       45.470        7.917        0.030      342.972       18.755      855.437
09/17/2013  03:06:00      -94.310      -44.692       -7.998       27.289       22.183       11.678      744.714      492.080      136.370        0.616        0.069      104.364       10.207        0.010      342.888       18.613      855.436
09/17/2013  03:07:00      -49.466      -11.865       -4.267       19.402       24.093       10.429      376.423      580.475      108.765        0.184        0.053       50.869       11.304        0.049      342.837       18.526      855.419
09/17/2013  03:08:00        5.560       16.703        9.520       15.337        8.848       10.037      235.210       78.281      100.746        0.041        0.021       17.604        9.177        0.272      342.632       18.177      855.392
09/17/2013  03:09:00      -29.167       -7.829       -5.804       38.121       14.795       10.982     1453.178      218.907      120.598        0.137        0.090       30.199       15.926        0.278      342.689       18.274      855.370
09/17/2013  03:10:00     -103.854      -34.153       -9.133       24.456       22.762       10.889      598.092      518.117      118.565        0.663        0.062      109.326        5.633        0.003      342.850       18.549      855.373
09/17/2013  03:11:00     -113.270       -6.523      -11.438       18.673       28.737        9.623      348.693      825.820       92.594        0.714        0.063      113.458        8.076        0.005      342.814       18.488      855.373
09/17/2013  03:12:00     -182.444       -0.915      -25.125       40.123       31.231       20.970     1609.869      975.389      439.733        1.847        0.151      182.447       17.561        0.009      342.627       18.168      855.365
09/17/2013  03:13:00     -204.077       46.073      -19.777       67.586       49.403       24.370     4567.887     2440.635      593.912        2.588        0.380      209.213       27.181        0.017      342.620       18.154      855.355
09/17/2013  03:14:00     -137.911       78.535      -21.983       50.244       59.648       25.367     2524.431     3557.904      643.463        1.620        0.336      158.705       18.452        0.014      343.341       19.382      855.323
09/17/2013  03:15:00      -21.295       54.703        5.414       30.838       38.102       22.706      950.961     1451.734      515.574        0.320        0.146       58.702       24.786        0.178      343.298       19.311      855.312
09/17/2013  03:16:00      -52.929        3.836       -4.354       22.984       33.316       15.600      528.274     1109.980      243.373        0.236        0.094       53.068       12.786        0.058      343.178       19.107      855.292
09/17/2013  03:17:00      -18.346       66.783        3.062       41.967       30.477       27.896     1761.256      928.865      778.205        0.414        0.173       69.257       27.581        0.159      343.327       19.361      855.250
09/17/2013  03:18:00       -1.117        1.060        6.375       36.405       33.587       18.930     1325.321     1128.100      358.363        0.143        0.141        1.540       14.613       90.098      343.217       19.173      855.223
09/17/2013  03:19:00      -94.870      -12.412       -3.364       56.444       34.635       18.370     3185.886     1199.554      337.440        0.694        0.236       95.679       20.583        0.046      343.333       19.371      855.248
09/17/2013  03:20:00       21.304      -18.652       12.189       35.582       39.668       24.175     1266.053     1573.518      584.424        0.219        0.171       28.315       15.443        0.297      343.125       19.016      855.275
09/17/2013  03:21:00       46.590      -23.817       21.358       40.419       45.157       37.690     1633.702     2039.199     1420.546        0.414        0.255       52.325       32.737        0.391      342.385       17.758      855.290
09/17/2013  03:22:00       46.634      -26.267        5.039       41.583       40.921       27.254     1729.107     1674.545      742.796        0.352        0.207       53.523       22.128        0.171      342.150       17.359      855.294
09/17/2013  03:23:00      124.514      114.215       68.690       42.506       37.708       35.048     1806.729     1421.864     1228.337        1.886        0.223      168.964       12.150        0.005      342.234       17.500      855.264
09/17/2013  03:24:00       31.071       76.007       86.558       60.083       45.630       31.007     3609.942     2082.142      961.408        1.044        0.333       82.112       19.735        0.058      342.043       17.176      855.214
09/17/2013  03:25:00       81.202       85.361       76.505       68.448       30.896       35.261     4685.195      954.558     1243.336        1.331        0.344      117.815       36.039        0.094      342.053       17.192      855.180
09/17/2013  03:26:00       76.923       74.286       59.948       59.160       27.680       42.348     3499.927      766.210     1793.369        1.054        0.303      106.937       41.392        0.150      342.080       17.241      855.163
09/17/2013  03:27:00      115.473       74.754       54.458       41.155       38.184       36.912     1693.693     1457.983     1362.505        1.320        0.226      137.558       23.596        0.029      342.327       17.659      855.174
09/17/2013  03:28:00       64.198       45.798       28.109       17.231       28.624       28.629      296.892      819.307      819.642        0.447        0.097       78.859       19.759        0.063      342.230       17.495      855.190
09/17/2013  03:29:00       49.437       38.918       17.162       25.602       25.872       26.614      655.464      669.375      708.315        0.314        0.102       62.918       17.977        0.082      342.321       17.647      855.183
09/17/2013  03:30:00       73.043       52.878       17.770       29.677       16.282       16.942      880.707      265.106      287.033        0.494        0.072       90.174       12.297        0.019      342.545       18.030      855.178
09/17/2013  03:31:00       53.158       56.752        1.165       40.638       23.046       24.815     1651.473      531.120      615.764        0.442        0.140       77.760       23.038        0.088      342.786       18.438      855.177
09/17/2013  03:32:00        5.958       59.676       -7.335       27.068       25.618       14.801      732.675      656.272      219.064        0.263        0.080       59.972       14.064        0.055      342.616       18.150      855.189
09/17/2013  03:33:00      -46.021       44.522      -11.504       32.168       47.115       12.835     1034.751     2219.825      164.728        0.383        0.171       64.032       16.216        0.064      342.628       18.172      855.191
09/17/2013  03:34:00     -125.246       -3.751      -14.923       53.331       34.785       22.814     2844.223     1210.004      520.466        1.025        0.229      125.302       19.474        0.024      342.292       17.600      855.198
09/17/2013  03:35:00      -56.533       18.217       -5.294       26.636       24.137       16.221      709.467      582.611      263.125        0.256        0.078       59.396       10.626        0.032      342.478       17.915      855.194
09/17/2013  03:36:00      -50.976      -15.483       -6.991       15.104       17.102        8.530      228.128      292.495       72.754        0.174        0.030       53.276        6.398        0.014      342.523       17.993      855.173
09/17/2013  03:37:00      -42.167        5.060      -10.966       13.039       13.824       10.717      170.009      191.112      114.863        0.120        0.024       42.470        8.654        0.042      342.473       17.906      855.145
09/17/2013  03:38:00      -71.327       32.751      -11.011       25.922       26.240        8.919      671.937      688.531       79.544        0.386        0.072       78.487        7.175        0.008      342.678       18.257      855.134
09/17/2013  03:39:00     -102.671        0.415       -0.727       28.338       35.219       17.460      803.034     1240.369      304.853        0.644        0.117      102.672       13.006        0.016      342.873       18.587      855.123
09/17/2013  03:40:00      -58.085      -22.734        0.522       26.511       20.646       13.664      702.835      426.264      186.709        0.260        0.066       62.375        8.219        0.017      342.634       18.182      855.096
09/17/2013  03:41:00      -34.141      -22.410       -1.628       17.566       18.654       10.874      308.547      347.964      118.244        0.122        0.039       40.839        7.511        0.034      342.573       18.076      855.056
09/17/2013  03:42:00      -54.172      -24.709      -10.538       16.561       13.357        9.788      274.260      178.408       95.808        0.210        0.027       59.541        8.626        0.021      342.624       18.165      855.049
09/17/2013  03:43:00      -88.856      -49.787       -8.637       30.963       22.586       11.531      958.694      510.129      132.958        0.602        0.080      101.853        8.335        0.007      342.550       18.039      855.050
09/17/2013  03:44:00      -47.629      -36.769       -3.718       26.573       14.037        9.562      706.116      197.037       91.426        0.231        0.050       60.171       10.277        0.029      342.495       17.946      855.037
09/17/2013  03:45:00        2.050      -57.027      -14.716       24.806       25.042       11.428      615.328      627.126      130.597        0.242        0.069       57.064       10.011        0.031      342.682       18.264      855.029
09/17/2013  03:46:00      -24.649     -112.674        0.560       32.232       28.596       18.988     1038.906      817.717      360.562        0.776        0.111      115.339       11.892        0.011      342.744       18.368      855.037
09/17/2013  03:47:00      -24.528      -49.365       16.349       32.921       42.431       23.019     1083.769     1800.364      529.885        0.336        0.171       55.123       14.022        0.065      343.013       18.827      855.042
09/17/2013  03:48:00       -2.099      -73.615       -4.011       16.487       20.589       17.071      271.837      423.903      291.426        0.321        0.049       73.645       10.759        0.021      343.117       19.004      855.023
09/17/2013  03:49:00      -35.096      -11.595        1.142       22.472       12.761       10.934      505.013      162.854      119.552        0.108        0.039       36.962        7.466        0.041      342.742       18.364      855.003
09/17/2013  03:50:00      -38.487       -7.565        2.994       32.241       14.987       13.013     1039.497      224.598      169.328        0.149        0.072       39.224       14.380        0.134      342.590       18.107      855.006
09/17/2013  03:51:00       -2.071       -4.639        7.522       32.210       22.420        9.112     1037.492      502.677       83.033        0.085        0.081        5.081        8.976        3.121      342.682       18.261      855.021
09/17/2013  03:52:00       36.084       28.658       22.116       32.638       17.242       17.305     1065.245      297.299      299.456        0.214        0.083       46.079       11.950        0.067      342.563       18.059      855.025
09/17/2013  03:53:00       19.931       10.778       19.519       31.617       21.124       12.817      999.605      446.235      164.282        0.125        0.081       22.659       11.591        0.262      342.562       18.059      855.039
09/17/2013  03:54:00      -36.078      -67.541       -0.093       24.513       31.774       14.668      600.902     1009.600      215.149        0.384        0.091       76.573       10.300        0.018      343.113       18.995      855.054
09/17/2013  03:55:00      -41.008     -114.926       -0.098       17.220       24.477       17.194      296.526      599.123      295.621        0.804        0.060      122.023        7.586        0.004      343.715       20.021      855.039
09/17/2013  03:56:00      -56.874      -70.110       -7.397       21.449       35.768       19.235      460.078     1279.364      369.994        0.516        0.105       90.278       18.573        0.042      343.677       19.956      854.985
09/17/2013  03:57:00      -69.634       13.218       -3.757       29.215       23.411       12.654      853.513      548.090      160.133        0.330        0.078       70.878       11.353        0.026      343.230       19.196      854.928
09/17/2013  03:58:00      -52.223        6.767       -9.696       20.202       58.488       13.021      408.119     3420.867      169.542        0.343        0.200       52.659       15.293        0.084      343.473       19.609      854.890
09/17/2013  03:59:00      -89.268      -60.633       -9.904       60.502       30.234       28.243     3660.541      914.095      797.659        0.856        0.269      107.913       31.305        0.084      343.691       19.981      854.910
09/17/2013  04:00:00     -158.306     -113.824        0.009      130.529       73.746       45.424    17037.824     5438.496     2063.365        3.127        1.227      194.978       49.561        0.065      343.824       20.203      854.936
09/17/2013  04:01:00     -126.134      -24.578      -10.029       38.042       54.883       24.646     1447.170     3012.198      607.426        1.084        0.253      128.506       11.187        0.008      343.862       20.272      854.931
09/17/2013  04:02:00      -69.189      -37.755       -5.210       49.219       23.117       13.320     2422.486      534.379      177.426        0.469        0.157       78.820       15.722        0.040      343.916       20.364      854.881
09/17/2013  04:03:00     -118.666      -76.903        3.128       60.682       37.153       21.234     3682.345     1380.351      450.887        1.276        0.276      141.406       22.346        0.025      343.790       20.149      854.874
09/17/2013  04:04:00     -102.572      -86.608        4.331       66.796       38.116       27.304     4461.685     1452.845      745.517        1.235        0.333      134.246       28.951        0.047      343.639       19.892      854.911
09/17/2013  04:05:00      -38.594      -24.093        5.050       37.629       22.406       12.803     1415.970      502.007      163.920        0.209        0.104       45.497       10.287        0.051      343.715       20.023      854.900
09/17/2013  04:06:00        0.877       -7.392       -1.331       19.549       20.469       12.671      382.147      418.979      160.555        0.051        0.048        7.444       13.914        3.494      343.215       19.170      854.865
09/17/2013  04:07:00      -17.325      -41.726       17.331       63.732       37.645       34.649     4061.824     1417.118     1200.564        0.451        0.334       45.180       30.309        0.450      343.577       19.786      854.825
09/17/2013  04:08:00      -49.663      -19.209        2.755       33.350       25.176       14.628     1112.202      633.828      213.978        0.240        0.098       53.248        5.800        0.012      343.560       19.757      854.812
09/17/2013  04:09:00      -38.480     -103.170        1.294       30.635       42.853       16.113      938.512     1836.368      259.637        0.758        0.152      110.113       18.356        0.028      343.717       20.025      854.832
09/17/2013  04:10:00      -23.874      -82.081       -5.127       28.127       23.195       12.967      791.144      537.998      168.152        0.442        0.075       85.483        8.627        0.010      343.758       20.096      854.840
09/17/2013  04:11:00       -2.044      -53.051       -7.635       17.242       21.397       12.317      297.290      457.828      151.701        0.189        0.045       53.090        9.144        0.030      343.757       20.093      854.848
09/17/2013  04:12:00       -4.442      -65.230       10.523       39.192       46.165       21.177     1536.006     2131.163      448.445        0.425        0.206       65.381       19.462        0.089      343.452       19.573      854.848
09/17/2013  04:13:00        9.186      -26.242       17.088       22.744       36.292       25.419      517.278     1317.133      646.124        0.177        0.124       27.803       19.640        0.499      343.346       19.393      854.795
09/17/2013  04:14:00       -2.870       27.908       44.519       29.033       33.270       20.864      842.940     1106.906      435.287        0.258        0.119       28.055       19.032        0.460      343.193       19.134      854.728
09/17/2013  04:15:00        6.039        5.450       29.597       17.146       31.903       18.078      293.971     1017.782      326.806        0.129        0.082        8.135       22.128        7.400      343.158       19.073      854.735
09/17/2013  04:16:00       23.744      -26.568       -3.447       18.551       19.214        8.929      344.152      369.165       79.730        0.104        0.040       35.631        7.915        0.049      343.322       19.351      854.781
09/17/2013  04:17:00       -4.247      -58.685       -8.245       31.208       77.648       31.781      973.935     6029.177     1010.053        0.577        0.401       58.838       36.559        0.386      343.597       19.822      854.802
09/17/2013  04:18:00       29.186       25.968       20.010       28.479       32.470       38.193      811.054     1054.299     1458.678        0.262        0.166       39.066       22.686        0.337      343.563       19.761      854.785
09/17/2013  04:19:00       28.450       31.863       49.976       42.765       51.451       52.551     1828.803     2647.229     2761.556        0.578        0.362       42.716       45.712        1.145      343.151       19.062      854.783
09/17/2013  04:20:00        4.198      -41.495        8.478       28.838       44.878       30.947      831.627     2014.033      957.725        0.281        0.190       41.707       32.414        0.604      343.346       19.394      854.765
09/17/2013  04:21:00       44.377      -59.507        0.003       35.562       25.827       20.508     1264.621      667.055      420.582        0.393        0.118       74.233       12.597        0.029      343.400       19.484      854.724
09/17/2013  04:22:00      -14.757     -120.012        5.293       63.396       94.141       35.760     4019.030     8862.520     1278.784        1.440        0.708      120.916       46.238        0.146      343.354       19.404      854.671
09/17/2013  04:23:00     -119.445      -54.557       -1.455       53.679       33.980       26.488     2881.403     1154.633      701.633        1.099        0.237      131.315       26.242        0.040      343.163       19.082      854.666
09/17/2013  04:24:00      -34.144      -17.746        2.860       36.309       19.981       11.575     1318.349      399.223      133.991        0.167        0.093       38.480       12.924        0.113      343.229       19.195      854.689
09/17/2013  04:25:00       -8.508      -68.240       -0.360       18.726       30.814       11.828      350.674      949.506      139.903        0.308        0.072       68.768        9.697        0.020      343.436       19.545      854.701
09/17/2013  04:26:00       30.065        7.882       34.446       45.193       69.041       43.279     2042.439     4766.629     1873.049        0.542        0.434       31.081       53.762        2.992      343.200       19.145      854.665
09/17/2013  04:27:00       -1.756       27.124       31.300       18.428       54.764       37.211      339.599     2999.095     1384.645        0.322        0.236       27.181       38.642        2.021      343.220       19.179      854.612
09/17/2013  04:28:00        9.796      -31.883        1.322       27.299       26.327       16.234      745.256      693.103      263.546        0.141        0.085       33.354       18.932        0.322      343.201       19.146      854.598
09/17/2013  04:29:00      -11.691       -0.130        3.482       70.905       24.098       13.771     5027.454      580.703      189.650        0.297        0.290       11.691        9.890        0.716      343.221       19.180      854.625
09/17/2013  04:30:00      -89.207       -1.471       -6.215       55.841       40.919       23.674     3118.201     1674.369      560.456        0.667        0.268       89.220       32.664        0.134      342.820       18.498      854.688
09/17/2013  04:31:00        4.118      -14.140       -3.755       31.839       19.136       14.653     1013.706      366.173      214.722        0.091        0.080       14.727       13.233        0.807      342.907       18.645      854.672
09/17/2013  04:32:00      -42.818      -60.581        1.400       22.697       29.690       14.269      515.167      881.503      203.603        0.355        0.080       74.185       12.385        0.028      342.998       18.800      854.666
09/17/2013  04:33:00      -28.425      -52.600        0.069       28.554       14.380       10.883      815.308      206.788      118.433        0.236        0.057       59.789       15.063        0.063      343.258       19.243      854.657
09/17/2013  04:34:00     -113.059      -71.309       -7.782       19.115       15.880       16.395      365.381      252.169      268.797        0.941        0.044      133.669        6.870        0.003      343.248       19.225      854.674
09/17/2013  04:35:00       11.442       -9.368        5.373       67.079       56.164       21.652     4499.536     3154.433      468.810        0.418        0.406       14.788       33.911        5.259      342.994       18.792      854.632
09/17/2013  04:36:00       75.101       48.803       30.090       62.416       41.041       49.116     3895.815     1684.388     2412.357        0.846        0.400       89.565       48.702        0.296      342.924       18.676      854.513
09/17/2013  04:37:00      -21.236       25.762       47.722       19.515       36.931       33.551      380.839     1363.874     1125.660        0.313        0.144       33.386       27.595        0.683      342.980       18.771      854.549
09/17/2013  04:38:00     -112.798      -69.481       -3.623       51.052       37.276       24.247     2606.282     1389.511      587.911        1.107        0.229      132.480       11.968        0.008      343.164       19.083      854.622
09/17/2013  04:39:00      -68.189      -15.153        0.763       28.783       28.032       16.606      828.454      785.773      275.768        0.338        0.094       69.852       11.196        0.026      343.066       18.915      854.657
09/17/2013  04:40:00       47.314       53.715       14.627       34.078       20.658       14.736     1161.326      426.745      217.154        0.357        0.090       71.581        5.138        0.005      342.876       18.592      854.639
09/17/2013  04:41:00       63.028       20.887        2.481       42.161       26.629       16.739     1777.528      709.099      280.205        0.359        0.138       66.399       17.228        0.067      342.781       18.430      854.602
09/17/2013  04:42:00      -17.643      -31.556       17.943       21.608       34.898       19.751      466.895     1217.894      390.110        0.185        0.104       36.154       19.775        0.299      342.810       18.479      854.630
09/17/2013  04:43:00       21.262       29.958       34.759       25.445       21.528       22.295      647.431      463.471      497.084        0.208        0.080       36.736        9.200        0.063      342.489       17.935      854.636
09/17/2013  04:44:00      -10.016       -8.408        0.045       30.421       26.187       19.509      925.435      685.755      380.604        0.108        0.100       13.078        8.988        0.472      342.292       17.600      854.650
09/17/2013  04:45:00       12.854       22.452        0.540       29.845       18.719       13.465      890.752      350.388      181.311        0.105        0.071       25.872       11.567        0.200      342.765       18.404      854.685
09/17/2013  04:46:00       55.280       -8.184       -0.198       30.713       22.577       16.128      943.265      509.732      260.101        0.242        0.086       55.882       11.012        0.039      342.382       17.752      854.659
09/17/2013  04:47:00        5.663      -17.434       -1.655       23.224       16.682       12.768      539.362      278.274      163.019        0.066        0.049       18.331        8.896        0.235      342.527       18.000      854.661
09/17/2013  04:48:00       12.679       24.655       11.321       31.029       42.012       12.756      962.782     1765.011      162.714        0.189        0.145       27.725        9.275        0.112      342.516       17.980      854.660
09/17/2013  04:49:00       36.375       38.802       26.671       48.132       30.467       36.733     2316.737      928.213     1349.298        0.407        0.230       53.186       14.121        0.070      342.493       17.941      854.637
09/17/2013  04:50:00       -1.474      -24.012       -4.117       39.902       49.616       30.375     1592.179     2461.742      922.668        0.279        0.249       24.057       23.630        0.965      342.331       17.666      854.595
09/17/2013  04:51:00       -7.794      -30.461        9.000       38.228       35.525       31.262     1461.350     1262.006      977.315        0.238        0.185       31.442       19.801        0.397      342.110       17.290      854.582
09/17/2013  04:52:00       41.179      -20.858        5.133       30.588       50.103       29.343      935.618     2510.325      861.038        0.323        0.215       46.160       17.241        0.140      342.114       17.296      854.609
09/17/2013  04:53:00       74.901      -44.521        8.523       51.847       49.951       37.531     2688.104     2495.055     1408.571        0.713        0.330       87.134       24.855        0.081      342.120       17.307      854.616
09/17/2013  04:54:00       55.440      -15.499       24.553       56.162       86.041       37.340     3154.134     7403.079     1394.287        0.793        0.598       57.565       46.736        0.659      342.184       17.416      854.617
09/17/2013  04:55:00       94.182       79.698       50.109       23.572       28.785       30.517      555.618      828.557      931.279        1.002        0.116      123.378       12.393        0.010      342.485       17.927      854.623
09/17/2013  04:56:00       36.488       56.856       50.224       42.817       40.606       37.794     1833.309     1648.808     1428.406        0.600        0.246       67.558       26.747        0.157      342.389       17.764      854.627
09/17/2013  04:57:00      -18.207        0.122        9.964       36.047       31.307       23.314     1299.409      980.145      543.565        0.163        0.141       18.207       25.608        1.978      342.339       17.681      854.652
09/17/2013  04:58:00      -62.351       27.921       -5.316       24.793       15.997       11.030      614.677      255.914      121.663        0.284        0.050       68.317        5.874        0.007      342.376       17.742      854.654
09/17/2013  04:59:00       68.842       40.434        5.681       36.719       33.078       22.003     1348.309     1094.132      484.111        0.467        0.146       79.838        5.274        0.004      342.484       17.925      854.583
09/17/2013  05:00:00      112.447      108.246       31.299       35.720       42.951       41.341     1275.912     1844.759     1709.084        1.508        0.241      156.082       21.470        0.019      342.451       17.870      854.509
09/17/2013  05:01:00       21.558       43.952       45.349       53.092       51.204       37.817     2818.785     2621.823     1430.124        0.566        0.344       48.954       34.336        0.492      342.161       17.376      854.490
09/17/2013  05:02:00        3.284       49.727       64.541       31.227       26.487       21.946      975.137      701.543      481.624        0.440        0.108       49.835       17.107        0.118      342.221       17.479      854.524
09/17/2013  05:03:00       33.549       34.091       31.264       46.902       44.106       24.715     2199.772     1945.304      610.849        0.401        0.238       47.830       23.414        0.240      342.123       17.313      854.567
09/17/2013  05:04:00      -35.419       26.910       -8.588       19.614       24.754       10.480      384.728      612.739      109.829        0.158        0.055       44.482        7.409        0.028      342.305       17.621      854.609
09/17/2013  05:05:00      -43.255       19.064       -5.676       17.374       15.003        8.349      301.851      225.088       69.706        0.143        0.030       47.270        4.863        0.011      342.380       17.750      854.629
09/17/2013  05:06:00        7.133      -10.431        8.910       18.435       26.761       15.748      339.864      716.176      248.012        0.077        0.065       12.637       13.688        1.173      342.175       17.400      854.633
09/17/2013  05:07:00       15.889      -48.404       -0.551       15.106       21.762       13.771      228.178      473.603      189.629        0.174        0.045       50.945       11.118        0.048      342.385       17.758      854.628
09/17/2013  05:08:00      -21.764      -73.906       -7.289       27.370       22.825       15.156      749.126      521.003      229.704        0.374        0.075       77.044       16.841        0.048      342.625       18.165      854.648
09/17/2013  05:09:00      -19.164      -56.029       -7.241       14.965       26.741        9.967      223.939      715.092       99.340        0.230        0.052       59.215        7.724        0.017      342.878       18.595      854.659
09/17/2013  05:10:00       32.400      -18.961        3.220       35.816       13.734       17.357     1282.790      188.613      301.277        0.160        0.089       37.540        6.483        0.030      342.623       18.162      854.651
09/17/2013  05:11:00      -32.142        3.566      -13.024       43.826       10.303       14.112     1920.739      106.153      199.156        0.172        0.111       32.339        5.567        0.030      342.666       18.234      854.640
09/17/2013  05:12:00      -82.799      -23.751      -12.236       56.894       28.956       18.891     3236.960      838.474      356.853        0.600        0.222       86.139       23.785        0.076      342.642       18.194      854.640
09/17/2013  05:13:00        0.149       17.338        9.013       25.999       20.800       17.179      675.949      432.651      295.114        0.089        0.070       17.339       18.138        1.094      342.203       17.447      854.582
09/17/2013  05:14:00      -44.906      -85.933       -3.527       43.751       36.513       18.824     1914.173     1333.211      354.358        0.651        0.180       96.959       16.016        0.027      342.747       18.373      854.613
09/17/2013  05:15:00     -114.650     -166.467        7.936      152.739       90.597       54.800    23329.237     8207.762     3003.069        3.772        1.727      202.128       26.951        0.018      343.413       19.504      854.647
09/17/2013  05:16:00     -188.873     -128.382        4.560      136.109       79.628       50.749    18525.717     6340.654     2575.432        3.980        1.372      228.374       60.215        0.070      343.043       18.874      854.664
09/17/2013  05:17:00      -71.198      -17.402       14.055       76.806       53.642       30.561     5899.110     2877.508      933.949        0.764        0.486       73.293       25.277        0.119      343.043       18.876      854.628
09/17/2013  05:18:00      -82.762      -61.974       -2.596       34.850       23.147       17.548     1214.528      535.794      307.950        0.638        0.103      103.395        7.039        0.005      343.046       18.881      854.584
09/17/2013  05:19:00     -123.806      -63.662        7.973       66.524       66.242       35.611     4425.490     4387.997     1268.139        1.476        0.504      139.215       36.862        0.070      343.315       19.339      854.569
09/17/2013  05:20:00      -60.461      -88.014       -3.319       43.990       57.203       30.683     1935.112     3272.158      941.447        0.878        0.307      106.780       26.813        0.063      343.351       19.401      854.561
09/17/2013  05:21:00      -82.699      -51.016       -0.057       45.915       40.412       25.572     2108.155     1633.165      653.947        0.692        0.220       97.169       14.954        0.024      343.292       19.302      854.546
09/17/2013  05:22:00      -22.630      -27.767        4.718       63.103       34.469       32.286     3981.968     1188.114     1042.377        0.376        0.311       35.821       36.380        1.031      343.098       18.971      854.474
09/17/2013  05:23:00       39.280      -10.325       13.717       49.421       43.524       42.604     2442.416     1894.309     1815.128        0.399        0.308       40.614       40.755        1.007      342.312       17.632      854.419
09/17/2013  05:24:00      -33.040      -62.544       13.897       42.074       37.985       23.619     1770.255     1442.844      557.838        0.448        0.189       70.734       20.610        0.085      342.794       18.451      854.462
09/17/2013  05:25:00     -137.765      -97.508        6.421       90.897       61.498       39.498     8262.349     3781.995     1560.130        2.106        0.680      168.781       39.401        0.054      343.170       19.091      854.501
09/17/2013  05:26:00     -125.467      -52.916        3.520       57.112       48.435       31.522     3261.742     2345.919      993.654        1.258        0.330      136.169       24.370        0.032      343.114       18.996      854.503
09/17/2013  05:27:00     -174.788      -40.961       -9.372       84.242       44.016       38.543     7096.649     1937.384     1485.561        2.142        0.526      179.523       43.906        0.060      343.219       19.175      854.453
09/17/2013  05:28:00     -134.742      -25.016       -7.083       53.954       68.994       33.735     2910.993     4760.233     1138.026        1.382        0.440      137.044       35.002        0.065      343.262       19.249      854.406
09/17/2013  05:29:00     -170.801       23.018       -9.498       74.802      112.277       40.319     5595.294    12606.222     1625.625        2.481        0.991      172.345       37.359        0.047      343.427       19.529      854.354
09/17/2013  05:30:00      -59.588      -88.217        5.837       56.673       48.630       26.026     3211.867     2364.911      677.333        0.881        0.313      106.457       31.686        0.089      343.213       19.166      854.383
09/17/2013  05:31:00      -73.682       -8.426       -9.360       87.496       70.590       24.754     7655.628     4982.989      612.777        0.942        0.663       74.162       26.800        0.131      343.076       18.932      854.382
09/17/2013  05:32:00       21.416      -37.222       -0.705       42.779       28.233       20.246     1830.002      797.123      409.899        0.244        0.152       42.943       12.561        0.086      342.765       18.403      854.367
09/17/2013  05:33:00     -125.413      -47.412        3.928       61.975       56.438       23.149     3840.932     3185.198      535.854        1.278        0.378      134.076       22.140        0.027      342.999       18.801      854.355
09/17/2013  05:34:00     -140.875      -25.666       14.570      102.247      104.967       51.451    10454.408    11018.022     2647.219        2.241        1.206      143.194       45.579        0.101      342.970       18.750      854.356
09/17/2013  05:35:00     -147.210      -89.406        3.897      131.337       86.718       51.569    17249.393     7519.933     2659.371        2.855        1.371      172.232       49.396        0.082      343.056       18.897      854.384
09/17/2013  05:36:00     -148.369     -106.863        1.916       83.219      103.567       40.100     6925.333    10726.027     1608.021        2.634        0.963      182.847       44.183        0.058      343.016       18.829      854.409
09/17/2013  05:37:00     -164.635      -95.197       19.307      112.474       67.432       49.652    12650.416     4547.080     2465.300        2.810        0.983      190.177       59.027        0.096      342.978       18.763      854.497
09/17/2013  05:38:00     -158.553     -109.571       -2.299       76.041       63.985       37.691     5782.215     4094.066     1420.606        2.422        0.565      192.730       34.965        0.033      342.940       18.699      854.553
09/17/2013  05:39:00     -114.015     -162.695        8.304       73.237       88.047       45.499     5363.617     7752.201     2070.169        2.736        0.759      198.668       38.073        0.037      342.930       18.682      854.573
09/17/2013  05:40:00     -179.238     -130.027       13.044      112.181       73.282       56.165    12584.507     5370.211     3154.473        3.515        1.055      221.434       54.934        0.062      343.019       18.832      854.560
09/17/2013  05:41:00     -172.032     -145.965        3.561      115.571       68.229       54.140    13356.574     4655.223     2931.139        3.592        1.047      225.612       52.585        0.054      343.123       19.011      854.539
09/17/2013  05:42:00      -97.052     -178.139       -2.700       63.744       69.481       42.426     4063.318     4827.668     1799.930        2.592        0.535      202.861       40.573        0.040      343.044       18.878      854.554
09/17/2013  05:43:00      -98.443      -88.477       -4.235       76.309       65.899       40.586     5823.118     4342.656     1647.203        1.467        0.591      132.361       21.059        0.025      342.947       18.711      854.560
09/17/2013  05:44:00      -96.551     -165.375        1.490       74.270       88.914       44.139     5515.974     7905.757     1948.218        2.602        0.768      191.497       42.571        0.049      342.983       18.772      854.584
09/17/2013  05:45:00      -10.601      -51.929       16.481       42.672       32.900       48.403     1820.906     1082.429     2342.882        0.416        0.262       53.000       12.220        0.053      342.856       18.558      854.595
09/17/2013  05:46:00      -30.619      -20.986       -5.566       46.068       36.118       26.525     2122.268     1304.496      703.565        0.277        0.207       37.121        9.936        0.072      342.670       18.243      854.587
09/17/2013  05:47:00      -27.260       -3.405      -12.226       53.342       30.301       30.710     2845.414      918.156      943.084        0.280        0.235       27.472       28.878        1.105      342.390       17.766      854.574
09/17/2013  05:48:00      -13.492       -4.604       -8.265       38.771       27.994       26.092     1503.186      783.648      680.817        0.162        0.148       14.256       17.475        1.503      342.395       17.775      854.529
09/17/2013  05:49:00       88.321      -11.418       -2.424       30.452       45.385       28.496      927.301     2059.786      812.037        0.587        0.190       89.056       19.644        0.049      342.035       17.164      854.482
09/17/2013  05:50:00       40.384      -31.915        7.527       30.281       38.126       30.932      916.920     1453.571      956.776        0.302        0.166       51.473       25.393        0.243      342.133       17.330      854.496
09/17/2013  05:51:00       39.734      -49.619       15.527       28.708       49.828       34.063      824.130     2482.836     1160.299        0.437        0.223       63.568       34.825        0.300      342.435       17.842      854.531
09/17/2013  05:52:00      -42.624      -72.481       -3.928       41.185       40.370       22.981     1696.235     1629.740      528.124        0.547        0.193       84.085       21.363        0.065      342.702       18.295      854.562
09/17/2013  05:53:00      -72.420      -90.601      -10.967       44.979       45.577       31.492     2023.092     2077.274      991.766        0.933        0.255      115.988       27.022        0.054      342.705       18.300      854.605
09/17/2013  05:54:00      -72.383     -136.477       -2.076       26.156       62.659       19.568      684.119     3926.186      382.896        1.443        0.250      154.484       16.207        0.011      342.710       18.309      854.622
09/17/2013  05:55:00      -16.681      -49.418       13.233       28.600       57.763       22.251      817.938     3336.599      495.091        0.377        0.232       52.157       27.900        0.286      342.585       18.097      854.617
09/17/2013  05:56:00      -38.557      -17.196        0.984       44.544       32.359       18.801     1984.149     1047.119      353.459        0.258        0.169       42.218       21.385        0.257      342.530       18.004      854.620
09/17/2013  05:57:00      -67.775      -75.182       -1.365       68.221       62.792       28.254     4654.124     3942.775      798.260        0.982        0.470      101.222       36.098        0.127      342.621       18.158      854.603
09/17/2013  05:58:00      -21.908      -44.839        4.016       40.371       37.834       25.900     1629.780     1431.383      670.812        0.312        0.187       49.905       15.832        0.101      342.716       18.320      854.604
09/17/2013  05:59:00        2.488      -54.704       -3.749       33.334       27.877       21.396     1111.139      777.151      457.773        0.268        0.117       54.760       10.516        0.037      342.731       18.346      854.576
09/17/2013  06:00:00        5.486      -18.372       11.658       35.827       32.791       19.430     1283.604     1075.276      377.542        0.162        0.137       19.174       22.409        1.366      342.228       17.489      854.508
09/17/2013  06:01:00       56.922      -44.114        1.953       34.543       30.852       26.416     1193.212      951.823      697.780        0.402        0.142       72.015       17.414        0.058      341.910       16.951      854.521
09/17/2013  06:02:00       19.783      -40.524       18.002       23.895       36.815       25.697      570.991     1355.331      660.342        0.247        0.129       45.095       21.579        0.229      342.298       17.610      854.577
09/17/2013  06:03:00      -28.510      -15.339       16.837       46.474       40.941       31.195     2159.861     1676.172      973.136        0.307        0.240       32.374       28.589        0.780      342.551       18.040      854.609
09/17/2013  06:04:00       -4.155      -49.139       -2.321       21.092       44.438       14.174      444.860     1974.728      200.893        0.253        0.131       49.315       13.637        0.076      342.624       18.163      854.561
09/17/2013  06:05:00       23.220       -6.077        3.661       35.789       28.011       33.543     1280.880      784.591     1125.147        0.189        0.160       24.002       16.258        0.459      342.039       17.169      854.460
09/17/2013  06:06:00       23.839       -5.610       -9.481       41.423       23.350       17.617     1715.857      545.224      310.350        0.163        0.129       24.490       20.021        0.668      341.956       17.027      854.456
09/17/2013  06:07:00       -4.164       28.691        3.532       18.311       15.012        7.215      335.284      225.366       52.054        0.073        0.031       28.992        5.549        0.037      342.345       17.689      854.484
09/17/2013  06:08:00        7.916      -42.079       -2.044       37.909       32.247       19.605     1437.114     1039.882      384.365        0.235        0.143       42.817       15.934        0.138      342.198       17.442      854.522
09/17/2013  06:09:00     -104.599      -93.950       -6.803       35.743       32.958       22.086     1277.589     1086.258      487.809        1.133        0.143      140.597       22.977        0.027      342.586       18.099      854.559
09/17/2013  06:10:00     -109.766      -82.829       -5.584       35.331       40.935       28.321     1248.248     1675.690      802.051        1.133        0.186      137.511       17.419        0.016      342.768       18.409      854.563
09/17/2013  06:11:00     -116.719     -111.405       -3.878       87.081       69.421       35.749     7583.099     4819.297     1277.962        1.986        0.684      161.352       38.695        0.058      342.772       18.414      854.548
09/17/2013  06:12:00     -150.020     -107.879        0.879       97.540       51.349       42.119     9514.069     2636.696     1774.031        2.403        0.696      184.780       34.816        0.036      342.794       18.452      854.569
09/17/2013  06:13:00       48.918      -84.367      -12.555       49.696       35.955       31.431     2469.655     1292.770      987.899        0.721        0.238       97.523       27.810        0.081      342.544       18.028      854.588
09/17/2013  06:14:00       13.002      -38.461       -6.744       42.510       44.488       34.809     1807.095     1979.171     1211.674        0.334        0.250       40.600       25.580        0.397      342.289       17.595      854.570
09/17/2013  06:15:00      -27.673      -18.612        1.184       32.404       24.423       13.179     1050.051      596.494      173.688        0.147        0.091       33.350        9.702        0.085      342.432       17.837      854.499
09/17/2013  06:16:00     -147.084      -34.785      -18.133       55.959       35.380       20.979     3131.462     1251.747      440.100        1.400        0.241      151.141       22.524        0.022      342.666       18.234      854.457
09/17/2013  06:17:00      -78.618      -88.544        3.996       73.342       57.487       30.665     5379.051     3304.765      940.331        1.183        0.481      118.410       31.873        0.072      342.546       18.031      854.475
09/17/2013  06:18:00     -192.938     -161.375        4.332      132.814       90.937       61.910    17639.594     8269.470     3832.847        4.651        1.487      251.529       62.621        0.062      342.697       18.286      854.503
09/17/2013  06:19:00     -164.913     -162.302        1.563       92.606       91.146       53.024     8575.795     8307.644     2811.508        3.661        0.985      231.383       63.126        0.074      342.652       18.210      854.494
09/17/2013  06:20:00     -166.272      -82.759       -0.280       75.578       62.656       44.449     5712.058     3925.765     1975.749        2.305        0.581      185.730       40.821        0.048      342.659       18.222      854.389
09/17/2013  06:21:00     -142.684     -158.003       -0.863       71.067       68.371       45.700     5050.576     4674.529     2088.501        2.857        0.591      212.894       45.565        0.046      342.453       17.869      854.356
09/17/2013  06:22:00      -58.949     -213.183       16.015       66.260       92.949       51.036     4390.372     8639.493     2604.680        3.240        0.782      221.183       50.914        0.053      342.394       17.769      854.436
09/17/2013  06:23:00      -61.837     -177.246       -2.200       61.892      105.668       34.003     3830.630    11165.645     1156.195        2.570        0.808      187.723       16.232        0.007      342.290       17.594      854.500
09/17/2013  06:24:00      -25.260      -97.604        2.453       44.857       68.952       25.766     2012.165     4754.371      663.869        0.880        0.372      100.820       24.015        0.057      342.296       17.606      854.504
09/17/2013  06:25:00      -73.253      -72.776      -11.798       71.701       46.336       27.999     5141.099     2147.053      783.922        0.944        0.404      103.259       30.804        0.089      342.120       17.308      854.463
09/17/2013  06:26:00      -69.039     -105.249       10.144       77.096       67.357       45.291     5943.820     4536.965     2051.240        1.424        0.627      125.872       41.850        0.111      342.254       17.533      854.407
09/17/2013  06:27:00     -110.847      -83.827        4.451       56.272       56.810       29.059     3166.530     3227.418      844.449        1.328        0.362      138.975       25.777        0.034      342.309       17.628      854.396
09/17/2013  06:28:00     -163.286      -69.450        0.109      122.913       72.030       44.438    15107.703     5188.382     1974.775        2.687        1.114      177.442       44.508        0.063      342.351       17.696      854.450
09/17/2013  06:29:00     -116.323     -155.212       12.203       84.704       92.308       46.001     7174.734     8520.679     2116.050        2.779        0.891      193.964       38.329        0.039      342.773       18.416      854.513
09/17/2013  06:30:00     -169.037     -135.657       -3.951      134.773       61.676       57.007    18163.884     3803.951     3249.752        3.610        1.261      216.741       63.361        0.085      342.825       18.502      854.526
09/17/2013  06:31:00     -178.372     -179.255      -18.904      136.619      124.355       54.865    18664.617    15464.278     3010.178        5.072        1.857      252.881       41.813        0.027      343.125       19.012      854.488
09/17/2013  06:32:00     -339.864     -185.303        6.061      144.781      117.376       69.902    20961.642    13777.010     4886.317        9.475        1.981      387.098       73.088        0.036      343.227       19.186      854.469
09/17/2013  06:33:00     -310.093     -275.894      -13.683      123.739      129.701       68.315    15311.344    16822.437     4666.998       10.462        1.840      415.060       63.094        0.023      343.199       19.140      854.484
09/17/2013  06:34:00     -376.435     -186.240       -9.581      187.043      113.633       72.302    34985.247    12912.559     5227.614       11.479        2.656      419.987       75.950        0.033      343.252       19.229      854.464
09/17/2013  06:35:00     -288.815     -104.528      -11.704      129.839      112.748       66.456    16858.078    12712.219     4416.425        6.423        1.699      307.148       67.886        0.049      343.209       19.154      854.415
09/17/2013  06:36:00     -301.777     -131.962      -28.927      101.922       94.917       52.315    10388.107     9009.247     2736.888        6.572        1.107      329.368       47.328        0.021      343.179       19.104      854.383
09/17/2013  06:37:00     -277.075     -157.629        3.169      179.526      121.132       74.470    32229.531    14672.978     5545.821        7.703        2.622      318.775       86.944        0.074      343.125       19.012      854.388
09/17/2013  06:38:00     -221.074     -178.122        7.481      143.883      164.965       78.457    20702.295    27213.467     6155.541        6.735        2.704      283.904       88.901        0.098      343.155       19.064      854.432
09/17/2013  06:39:00     -291.278     -224.199        3.607      119.942      101.144       71.469    14386.134    10230.009     5107.794        8.242        1.486      367.570       76.084        0.043      343.093       18.958      854.504
09/17/2013  06:40:00     -224.940     -165.397       10.560      151.101      104.141       69.438    22831.434    10845.415     4821.699        5.827        1.925      279.203       73.973        0.070      343.002       18.805      854.552
09/17/2013  06:41:00     -146.350     -173.991        0.777      118.300       79.045       40.918    13994.979     6248.067     1674.303        3.680        1.096      227.357       38.794        0.029      343.023       18.838      854.591
09/17/2013  06:42:00      -98.158     -153.952       -1.455       98.028       91.938       50.301     9609.539     8452.533     2530.200        2.696        1.030      182.582       45.500        0.062      342.945       18.709      854.565
09/17/2013  06:43:00      -45.548     -122.326       21.596       71.116       77.800       48.150     5057.439     6052.789     2318.397        1.546        0.671      130.531       55.701        0.182      342.846       18.541      854.533
09/17/2013  06:44:00       36.995      -59.085        9.415       38.853       61.176       40.399     1509.527     3742.537     1632.056        0.591        0.344       69.711       33.516        0.231      342.281       17.581      854.499
09/17/2013  06:45:00       67.392     -126.538      -19.932       41.227       47.417       35.024     1699.639     2248.359     1226.708        1.306        0.259      143.365        9.294        0.004      342.201       17.444      854.475
09/17/2013  06:46:00        4.104      -52.357       11.550       51.020       39.792       31.590     2603.072     1583.408      997.953        0.404        0.259       52.517       28.218        0.289      342.151       17.360      854.428
09/17/2013  06:47:00      -47.877     -149.853       10.297       51.479       71.154       32.656     2650.135     5062.896     1066.434        1.682        0.439      157.315       32.779        0.043      342.267       17.556      854.398
09/17/2013  06:48:00      -39.705     -232.603       -3.406       35.543       42.016       25.781     1263.270     1765.334      664.670        2.969        0.185      235.968       16.406        0.005      342.404       17.784      854.407
09/17/2013  06:49:00     -114.597     -119.364      -10.248       70.997       57.567       37.515     5040.519     3313.988     1407.352        1.862        0.488      165.470       25.505        0.024      342.347       17.691      854.439
09/17/2013  06:50:00      -80.334     -137.902        4.681       72.132       53.560       38.429     5203.049     2868.695     1476.818        1.752        0.477      159.595       32.916        0.043      342.412       17.803      854.456
09/17/2013  06:51:00     -100.659     -149.873        1.156       64.713       42.755       43.606     4187.750     1827.961     1901.462        2.025        0.396      180.539       30.458        0.028      342.405       17.789      854.462
09/17/2013  06:52:00      -62.661     -132.858       -0.626       47.657       46.228       24.602     2271.236     2137.010      605.282        1.329        0.251      146.893       24.556        0.028      342.362       17.719      854.433
09/17/2013  06:53:00      -80.315      -76.267        3.621       36.495       35.663       25.610     1331.911     1271.827      655.874        0.777        0.163      110.757       18.974        0.029      342.333       17.669      854.424
09/17/2013  06:54:00      -90.815     -145.895       -0.295       51.548       70.311       31.016     2657.176     4943.573      962.015        1.905        0.428      171.851       25.009        0.021      342.389       17.763      854.442
09/17/2013  06:55:00      -61.819     -158.254        5.281       57.097       47.288       36.480     3260.059     2236.160     1330.768        1.786        0.341      169.899       31.708        0.035      342.391       17.765      854.426
09/17/2013  06:56:00      -49.949     -110.087        6.113       42.279       38.359       26.601     1787.485     1471.428      707.591        0.931        0.198      120.888       15.685        0.017      342.493       17.943      854.390
09/17/2013  06:57:00      -98.076      -78.433       -2.799       58.166       53.263       29.361     3383.244     2836.900      862.073        1.143        0.354      125.582       22.771        0.033      342.375       17.739      854.393
09/17/2013  06:58:00     -117.059     -149.020       -1.701       69.362       70.338       39.155     4811.150     4947.402     1533.152        2.360        0.565      189.499       34.030        0.032      342.334       17.668      854.428
09/17/2013  06:59:00     -169.394     -118.623        4.862       85.346       78.399       49.380     7283.910     6146.472     2438.350        2.933        0.793      206.799       51.019        0.061      342.332       17.665      854.463
09/17/2013  07:00:00     -107.311     -134.464       11.324       83.796       81.892       45.788     7021.715     6706.354     2096.559        2.277        0.791      172.036       47.016        0.075      342.309       17.625      854.457
09/17/2013  07:01:00     -147.253     -128.683        3.768       80.444       73.828       43.194     6471.226     5450.545     1865.716        2.602        0.689      195.557       42.701        0.048      342.611       18.139      854.429
09/17/2013  07:02:00     -152.669      -59.083       -3.339       86.341       53.234       30.078     7454.716     2833.808      904.693        1.900        0.560      163.703       25.921        0.025      342.671       18.242      854.379
09/17/2013  07:03:00     -181.727     -186.909       -9.314       86.442       64.651       43.047     7472.294     4179.745     1853.029        4.077        0.675      260.691       39.855        0.023      342.879       18.594      854.308
09/17/2013  07:04:00     -119.508     -150.144       -6.258       72.416       72.259       38.888     5244.065     5221.368     1512.246        2.442        0.599      191.899       40.414        0.044      342.918       18.662      854.330
09/17/2013  07:05:00      -79.284     -162.309       -1.627       83.418       79.715       38.252     6958.593     6354.518     1463.235        2.370        0.739      180.638       40.668        0.051      342.868       18.577      854.394
09/17/2013  07:06:00     -104.558     -150.448        3.525       78.580       73.972       49.673     6174.769     5471.888     2467.421        2.384        0.706      183.213       39.444        0.046      342.886       18.607      854.432
09/17/2013  07:07:00     -127.464      -92.361       14.084      110.464       65.991       35.383    12202.280     4354.801     1251.983        2.139        0.890      157.409       42.786        0.074      342.827       18.507      854.444
09/17/2013  07:08:00      -33.556     -104.880        7.888       51.617       61.022       30.403     2664.274     3723.690      924.337        0.975        0.366      110.117       28.703        0.068      342.808       18.476      854.447
09/17/2013  07:09:00      -50.283     -164.676       -1.297       65.063       73.026       38.559     4233.185     5332.766     1486.799        2.035        0.553      172.182       26.519        0.024      342.851       18.549      854.447
09/17/2013  07:10:00     -146.373     -121.127        9.603       90.898       67.330       45.347     8262.412     4533.337     2056.337        2.552        0.743      189.992       52.550        0.077      342.711       18.312      854.452
09/17/2013  07:11:00     -228.627     -137.767        3.993      141.361      103.131       50.314    19982.793    10635.987     2531.489        5.220        1.658      266.927       51.835        0.038      342.697       18.285      854.433
09/17/2013  07:12:00     -227.461     -184.200        9.057      124.027      134.468       66.674    15382.635    18081.546     4445.399        6.182        1.895      292.691       70.529        0.058      343.107       18.984      854.426
09/17/2013  07:13:00     -201.996     -205.529       -7.396      130.911       93.127       64.591    17137.689     8672.626     4172.030        5.653        1.499      288.174       61.313        0.045      343.268       19.256      854.453
09/17/2013  07:14:00      -95.351     -169.803        3.524       74.311      104.741       56.503     5522.105    10970.684     3192.643        2.881        0.984      194.743       41.699        0.046      343.237       19.204      854.469
09/17/2013  07:15:00     -173.466     -234.930       -3.435      118.196      129.320       58.997    13970.352    16723.672     3480.684        5.973        1.709      292.032       60.667        0.043      343.143       19.042      854.472
09/17/2013  07:16:00     -291.889     -182.113       -3.751      115.069       98.450       51.396    13240.966     9692.346     2641.534        7.197        1.279      344.041       57.203        0.028      343.091       18.955      854.494
09/17/2013  07:17:00      -69.350      -91.010       15.181       66.340       75.669       36.225     4401.051     5725.794     1312.265        1.238        0.572      114.421       32.809        0.082      342.978       18.765      854.508
09/17/2013  07:18:00      -79.110      -80.338       15.806       79.385       74.106       40.710     6301.990     5491.626     1657.317        1.320        0.673      112.750       32.122        0.081      342.913       18.655      854.480
09/17/2013  07:19:00     -108.264      -84.396        5.883       55.411       53.638       34.415     3070.361     2877.006     1184.368        1.300        0.357      137.273       26.799        0.038      342.790       18.445      854.457
09/17/2013  07:20:00     -138.781      -73.987       -4.801       56.845       53.858       28.531     3231.306     2900.656      814.001        1.585        0.347      157.271       24.947        0.025      342.728       18.340      854.463
09/17/2013  07:21:00      -89.763      -49.468        4.443       85.947       78.905       38.422     7386.810     6225.986     1476.238        1.280        0.754      102.491       42.462        0.172      342.748       18.372      854.479
09/17/2013  07:22:00     -129.484     -109.728        3.875       90.770       71.416       43.470     8239.256     5100.316     1889.636        2.202        0.761      169.725       45.890        0.073      342.977       18.762      854.472
09/17/2013  07:23:00     -110.379     -106.463        1.101       52.300       54.604       30.455     2735.315     2981.561      927.506        1.508        0.332      153.355       26.945        0.031      342.841       18.532      854.469
09/17/2013  07:24:00     -156.828      -35.049       15.342       98.086       87.721       40.405     9620.846     7694.987     1632.585        2.250        0.947      160.696       46.180        0.083      343.039       18.868      854.481
09/17/2013  07:25:00     -132.549      -64.130        5.222       63.616       53.763       31.132     4047.026     2890.506      969.217        1.481        0.395      147.248       30.214        0.042      343.115       18.999      854.501
09/17/2013  07:26:00      -56.323     -165.335        9.729       64.975       91.412       35.538     4221.814     8356.092     1262.947        2.222        0.692      174.666       32.891        0.035      343.012       18.822      854.507
09/17/2013  07:27:00     -100.196     -133.366        3.313       97.251      106.648       42.647     9457.689    11373.822     1818.792        2.524        1.133      166.811       42.671        0.065      342.990       18.785      854.504
09/17/2013  07:28:00     -107.867      -80.792        2.533       76.302       68.627       26.047     5821.923     4709.718      678.436        1.469        0.561      134.769       28.638        0.045      342.963       18.739      854.484
09/17/2013  07:29:00      -85.742      -81.037        2.236       52.486       59.240       30.877     2754.802     3509.407      953.364        1.057        0.361      117.977       30.799        0.068      342.923       18.673      854.459
09/17/2013  07:30:00     -124.997     -102.578      -10.180       55.630       54.720       33.647     3094.724     2994.240     1132.130        1.673        0.361      161.699       28.212        0.030      343.086       18.949      854.454
09/17/2013  07:31:00     -128.602      -70.434        2.298       84.767       67.594       41.903     7185.456     4568.998     1755.902        1.750        0.676      146.627       41.388        0.080      343.269       19.259      854.442
09/17/2013  07:32:00     -153.928      -73.717        1.991       89.915       70.524       38.980     8084.645     4973.673     1519.427        2.185        0.729      170.670       40.384        0.056      343.256       19.238      854.458
09/17/2013  07:33:00      -82.355      -66.727        0.835       69.428       67.499       35.525     4820.200     4556.169     1262.044        1.093        0.532      105.994       36.747        0.120      343.275       19.271      854.465
09/17/2013  07:34:00     -190.824     -148.486       -1.472       95.256      106.770       49.594     9073.650    11399.828     2459.525        4.069        1.147      241.789       34.268        0.020      343.333       19.369      854.475
09/17/2013  07:35:00     -202.862     -107.740        6.606      124.480      115.601       54.715    15495.235    13363.687     2993.713        4.232        1.593      229.698       58.552        0.065      343.419       19.515      854.502
09/17/2013  07:36:00     -228.358     -128.703       -6.034       91.463      112.526       48.536     8365.522    12662.204     2355.702        4.606        1.169      262.129       49.625        0.036      343.421       19.516      854.502
09/17/2013  07:37:00     -214.314     -171.762        8.784      151.107      117.771       71.863    22833.236    13869.988     5164.244        5.868        2.093      274.650       75.780        0.076      343.414       19.505      854.568
09/17/2013  07:38:00     -231.653     -102.871       -4.453      174.207      108.142       67.358    30348.176    11694.743     4537.037        5.541        2.329      253.467       83.016        0.107      343.484       19.624      854.604
09/17/2013  07:39:00     -182.357     -163.420      -14.291      128.463      104.588       55.745    16502.626    10938.752     3107.509        4.535        1.527      244.868       64.622        0.070      343.516       19.679      854.602
09/17/2013  07:40:00     -222.467     -122.495       -6.135      113.351       90.922       51.324    12848.396     8266.842     2634.142        4.414        1.187      253.961       46.611        0.034      343.505       19.659      854.548
09/17/2013  07:41:00     -128.900      -85.779       -0.098       90.362       79.751       50.442     8165.313     6360.234     2544.368        2.052        0.853      154.832       45.621        0.087      343.481       19.621      854.518
09/17/2013  07:42:00      -99.599      -43.344       14.559       98.566       63.784       42.941     9715.201     4068.373     1843.908        1.382        0.781      108.622       52.921        0.237      343.505       19.662      854.546
09/17/2013  07:43:00     -127.133     -107.951        4.501       88.723       58.621       39.023     7871.778     3436.436     1522.780        2.033        0.642      166.782       40.348        0.059      343.496       19.645      854.572
09/17/2013  07:44:00     -101.355     -128.825        1.407       95.734       70.255       36.233     9164.985     4935.777     1312.827        2.114        0.771      163.916       19.053        0.014      343.474       19.610      854.555
09/17/2013  07:45:00      -72.478      -84.386      -13.027       63.216       49.708       30.472     3996.292     2470.840      928.516        0.997        0.370      111.239       26.482        0.057      343.483       19.626      854.513
09/17/2013  07:46:00      -41.523      -92.133       10.517       49.232       33.722       32.809     2423.747     1137.196     1076.460        0.748        0.232      101.058       18.198        0.032      343.532       19.709      854.458
09/17/2013  07:47:00      -33.449       -1.977        7.652       40.800       34.039       21.455     1664.671     1158.629      460.304        0.223        0.164       33.508       22.928        0.468      343.515       19.681      854.479
09/17/2013  07:48:00      -38.593      -96.835       13.343       38.856       40.761       23.782     1509.795     1661.482      565.560        0.739        0.187      104.242        8.746        0.007      343.528       19.701      854.576
09/17/2013  07:49:00      -27.103      -35.091       10.593       32.608       57.964       28.417     1063.303     3359.812      807.526        0.365        0.262       44.339       26.233        0.350      343.542       19.726      854.620
09/17/2013  07:50:00       -3.587       24.384       32.011       32.300       32.743       38.743     1043.292     1072.120     1501.040        0.262        0.181       24.646       23.541        0.912      343.337       19.376      854.587
09/17/2013  07:51:00       53.986        7.510       19.164       40.828       33.669       31.691     1666.953     1133.594     1004.333        0.357        0.190       54.506       20.056        0.135      343.063       18.910      854.533
09/17/2013  07:52:00       13.242       64.415      -18.673       51.634       56.409       20.093     2666.114     3182.019      403.731        0.546        0.313       65.762       17.027        0.067      342.737       18.357      854.513
09/17/2013  07:53:00       18.692       45.795       18.860       38.867       43.104       26.592     1510.658     1857.926      707.110        0.344        0.204       49.463       11.078        0.050      343.033       18.860      854.514
09/17/2013  07:54:00      -70.104       16.410       13.002      129.936       52.618       34.415    16883.393     2768.696     1184.406        1.309        1.042       71.999       37.090        0.265      343.211       19.163      854.520
09/17/2013  07:55:00     -160.160       35.079       -4.874       62.506       40.937       24.333     3907.017     1675.806      592.090        1.654        0.309      163.957       20.717        0.016      343.499       19.652      854.535
09/17/2013  07:56:00      -65.093       28.309       17.031       58.640       37.273       33.994     3438.640     1389.274     1155.618        0.565        0.299       70.982       39.420        0.308      343.539       19.722      854.509
09/17/2013  07:57:00       22.557       56.285        2.072       51.865       39.525       38.583     2689.944     1562.191     1488.675        0.471        0.287       60.636       36.929        0.371      343.021       18.840      854.439
09/17/2013  07:58:00     -112.318       30.196       -5.880       37.194       32.639       26.480     1383.402     1065.310      701.207        0.836        0.157      116.306       14.211        0.015      343.551       19.742      854.410
09/17/2013  07:59:00      -49.196        5.662       12.344       48.117       33.114       24.557     2315.267     1096.553      603.038        0.331        0.201       49.521       24.271        0.240      343.697       19.991      854.417
09/17/2013  08:00:00      -54.632      -11.882       20.311       48.054       51.148       26.903     2309.167     2616.124      723.781        0.459        0.282       55.909       28.457        0.259      343.541       19.725      854.431
09/17/2013  08:01:00       40.902      -35.739        1.938       33.866       40.657       26.405     1146.895     1652.972      697.241        0.322        0.175       54.316       19.444        0.128      342.617       18.152      854.444
09/17/2013  08:02:00      -88.150      -20.545       11.464       60.673       56.679       31.056     3681.228     3212.464      964.496        0.809        0.393       90.512       28.214        0.097      343.532       19.711      854.445
09/17/2013  08:03:00       28.868      -53.438       14.489       48.622       34.192       34.179     2364.075     1169.081     1168.233        0.430        0.235       60.737       17.611        0.084      342.962       18.739      854.443
09/17/2013  08:04:00        5.482      -25.990        9.631       25.452       28.844       25.969      647.794      831.970      674.389        0.148        0.108       26.562       18.763        0.499      343.395       19.478      854.445
09/17/2013  08:05:00      -34.228      -58.275        0.902      104.247       55.190       20.810    10867.455     3045.891      433.047        0.945        0.717       67.584       28.347        0.176      343.359       19.414      854.445
09/17/2013  08:06:00     -156.957      -85.170        4.863       91.643       54.323       38.639     8398.402     2950.968     1492.999        2.238        0.642      178.576       41.107        0.053      343.662       19.930      854.440
09/17/2013  08:07:00      -35.597       39.663       10.508       40.942      105.363       29.857     1676.269    11101.282      891.421        0.831        0.683       53.295       10.869        0.042      343.631       19.878      854.458
09/17/2013  08:08:00      -65.723       60.901        5.109       52.271       39.997       32.864     2732.239     1599.779     1080.031        0.673        0.271       89.602       29.704        0.110      343.638       19.891      854.466
09/17/2013  08:09:00      -10.248      122.395      -23.316       34.236       36.986       22.687     1172.088     1367.988      514.701        0.934        0.153      122.823       24.860        0.041      342.970       18.753      854.448
09/17/2013  08:10:00       64.205       39.753        2.551       46.304       30.026       24.192     2144.021      901.568      585.244        0.467        0.182       75.515       19.471        0.066      343.249       19.228      854.402
09/17/2013  08:11:00       81.134       55.771       25.382       63.294       33.332       38.974     4006.166     1111.033     1518.943        0.849        0.332       98.454       42.550        0.187      343.049       18.888      854.367
09/17/2013  08:12:00      110.302       58.799       12.301       43.839       38.426       29.769     1921.843     1476.526      886.207        1.003        0.214      124.995       18.211        0.021      343.022       18.841      854.360
09/17/2013  08:13:00       42.481       51.758       19.532       54.603       31.535       27.210     2981.517      994.427      740.401        0.479        0.236       66.959       26.941        0.162      343.078       18.937      854.378
09/17/2013  08:14:00       10.804       33.143       11.233       37.525       38.078       24.074     1408.153     1449.965      579.570        0.239        0.172       34.860       26.305        0.569      343.138       19.038      854.425
09/17/2013  08:15:00       54.120       75.007       -4.440       35.217       22.984       27.749     1240.232      528.283      769.993        0.556        0.127       92.493       15.173        0.027      343.065       18.914      854.455
09/17/2013  08:16:00       80.755       90.704       -1.122       43.005       33.422       36.755     1849.454     1117.013     1350.911        0.953        0.216      121.444       25.768        0.045      343.010       18.821      854.421
09/17/2013  08:17:00      101.310       49.757       16.151       45.846       26.196       30.929     2101.869      686.253      956.607        0.837        0.187      112.869       13.304        0.014      343.018       18.834      854.357
09/17/2013  08:18:00       89.432       51.336       32.174       65.265       37.576       40.822     4259.530     1411.993     1666.443        0.950        0.367      103.119       37.621        0.133      343.058       18.902      854.333
09/17/2013  08:19:00       10.919       34.619       50.006       26.029       42.906       25.406      677.518     1840.950      645.479        0.349        0.158       36.300       20.657        0.324      343.203       19.149      854.348
09/17/2013  08:20:00       37.919      -28.472       22.160       35.276       44.699       43.128     1244.428     1997.962     1860.047        0.392        0.255       47.419       38.119        0.646      342.944       18.707      854.353
09/17/2013  08:21:00        6.860      -80.512       -9.086       38.011       41.855       32.351     1444.867     1751.853     1046.564        0.543        0.212       80.804       18.231        0.051      343.040       18.872      854.373
09/17/2013  08:22:00       12.785       22.573       42.175       46.460       52.607       39.048     2158.566     2767.506     1524.737        0.445        0.323       25.942       35.795        1.904      343.144       19.050      854.377
09/17/2013  08:23:00       -8.858      -46.753        8.847       33.151       33.146       26.537     1098.989     1098.630      704.191        0.262        0.145       47.585        6.808        0.020      343.129       19.024      854.380
09/17/2013  08:24:00       27.502      -46.721       -9.233       30.379       26.572       24.795      922.877      706.078      614.779        0.263        0.112       54.214       16.511        0.093      343.187       19.122      854.405
09/17/2013  08:25:00      -82.192      -43.467        5.968       37.729       46.964       23.110     1423.511     2205.603      534.070        0.642        0.208       92.978       17.194        0.034      343.609       19.840      854.413
09/17/2013  08:26:00     -102.621      -93.237        1.795       65.291       62.026       35.751     4262.945     3847.272     1278.109        1.431        0.469      138.652       30.822        0.049      343.815       20.191      854.386
09/17/2013  08:27:00      -56.460      -27.598        7.008       36.759       26.323       24.475     1351.238      692.909      599.015        0.332        0.132       62.844       18.092        0.083      343.681       19.963      854.339
09/17/2013  08:28:00      -58.666       57.775       -3.331       52.228       49.154       27.363     2727.793     2416.088      748.756        0.634        0.295       82.339       23.510        0.082      343.664       19.935      854.283
09/17/2013  08:29:00      -34.554       76.886        1.837       19.032       36.427       26.428      362.208     1326.962      698.419        0.475        0.119       84.293       24.223        0.083      343.656       19.922      854.268
09/17/2013  08:30:00     -103.117      -35.675      -11.086       38.636       47.559       20.397     1492.777     2261.822      416.025        0.810        0.209      109.114       20.080        0.034      343.646       19.906      854.308
09/17/2013  08:31:00     -110.973      -93.056        0.125       65.545       46.384       30.600     4296.156     2151.486      936.351        1.418        0.369      144.826       34.609        0.057      343.774       20.122      854.365
09/17/2013  08:32:00     -107.788      -86.222       -8.221       50.586       74.458       33.933     2558.955     5543.975     1151.456        1.419        0.463      138.031       29.229        0.045      343.859       20.266      854.382
09/17/2013  08:33:00     -150.936     -136.467       -9.039       55.032       73.411       34.729     3028.481     5389.235     1206.107        2.555        0.481      203.482       37.031        0.033      343.858       20.265      854.334
09/17/2013  08:34:00      -63.394        0.539       18.266       49.075       35.670       25.688     2408.382     1272.379      659.894        0.435        0.217       63.397       26.877        0.180      343.871       20.288      854.280
09/17/2013  08:35:00      -34.732       -7.689       10.379       78.225       32.769       23.348     6119.211     1073.780      545.151        0.455        0.387       35.573       33.773        0.901      343.724       20.036      854.231
09/17/2013  08:36:00      -72.439      -37.311       17.811       40.033       36.231       35.098     1602.623     1312.718     1231.836        0.555        0.207       81.483       31.161        0.146      343.863       20.275      854.244
09/17/2013  08:37:00     -142.925      -77.709        6.817       55.451       43.524       29.061     3074.764     1894.377      844.522        1.616        0.291      162.684       21.139        0.017      343.882       20.306      854.304
09/17/2013  08:38:00     -174.126     -112.438        5.571      113.043       61.152       41.377    12778.691     3739.577     1712.080        3.061        0.912      207.273       44.970        0.047      343.897       20.331      854.376
09/17/2013  08:39:00     -192.188     -136.086       -3.214      110.867       79.372       46.976    12291.397     6299.968     2206.732        3.813        1.040      235.491       47.985        0.042      343.899       20.334      854.419
09/17/2013  08:40:00     -142.408      -62.740        5.126      120.256       86.481       45.058    14461.422     7478.904     2030.226        2.410        1.199      155.616       40.857        0.069      343.900       20.336      854.433
09/17/2013  08:41:00     -146.410     -125.932       -4.718       60.023       75.032       32.598     3602.798     5629.829     1062.642        2.380        0.515      193.119       21.736        0.013      343.918       20.367      854.428
09/17/2013  08:42:00      -29.038     -120.188        2.143       50.385       51.039       36.670     2538.643     2604.934     1344.675        1.089        0.324      123.646       33.754        0.075      343.921       20.373      854.404
09/17/2013  08:43:00      -43.577     -133.929        6.471       47.058       48.185       29.872     2214.433     2321.766      892.338        1.265        0.271      140.840       32.015        0.052      343.918       20.369      854.379
09/17/2013  08:44:00      -66.248      -64.837        7.853       47.418       44.637       29.408     2248.430     1992.483      864.806        0.688        0.255       92.696       26.551        0.082      343.905       20.347      854.385
09/17/2013  08:45:00      -37.898      -85.378       -1.785       40.060       38.863       27.576     1604.779     1510.309      760.449        0.630        0.194       93.411       20.024        0.046      343.916       20.363      854.403
09/17/2013  08:46:00      -45.542      -90.969        5.152       51.317       61.649       24.572     2633.456     3800.616      603.806        0.871        0.352      101.732       23.630        0.054      343.900       20.337      854.441
09/17/2013  08:47:00      -16.299      -61.146       16.402       32.104       42.323       23.974     1030.638     1791.223      574.754        0.383        0.170       63.281       23.449        0.137      343.974       20.466      854.437
09/17/2013  08:48:00      -46.276      -57.046       -2.002       46.108       41.378       27.025     2125.987     1712.159      730.370        0.498        0.228       73.455       23.755        0.105      343.905       20.345      854.435
09/17/2013  08:49:00      -81.740      -28.588       -6.156       61.399       30.411       19.235     3769.871      924.810      369.985        0.630        0.253       86.595       24.458        0.080      343.923       20.375      854.418
09/17/2013  08:50:00     -114.152      -58.435        4.846       77.812       49.862       36.217     6054.769     2486.193     1311.685        1.316        0.493      128.240       36.558        0.081      343.966       20.450      854.393
09/17/2013  08:51:00      -76.163        6.472       15.027       65.435       41.904       34.086     4281.761     1755.955     1161.842        0.663        0.360       76.438       40.982        0.287      343.996       20.502      854.387
09/17/2013  08:52:00      -33.670      -88.047       10.393       39.052       78.140       23.242     1525.043     6105.905      540.200        0.858        0.409       94.266       29.306        0.097      343.884       20.310      854.406
09/17/2013  08:53:00      -84.540     -125.172      -18.248       36.862       33.728       20.997     1358.820     1137.564      440.891        1.304        0.147      151.047       10.829        0.005      343.856       20.262      854.412
09/17/2013  08:54:00     -106.570      -75.434       -2.511       54.780       53.145       26.906     3000.852     2824.363      723.935        1.180        0.327      130.566       24.573        0.035      343.956       20.431      854.380
09/17/2013  08:55:00      -67.132      -48.395        2.293       45.918       24.815       26.504     2108.465      615.760      702.441        0.514        0.171       82.758       17.490        0.045      343.978       20.472      854.369
09/17/2013  08:56:00      -22.748        4.068       25.329       25.891       35.313       23.497      670.320     1246.987      552.124        0.182        0.123       23.109       24.729        1.145      344.391       21.177      854.356
09/17/2013  08:57:00       -0.602       30.534       51.226       26.820       27.593       18.234      719.288      761.382      332.477        0.268        0.091       30.540       15.613        0.261      344.121       20.717      854.340
09/17/2013  08:58:00      -15.136      -11.689       17.246       25.046       57.967       22.055      627.277     3360.196      486.442        0.257        0.224       19.124       26.608        1.936      344.011       20.526      854.334
09/17/2013  08:59:00      -74.649       24.453        7.574       53.770       46.544       26.804     2891.263     2166.345      718.474        0.600        0.289       78.552       26.494        0.114      343.892       20.324      854.327
09/17/2013  09:00:00       29.349      -25.308       11.872       45.296       34.569       32.630     2051.688     1195.049     1064.702        0.298        0.216       38.754       14.467        0.139      344.149       20.764      854.318
09/17/2013  09:01:00        0.439      -89.075        0.172       29.773       54.245       23.303      886.440     2942.476      543.031        0.615        0.219       89.076       23.977        0.072      344.059       20.607      854.330
09/17/2013  09:02:00      -28.806      -99.483       13.388       52.742       43.901       27.111     2781.679     1927.332      734.994        0.817        0.272      103.569       19.955        0.037      344.097       20.676      854.330
09/17/2013  09:03:00      -24.742      -52.170      -14.491       59.680       34.987       27.974     3561.675     1224.082      782.528        0.455        0.278       57.740       28.511        0.244      344.172       20.803      854.359
09/17/2013  09:04:00     -149.078      -79.073        0.627       47.285       51.786       25.294     2235.851     2681.792      639.786        1.702        0.278      168.751       23.043        0.019      343.994       20.496      854.370
09/17/2013  09:05:00      -86.462      -55.760        2.420       60.746       24.670       24.405     3690.048      608.633      595.586        0.774        0.245      102.883       29.306        0.081      344.027       20.553      854.365
09/17/2013  09:06:00     -150.380      -27.410      -10.053       72.574       43.321       23.597     5267.010     1876.699      556.805        1.558        0.385      152.857       22.041        0.021      344.048       20.590      854.357
09/17/2013  09:07:00      -73.763       46.746       -8.811       27.641       41.278       22.953      764.045     1703.833      526.827        0.535        0.150       87.328       16.250        0.035      344.072       20.630      854.335
09/17/2013  09:08:00      -37.904      -20.242       11.010       54.283       53.350       35.827     2946.634     2846.243     1283.574        0.452        0.354       42.970       37.761        0.772      344.521       21.400      854.323
09/17/2013  09:09:00     -106.142      -27.660       -7.482       51.717       76.662       34.859     2674.649     5877.052     1215.164        1.093        0.488      109.687       25.948        0.056      344.181       20.819      854.304
09/17/2013  09:10:00      -80.370     -188.990        8.300       54.442       69.430       34.189     2963.933     4820.583     1168.865        2.560        0.448      205.369       30.731        0.022      344.175       20.805      854.312
09/17/2013  09:11:00     -136.477      -86.390       10.742       90.725       59.559       41.064     8231.051     3547.220     1686.219        1.983        0.673      161.522       45.543        0.080      344.293       21.006      854.334
09/17/2013  09:12:00      -88.471      -79.378       10.843       85.134       42.441       26.266     7247.805     1801.260      689.921        1.199        0.487      118.862       29.249        0.061      344.295       21.011      854.355
09/17/2013  09:13:00      -26.039     -103.479      -14.388       87.601       62.364       44.837     7673.872     3889.287     2010.383        1.258        0.679      106.705       45.135        0.179      344.382       21.161      854.365
09/17/2013  09:14:00       13.364     -113.877      -22.733       64.341       89.356       59.578     4139.817     7984.551     3549.497        1.467        0.784      114.658       44.510        0.151      344.370       21.140      854.361
09/17/2013  09:15:00      -87.450      -50.083       -1.893       48.717       70.916       35.266     2373.370     5029.149     1243.682        0.940        0.432      100.776       26.743        0.070      344.443       21.266      854.375
09/17/2013  09:16:00     -174.955      -56.410       -6.226      107.366       88.082       38.828    11527.462     7758.490     1507.624        2.731        1.040      183.825       37.398        0.041      344.463       21.298      854.356
09/17/2013  09:17:00     -185.107      -64.707       -2.282      147.936       99.229       55.678    21885.183     9846.300     3100.011        3.664        1.742      196.091       69.982        0.127      344.435       21.250      854.353
09/17/2013  09:18:00     -225.693     -195.013       -7.815      120.074       95.401       46.785    14417.683     9101.260     2188.791        5.736        1.285      298.274       40.594        0.019      344.455       21.283      854.355
09/17/2013  09:19:00     -153.898     -124.951        5.325      188.879      109.891       64.576    35675.155    12076.126     4170.046        4.561        2.596      198.236       53.581        0.073      344.567       21.475      854.359
09/17/2013  09:20:00     -312.315     -149.392       -4.140      163.500      137.249       71.830    26732.317    18837.288     5159.551        8.529        2.536      346.206       75.603        0.048      344.433       21.244      854.352
09/17/2013  09:21:00     -282.832     -225.262       -9.847      148.276      132.462       69.507    21985.803    17546.075     4831.166        8.759        2.218      361.575       76.586        0.045      344.344       21.093      854.342
09/17/2013  09:22:00     -258.921     -145.264        7.090      128.494       99.082       49.746    16510.802     9817.298     2474.664        5.849        1.440      296.886       57.851        0.038      344.299       21.018      854.363
09/17/2013  09:23:00     -146.208      -54.527       -1.824       73.911       55.991       36.176     5462.900     3135.036     1308.719        1.713        0.495      156.044       38.496        0.061      344.411       21.209      854.362
09/17/2013  09:24:00     -109.830        0.081       -4.905       79.228       71.484       39.373     6277.126     5109.898     1550.247        1.251        0.647      109.830       23.280        0.045      344.418       21.222      854.355
09/17/2013  09:25:00     -100.545        6.464      -11.158       61.634       49.850       28.045     3798.752     2485.055      786.496        0.867        0.354      100.752       32.198        0.102      344.421       21.227      854.326
09/17/2013  09:26:00      -59.343      -59.284        0.358       41.913       32.661       25.054     1756.692     1066.753      627.710        0.524        0.173       83.882       16.507        0.039      344.390       21.175      854.296
09/17/2013  09:27:00      -36.702      -12.150        7.092       41.497       21.850       22.882     1721.967      477.420      523.567        0.213        0.136       38.661       25.302        0.428      344.590       21.517      854.281
09/17/2013  09:28:00      -33.830      -45.023       -5.715       57.462       42.557       27.000     3301.908     1811.099      728.974        0.452        0.292       56.317       15.544        0.076      344.559       21.463      854.279
09/17/2013  09:29:00     -176.900     -109.215        9.088      113.888      102.382       44.389    12970.466    10481.997     1970.357        3.436        1.271      207.898       47.783        0.053      344.553       21.452      854.278
09/17/2013  09:30:00     -138.334     -121.942        9.194      121.145      117.698       61.932    14676.130    13852.819     3835.583        3.322        1.618      184.408       61.083        0.110      344.597       21.526      854.266
09/17/2013  09:31:00     -197.440      -55.380        3.649      101.078       91.605       48.833    10216.734     8391.398     2384.678        3.152        1.050      205.060       41.395        0.041      344.543       21.434      854.301
09/17/2013  09:32:00     -337.018     -129.866       -8.957      200.079      129.518       54.404    40031.428    16774.882     2959.846        9.513        2.988      361.173       78.479        0.047      344.565       21.470      854.309
09/17/2013  09:33:00     -333.296      -57.045      -16.886      137.026       93.168       63.966    18776.092     8680.302     4091.621        7.308        1.577      338.142       56.908        0.028      344.464       21.299      854.320
09/17/2013  09:34:00     -133.105      -12.372       -5.989       60.968       38.420       34.177     3717.066     1476.128     1168.061        1.213        0.318      133.679       20.425        0.023      344.561       21.467      854.287
09/17/2013  09:35:00      -68.599      -61.453       23.594       76.338       58.385       35.418     5827.442     3408.792     1254.445        0.976        0.525       92.100       31.487        0.117      344.685       21.678      854.259
09/17/2013  09:36:00     -181.353     -125.443        0.067      105.244       79.258       50.774    11076.213     6281.872     2578.014        3.428        0.997      220.511       49.161        0.050      344.555       21.454      854.257
09/17/2013  09:37:00     -258.157     -163.717      -13.359      170.079      102.156       74.132    28926.847    10435.901     5495.518        6.923        2.243      305.693       88.620        0.084      344.580       21.496      854.253
09/17/2013  09:38:00     -131.770     -127.813       -0.267       99.646       62.105       49.232     9929.246     3857.007     2423.833        2.495        0.811      183.574       52.186        0.081      344.673       21.657      854.244
09/17/2013  09:39:00      -75.634     -113.022        2.059       86.686       47.286       36.779     7514.449     2235.993     1352.727        1.480        0.555      135.995       32.513        0.057      344.734       21.761      854.226
09/17/2013  09:40:00     -302.899     -150.950        5.932      240.055      135.371       82.860    57626.521    18325.380     6865.722        9.868        4.141      338.428       94.552        0.078      344.693       21.690      854.196
09/17/2013  09:41:00     -341.344     -181.972        2.096      185.259      146.175       79.138    34320.740    21367.072     6262.809       10.578        3.098      386.820       72.218        0.035      344.576       21.489      854.173
09/17/2013  09:42:00     -382.197     -248.137       -5.176      212.555      177.352       93.581    45179.815    31453.793     8757.362       14.652        4.270      455.682      107.457        0.056      344.548       21.443      854.142
09/17/2013  09:43:00     -359.740     -271.618      -20.875      164.510      125.388       71.305    27063.670    15722.068     5084.344       12.574        2.394      450.765       78.452        0.030      344.483       21.331      854.202
09/17/2013  09:44:00     -253.385     -156.129        6.380      130.817       80.329       60.784    17113.097     6452.755     3694.693        5.794        1.363      297.624       51.581        0.030      344.431       21.240      854.188
09/17/2013  09:45:00     -164.167     -169.117       -2.259      101.118       92.859       43.041    10224.875     8622.835     1852.547        3.812        1.035      235.693       41.850        0.032      344.388       21.168      854.183
09/17/2013  09:46:00     -271.467     -178.349       -3.591      117.157       94.530       68.781    13725.746     8935.922     4730.894        6.645        1.370      324.812       71.063        0.048      344.431       21.242      854.160
09/17/2013  09:47:00     -271.232     -181.516       -1.393      175.424      135.883       75.195    30773.550    18464.267     5654.333        8.069        2.745      326.366       90.987        0.078      344.635       21.591      854.197
09/17/2013  09:48:00     -234.198     -187.750        0.338      144.358      117.030       68.337    20839.303    13695.955     4669.967        6.464        1.960      300.165       68.757        0.052      344.531       21.412      854.225
09/17/2013  09:49:00      -96.529     -275.865      -18.513       87.153      141.050       53.638     7595.727    19895.164     2876.992        5.806        1.518      292.266       28.590        0.010      344.709       21.716      854.225
09/17/2013  09:50:00     -212.388     -176.276        7.545      128.908       93.013       63.532    16617.187     8651.333     4036.368        5.277        1.465      276.011       55.974        0.041      344.651       21.619      854.209
09/17/2013  09:51:00     -223.100     -169.895        3.983      140.043       89.944       47.159    19611.940     8089.945     2223.970        5.428        1.496      280.425       45.837        0.027      344.414       21.211      854.215
09/17/2013  09:52:00     -212.960      -88.143       17.608      191.944      135.133       79.699    36842.368    18260.903     6351.904        5.743        3.073      230.480      101.757        0.195      344.691       21.688      854.191
09/17/2013  09:53:00     -154.543     -216.765       14.128      124.552       99.712       65.957    15513.129     9942.426     4350.312        5.043        1.490      266.215       63.174        0.056      344.496       21.353      854.177
09/17/2013  09:54:00     -198.268     -121.522        5.788      150.532      136.690       63.735    22659.894    18684.245     4062.100        4.975        2.270      232.547       70.060        0.091      344.655       21.625      854.150
09/17/2013  09:55:00     -296.864     -116.874       -7.564      151.818      106.866       52.268    23048.688    11420.347     2731.988        6.952        1.860      319.042       56.857        0.032      344.613       21.555      854.144
09/17/2013  09:56:00     -340.425     -138.334      -22.574      128.407       90.812       50.265    16488.444     8246.892     2526.548        8.139        1.363      367.458       56.068        0.023      344.600       21.532      854.136
09/17/2013  09:57:00     -185.320      -47.670        7.430      131.904      105.346       64.431    17398.765    11097.866     4151.379        3.465        1.632      191.353       73.382        0.147      344.622       21.569      854.141
09/17/2013  09:58:00     -198.186     -158.068        8.336      196.126      114.352       58.595    38465.535    13076.319     3433.408        5.964        2.749      253.502       80.748        0.101      344.612       21.554      854.141
09/17/2013  09:59:00     -243.903     -189.827       -3.033      127.619      107.919       67.501    16286.558    11646.472     4556.328        6.400        1.624      309.068       60.044        0.038      344.608       21.544      854.157
09/17/2013  10:00:00     -275.227     -189.896        0.112      154.059       92.745       65.042    23734.133     8601.556     4230.456        7.418        1.828      334.381       76.548        0.052      344.518       21.389      854.189
09/17/2013  10:01:00     -250.220     -216.054       -4.716      102.219      111.222       63.705    10448.808    12370.274     4058.354        6.809        1.344      330.590       48.126        0.021      344.621       21.566      854.195
09/17/2013  10:02:00     -396.872     -166.955       -5.154      187.950      158.087       86.655    35325.245    24991.460     7509.111       12.660        3.391      430.559       99.957        0.054      344.461       21.295      854.177
09/17/2013  10:03:00     -448.979     -225.416      -16.454      184.199      138.503       66.790    33929.216    19183.029     4460.954       15.511        2.879      502.389       69.997        0.019      344.313       21.040      854.158
09/17/2013  10:04:00     -285.491      -83.383      -30.183       87.793      102.275       40.472     7707.687    10460.242     1637.943        5.458        0.990      297.419       18.395        0.004      344.334       21.076      854.172
09/17/2013  10:05:00     -192.527       48.629        2.688      118.055       88.513       45.611    13937.024     7834.573     2080.349        3.164        1.193      198.573       47.020        0.056      344.699       21.702      854.099
09/17/2013  10:06:00     -167.273      -46.183       -3.751      117.222       72.279       56.384    13740.885     5224.289     3179.173        2.613        1.107      173.532       66.402        0.146      344.943       22.119      854.090
09/17/2013  10:07:00     -368.618     -153.238      -24.948      169.438      120.262       88.443    28709.270    14462.854     7822.203       10.548        2.550      399.200       83.542        0.044      344.931       22.096      854.096
09/17/2013  10:08:00     -351.977     -208.812      -22.474      196.788      155.733       79.037    38725.404    24252.747     6246.816       11.860        3.461      409.256       94.872        0.054      344.609       21.546      854.112
09/17/2013  10:09:00     -215.921      -13.056        9.370       96.985      104.938       57.308     9406.113    11011.947     3284.235        3.529        1.185      216.316       53.481        0.061      344.807       21.884      854.161
09/17/2013  10:10:00     -208.940      -31.545       -3.261      135.040       88.991       50.520    18235.678     7919.442     2552.238        3.668        1.435      211.308       62.813        0.088      344.721       21.738      854.163
09/17/2013  10:11:00     -149.651      -21.442      -19.385       86.175       45.615       32.624     7426.205     2080.756     1064.304        1.690        0.529      151.179       37.040        0.060      344.726       21.748      854.108
09/17/2013  10:12:00      -57.144      -27.854      -10.074       68.131       77.128       40.492     4641.852     5948.751     1639.585        0.818        0.612       63.571       31.349        0.243      345.025       22.261      854.090
09/17/2013  10:13:00     -155.357     -161.663      -13.221      102.585       76.338       40.379    10523.671     5827.430     1630.473        3.421        0.899      224.211       36.025        0.026      344.941       22.114      854.129
09/17/2013  10:14:00     -265.333     -163.969       -5.696      136.989      109.881       64.335    18766.088    12073.821     4138.966        6.614        1.749      311.910       63.993        0.042      344.867       21.987      854.102
09/17/2013  10:15:00     -335.901     -227.231        2.600      168.299      128.644       79.632    28324.702    16549.268     6341.236       10.783        2.561      405.541       89.770        0.049      344.877       22.005      854.133
09/17/2013  10:16:00     -351.423      -46.755       -6.733      181.876      133.797       68.707    33078.863    17901.606     4720.694        9.070        2.785      354.520       74.741        0.044      344.693       21.691      854.166
09/17/2013  10:17:00     -236.922     -115.910       -1.132      115.851       94.000       53.884    13421.417     8835.958     2903.532        4.736        1.258      263.756       53.595        0.041      344.881       22.010      854.176
09/17/2013  10:18:00     -151.152     -245.045       11.236      118.639      142.522       65.545    14075.146    20312.518     4296.195        6.084        1.934      287.913       52.228        0.033      344.729       21.750      854.143
09/17/2013  10:19:00     -330.476      -34.069       15.703      241.803      170.262       86.707    58468.906    28989.239     7518.052       10.278        4.749      332.227      115.094        0.120      344.986       22.190      854.134
09/17/2013  10:20:00     -369.424     -139.858      -19.171      186.609      184.401       76.926    34823.040    34003.745     5917.577       11.556        3.737      395.012       81.235        0.042      344.839       21.941      854.148
09/17/2013  10:21:00     -222.428      -39.184        6.341      153.931      102.218       64.508    23694.850    10448.575     4161.300        4.467        1.915      225.853       62.592        0.077      344.805       21.881      854.146
09/17/2013  10:22:00     -259.760      -31.696      -14.865      105.179       74.378       54.089    11062.726     5532.042     2925.604        4.411        0.976      261.687       56.954        0.047      344.588       21.509      854.095
09/17/2013  10:23:00      -94.028        5.741        4.732       39.328       59.183       35.092     1546.671     3502.627     1231.436        0.759        0.314       94.203       29.715        0.099      344.719       21.737      854.029
09/17/2013  10:24:00     -202.215     -341.933       -4.420      176.340      198.650       72.285    31095.786    39461.785     5225.152       11.679        3.789      397.252       54.878        0.019      344.765       21.811      853.993
09/17/2013  10:25:00     -322.743     -136.315        2.730      207.636      133.801       77.622    43112.559    17902.809     6025.243        9.488        3.352      350.350       93.033        0.071      344.894       22.034      853.921
09/17/2013  10:26:00     -266.631     -171.349       -4.131      186.265      105.293       64.093    34694.743    11086.531     4107.852        7.517        2.494      316.943       65.472        0.043      344.951       22.129      853.934
09/17/2013  10:27:00     -128.467     -222.947       10.952      120.798      102.790       57.030    14592.151    10565.852     3252.407        4.736        1.421      257.312       48.655        0.036      344.809       21.887      854.001
09/17/2013  10:28:00     -160.808     -190.685      -25.076      113.978      101.951       51.264    12990.957    10393.963     2628.035        4.443        1.301      249.439       34.525        0.019      344.913       22.065      854.008
09/17/2013  10:29:00     -170.879     -276.143      -20.860      116.041       98.286       55.845    13465.398     9660.197     3118.713        6.606        1.312      324.738       26.923        0.007      345.091       22.370      854.040
09/17/2013  10:30:00     -205.057     -265.532       16.241      161.895      149.616       75.358    26210.038    22385.056     5678.899        8.354        2.714      335.493       66.346        0.039      344.839       21.940      854.030
09/17/2013  10:31:00     -292.362     -132.504        5.633      171.030      132.870       70.115    29251.347    17654.407     4916.096        7.743        2.591      320.988       69.875        0.047      344.984       22.188      853.960
09/17/2013  10:32:00     -241.830     -102.036       10.481      179.926      120.386       71.538    32373.200    14492.909     5117.650        6.048        2.599      262.475       73.208        0.078      345.089       22.368      853.915
09/17/2013  10:33:00      -44.167      -69.556       30.710       71.909       69.491       61.721     5170.862     4829.032     3809.483        1.077        0.690       82.394       49.699        0.364      345.535       23.135      853.950
09/17/2013  10:34:00      -77.564      -82.454        1.947       78.417       81.739       44.971     6149.205     6681.288     2022.366        1.383        0.743      113.203       47.083        0.173      345.371       22.853      853.990
09/17/2013  10:35:00     -254.710     -144.832        0.974      147.973      105.290       64.373    21896.071    11085.931     4143.943        6.148        1.856      293.007       71.357        0.059      345.115       22.412      853.996
09/17/2013  10:36:00     -143.360     -130.515        7.492       95.098       80.734       52.559     9043.655     6517.937     2762.424        2.798        0.916      193.872       31.100        0.026      345.017       22.245      853.999
09/17/2013  10:37:00     -120.815     -117.254       -4.113       81.660       64.302       43.984     6668.406     4134.764     1934.601        2.055        0.637      168.359       41.428        0.061      344.992       22.202      854.000
09/17/2013  10:38:00      -10.812       48.377       84.293       55.716       77.084       71.159     3104.231     5941.901     5063.537        1.183        0.705       49.570       54.301        1.200      345.815       23.615      853.959
09/17/2013  10:39:00       79.501      -32.319       84.784       85.969      138.324       86.578     7390.616    19133.631     7495.764        2.428        1.701       85.819       88.839        1.072      345.363       22.839      853.962
09/17/2013  10:40:00       89.026      -45.102       47.536      104.425      114.709       74.414    10904.548    13158.105     5537.375        2.090        1.480       99.799       87.552        0.770      345.343       22.803      853.991
09/17/2013  10:41:00      193.232     -221.554      -42.983      109.689      158.205       69.762    12031.682    25028.900     4866.794        6.509        2.096      293.981       73.054        0.062      345.058       22.313      854.008
09/17/2013  10:42:00       54.750      -85.310       52.965       86.343      106.722       91.224     7455.042    11389.595     8321.892        2.012        1.358      101.367       79.309        0.612      345.194       22.550      853.958
09/17/2013  10:43:00     -106.131     -110.651       -0.429       82.720       74.642       35.278     6842.550     5571.429     1244.567        1.858        0.683      153.321       27.899        0.033      345.194       22.548      854.025
09/17/2013  10:44:00     -191.425     -185.971       -9.800      142.220       84.164       56.393    20226.600     7083.624     3180.136        5.090        1.525      266.887       47.360        0.031      344.977       22.177      854.034
09/17/2013  10:45:00     -270.144     -191.632      -20.954      129.132      111.746       65.953    16675.083    12487.135     4349.824        7.182        1.676      331.211       58.114        0.031      344.907       22.056      854.031
09/17/2013  10:46:00     -143.654     -167.368        3.402      126.759      112.197       68.733    16067.795    12588.139     4724.240        4.101        1.669      220.564       49.723        0.051      345.021       22.252      854.072
09/17/2013  10:47:00     -313.848     -105.745      -23.311      216.143      162.970       88.908    46717.840    26559.354     7904.548        9.569        4.059      331.183       92.615        0.078      345.025       22.258      854.000
09/17/2013  10:48:00     -593.249     -289.301      -14.916      248.883      190.983      124.459    61942.835    36474.414    15489.971       27.486        5.695      660.030      120.880        0.034      344.955       22.137      853.862
09/17/2013  10:49:00     -406.313     -152.910       -9.042      209.992      199.821       85.094    44096.530    39928.261     7240.910       13.989        4.563      434.134       71.575        0.027      344.985       22.188      853.874
09/17/2013  10:50:00     -293.625     -134.762       27.184      199.850      166.844       91.335    39939.860    27836.907     8341.991        9.060        3.806      323.074       97.833        0.092      345.074       22.343      853.889
09/17/2013  10:51:00     -583.523     -184.777      -21.570      246.500      149.755       96.030    60762.054    22426.416     9221.716       23.374        4.621      612.079       95.971        0.025      345.015       22.240      853.865
09/17/2013  10:52:00     -412.754     -181.912      -35.513      200.916      132.919       75.259    40367.427    17667.365     5663.917       13.420        3.185      451.063       64.592        0.021      344.835       21.932      853.918
09/17/2013  10:53:00     -128.020     -318.888        5.405      128.426      166.194       60.237    16493.198    27620.455     3628.537        8.292        2.387      343.626       68.401        0.040      344.939       22.112      853.926
09/17/2013  10:54:00     -266.335      -97.606       21.568      183.066      165.994       98.329    33513.102    27554.161     9668.557        7.582        3.537      283.657       99.504        0.123      345.323       22.769      853.854
09/17/2013  10:55:00     -161.604      -83.585       13.489      170.231       98.963       69.189    28978.424     9793.636     4787.101        3.841        2.178      181.940       78.626        0.187      345.452       22.991      853.891
09/17/2013  10:56:00      -95.979     -152.189      -10.725      135.643       83.355       52.688    18399.143     6947.988     2776.043        3.030        1.406      179.926       46.717        0.067      345.276       22.687      853.928
09/17/2013  10:57:00       18.047     -112.002       33.897      145.928      112.640       53.390    21295.081    12687.760     2850.477        2.542        1.842      113.447       54.755        0.233      345.392       22.889      853.914
09/17/2013  10:58:00      -47.136     -155.544        1.580       81.410      122.511       56.490     6627.610    15009.038     3191.083        2.562        1.241      162.529       44.661        0.076      345.257       22.654      853.908
09/17/2013  10:59:00      -25.406     -107.146       -6.361       65.160       86.568       48.016     4245.805     7493.941     2305.495        1.310        0.702      110.116       38.233        0.121      345.309       22.747      853.864
09/17/2013  11:00:00       51.900      -75.962        0.144       93.335       99.880       60.152     8711.331     9975.985     3618.274        1.538        1.115       91.999       60.115        0.427      345.558       23.175      853.837
09/17/2013  11:01:00      -43.442     -107.052        7.787      103.357       85.548       62.023    10682.645     7318.428     3846.871        1.762        1.092      115.530       49.607        0.184      345.667       23.361      853.815
09/17/2013  11:02:00        1.124     -146.927       21.801      119.292      153.757       82.463    14230.668    23641.238     6800.120        3.336        2.234      146.931       65.536        0.199      345.632       23.298      853.857
09/17/2013  11:03:00       84.762     -132.263       28.882      130.747      148.050       83.308    17094.661    21918.718     6940.168        3.572        2.298      157.092       89.786        0.327      345.641       23.314      853.918
09/17/2013  11:04:00      -12.117     -183.964       13.673      116.086      192.571       65.073    13475.928    37083.398     4234.552        4.447        2.740      184.362       78.462        0.181      345.492       23.059      853.922
09/17/2013  11:05:00       74.855     -123.205       -3.805       99.593      142.203       71.201     9918.851    20221.682     5069.595        2.800        1.761      144.162       67.213        0.217      345.490       23.055      853.905
09/17/2013  11:06:00      -10.997      -12.481       50.329      110.618      120.945       72.228    12236.251    14627.774     5216.936        1.744        1.604       16.635       72.275       18.877      345.680       23.381      853.850
09/17/2013  11:07:00        5.344     -138.696       37.769       79.159      122.514       82.043     6266.093    15009.724     6730.975        2.434        1.400      138.799       74.286        0.286      345.546       23.153      853.857
09/17/2013  11:08:00      -63.168      -69.543       -4.166       59.792       75.219       39.696     3575.136     5657.859     1575.772        0.982        0.540       93.950       32.509        0.120      345.429       22.951      853.880
09/17/2013  11:09:00      -52.364      -52.120        5.696       70.471       61.675       36.131     4966.138     3803.796     1305.441        0.778        0.504       73.881       28.462        0.148      345.296       22.724      853.895
09/17/2013  11:10:00      -64.998      -20.498        1.802       45.886       43.768       29.740     2105.566     1915.670      884.462        0.478        0.245       68.153       26.455        0.151      345.474       23.029      853.903
09/17/2013  11:11:00      -48.598      -32.136       19.407       67.455       33.847       33.697     4550.155     1145.603     1135.468        0.530        0.342       58.262       34.114        0.343      345.668       23.361      853.912
09/17/2013  11:12:00     -136.218     -119.814      -19.688       66.733       52.801       30.719     4453.345     2787.977      943.657        2.074        0.409      181.413       17.318        0.009      345.225       22.601      853.898
09/17/2013  11:13:00     -184.008     -220.797      -14.150      154.937       92.857       54.193    24005.594     8622.453     2936.848        5.918        1.778      287.420       61.104        0.045      345.023       22.255      853.886
09/17/2013  11:14:00     -144.428     -145.147        0.175      154.246      105.873       52.940    23791.780    11209.123     2802.623        3.986        1.890      204.761       59.758        0.085      345.146       22.465      853.884
09/17/2013  11:15:00      -99.876     -212.811       -6.086       79.675      100.238       55.712     6348.040    10047.663     3103.862        3.740        0.975      235.082       33.673        0.021      345.032       22.271      853.876
09/17/2013  11:16:00     -185.059     -183.923       17.933      166.100      108.482       80.248    27589.269    11768.309     6439.692        5.709        2.290      260.911       65.827        0.064      345.252       22.646      853.862
09/17/2013  11:17:00     -255.749     -217.427        5.684      190.044      156.943       94.526    36116.676    24631.207     8935.121        9.118        3.484      335.681      114.052        0.115      345.247       22.639      853.839
09/17/2013  11:18:00     -349.886     -272.933      -19.286      163.163      169.117       89.737    26622.238    28600.439     8052.803       13.027        3.164      443.749       99.027        0.050      344.982       22.184      853.849
09/17/2013  11:19:00     -327.211     -260.154      -16.136      194.816      145.870       81.810    37953.322    21278.192     6692.895       12.045        3.296      418.028       90.685        0.047      345.103       22.392      853.852
09/17/2013  11:20:00     -316.016     -128.750      -20.967      212.420      129.478       75.820    45122.445    16764.459     5748.619        9.225        3.382      341.237       88.228        0.067      345.051       22.303      853.890
09/17/2013  11:21:00     -152.986     -129.951       14.495       97.567      125.621       57.588     9519.381    15780.583     3316.354        3.455        1.431      200.729       60.667        0.091      345.211       22.576      853.878
09/17/2013  11:22:00     -359.903     -293.644       -8.886      173.443      124.919       82.626    30082.361    15604.768     6827.120       13.416        2.626      464.496       86.025        0.034      344.965       22.154      853.863
09/17/2013  11:23:00     -307.133     -188.178      -10.889      124.903      105.252       56.601    15600.843    11078.074     3203.686        7.987        1.494      360.197       61.688        0.029      344.920       22.077      853.826
09/17/2013  11:24:00     -117.933      -97.836        1.400      101.036       76.080       54.232    10208.286     5788.189     2941.125        2.121        0.947      153.233       54.024        0.124      345.238       22.623      853.786
09/17/2013  11:25:00     -192.882      -60.029       -2.296      107.594      107.506       47.987    11576.489    11557.587     2302.723        3.312        1.272      202.007       52.733        0.068      345.587       23.221      853.740
09/17/2013  11:26:00     -273.690     -193.466        5.839      229.549      184.895      118.781    52692.564    34186.080    14108.918       10.666        5.049      335.165      112.504        0.113      345.256       22.653      853.689
09/17/2013  11:27:00     -326.678      -54.714       -2.678      186.602      114.417       73.108    34820.197    13091.209     5344.799        8.148        2.663      331.228       87.643        0.070      345.233       22.613      853.768
09/17/2013  11:28:00     -171.044      -40.557       26.298      175.854      113.733       82.946    30924.510    12935.265     6880.051        4.116        2.537      175.787       78.620        0.200      345.363       22.839      853.781
09/17/2013  11:29:00     -197.621     -189.429        0.288      144.901      152.726       67.005    20996.322    23325.276     4489.615        6.186        2.441      273.747       64.033        0.055      345.246       22.638      853.754
09/17/2013  11:30:00     -348.472     -174.321      -15.414      218.130      123.414       75.247    47580.498    15231.091     5662.177       11.025        3.424      389.642       97.389        0.062      345.222       22.594      853.776
09/17/2013  11:31:00     -398.085     -262.057       -5.035      219.093      190.176       91.341    48001.650    36166.820     8343.168       15.982        4.626      476.598      108.696        0.052      345.146       22.464      853.774
09/17/2013  11:32:00     -354.841     -183.028       -7.911      183.430      108.790       70.126    33646.642    11835.206     4917.686       10.493        2.520      399.264       74.588        0.035      344.963       22.152      853.814
09/17/2013  11:33:00     -388.501     -331.707      -26.401      217.932      145.183       82.772    47494.354    21078.110     6851.277       16.853        3.771      510.845       97.186        0.036      344.943       22.117      853.796
09/17/2013  11:34:00     -452.459     -343.472      -15.383      236.533      225.626      116.320    55948.049    50906.991    13530.458       22.163        6.019      568.060      131.531        0.054      345.197       22.552      853.742
09/17/2013  11:35:00     -413.051     -230.634      -19.876      250.368      131.151       94.332    62683.967    17200.473     8898.483       15.647        4.439      473.078      114.614        0.059      345.134       22.443      853.744
09/17/2013  11:36:00     -370.239      -25.419      -29.511      172.681      144.403       76.883    29818.558    20852.104     5910.955        9.758        2.829      371.111       78.219        0.044      345.228       22.606      853.746
09/17/2013  11:37:00     -257.682      -85.170        5.414      206.549      149.880       86.653    42662.576    22463.951     7508.738        7.314        3.632      271.392       98.306        0.131      345.482       23.042      853.718
09/17/2013  11:38:00     -391.054      -94.233      -10.572      200.318      200.477      103.125    40127.476    40191.073    10634.766       12.642        4.548      402.248      107.922        0.072      345.360       22.831      853.689
09/17/2013  11:39:00     -451.326       40.728      -14.473      237.963      192.317       93.079    56626.158    36985.784     8663.663       15.390        5.114      453.160      111.500        0.061      345.344       22.803      853.652
09/17/2013  11:40:00     -340.424     -133.827        5.696      238.246      190.544       98.132    56761.322    36306.853     9629.932       11.824        5.135      365.784      104.120        0.081      345.376       22.859      853.601
09/17/2013  11:41:00     -314.912     -230.885       -2.904      199.209      223.620       94.790    39684.301    50005.731     8985.134       12.556        4.934      390.483       99.669        0.065      345.384       22.872      853.575
09/17/2013  11:42:00     -535.469      -75.436      -22.528      266.426      189.308      107.117    70982.698    35837.702    11474.036       20.559        5.915      540.757      124.018        0.053      345.526       23.115      853.671
09/17/2013  11:43:00     -613.752     -106.955      -35.607      269.411      192.340      108.022    72582.205    36994.726    11668.737       25.530        6.062      623.002      128.692        0.043      345.195       22.549      853.666
09/17/2013  11:44:00     -398.771     -246.806        5.821      243.273      176.825       87.903    59181.672    31266.963     7727.008       15.905        4.909      468.969      112.620        0.058      345.204       22.565      853.706
09/17/2013  11:45:00     -477.339     -328.648      -12.793      277.382      182.748      104.813    76940.806    33396.967    10985.732       22.865        6.066      579.536      123.364        0.045      345.122       22.423      853.675
09/17/2013  11:46:00     -424.199     -151.579       -5.193      240.753      252.677      116.218    57961.900    63845.554    13506.718       16.910        6.766      450.468      119.973        0.071      345.224       22.598      853.639
09/17/2013  11:47:00     -433.106     -122.782      -21.811      215.511      228.004       87.444    46445.007    51985.663     7646.385       15.458        5.304      450.174       95.459        0.045      345.367       22.843      853.717
09/17/2013  11:48:00     -387.960     -201.136      -11.593      209.917      169.253       98.845    44065.223    28646.632     9770.335       13.678        4.124      437.000       94.235        0.047      345.207       22.568      853.726
09/17/2013  11:49:00     -353.378     -242.645       -4.099      250.131      217.609      123.410    62565.457    47353.680    15229.920       15.443        6.257      428.664      135.823        0.100      345.105       22.394      853.721
09/17/2013  11:50:00     -331.017     -181.241        4.037      254.343      183.687      106.993    64690.264    33740.916    11447.595       12.614        5.494      377.387      133.765        0.126      345.126       22.429      853.748
09/17/2013  11:51:00     -453.891     -206.860      -10.437      237.627      166.530       90.301    56466.650    27732.371     8154.232       17.062        4.618      498.807      108.207        0.047      344.967       22.158      853.724
09/17/2013  11:52:00     -348.087     -366.961        4.900      226.404      208.569      114.860    51258.978    43500.959    13192.762       18.188        5.398      505.791      127.443        0.063      345.210       22.573      853.663
09/17/2013  11:53:00     -412.528     -179.672       -0.459      227.269      210.345      105.917    51651.174    44244.953    11218.325       15.477        5.356      449.957      107.819        0.057      345.303       22.733      853.712
09/17/2013  11:54:00     -296.111     -137.215       -5.777      232.372      158.936      101.399    53996.669    25260.565    10281.798        9.802        4.477      326.359      104.450        0.102      345.456       22.996      853.722
09/17/2013  11:55:00     -288.885     -114.924       17.988      175.359      164.292       93.016    30750.723    26991.740     8652.020        8.168        3.320      310.905       87.810        0.080      345.335       22.788      853.770
09/17/2013  11:56:00     -209.433      -88.802        8.856      179.877      116.349       80.617    32355.690    13537.096     6499.105        5.210        2.620      227.482      100.025        0.193      345.400       22.900      853.725
09/17/2013  11:57:00     -265.199     -261.858        3.322      246.280      151.952       86.671    60653.983    23089.320     7511.941       11.506        4.563      372.693      103.081        0.076      345.015       22.241      853.683
09/17/2013  11:58:00     -309.548      -34.142      -32.034      174.618      157.086       83.723    30491.373    24676.104     7009.622        8.008        3.109      311.425       94.218        0.092      345.318       22.760      853.699
09/17/2013  11:59:00     -194.669      -98.229       -5.332      108.099      130.588       61.385    11685.420    17053.285     3768.130        4.003        1.625      218.048       60.838        0.078      345.711       23.434      853.742
09/17/2013  12:00:00      -32.692      -66.296       27.364       85.619      111.414       55.391     7330.609    12413.000     3068.120        1.451        1.141       73.919       60.511        0.670      345.813       23.611      853.712
09/17/2013  12:01:00      -18.535        0.697        6.514       38.700       54.512       35.748     1497.724     2971.607     1277.944        0.307        0.287       18.548       18.807        1.028      345.929       23.811      853.652
09/17/2013  12:02:00     -236.539      -65.941       11.154      190.828      121.249       57.891    36415.180    14701.405     3351.391        5.743        2.723      245.558       77.667        0.100      345.663       23.352      853.681
09/17/2013  12:03:00     -353.044     -129.452       -4.793      218.588      131.380       76.766    47780.529    17260.659     5892.953       10.616        3.547      376.029       90.710        0.058      345.364       22.838      853.714
09/17/2013  12:04:00     -304.826      103.221      -21.085      200.663      158.089       97.119    40265.680    24992.085     9432.105        8.934        3.734      321.828       98.224        0.093      345.624       23.283      853.585
09/17/2013  12:05:00     -410.751      -73.415      -20.873      199.009      145.733       74.493    39604.619    21238.043     5549.179       12.045        3.320      417.260       85.105        0.042      345.606       23.255      853.598
09/17/2013  12:06:00     -357.653      -64.606      -16.724      204.712      163.654       74.154    41906.806    26782.555     5498.806       10.326        3.709      363.442       93.903        0.067      345.739       23.481      853.608
09/17/2013  12:07:00     -488.316     -210.345      -20.977      253.866      166.396       97.530    64447.901    27687.571     9512.119       19.237        5.082      531.693      120.664        0.052      345.556       23.168      853.623
09/17/2013  12:08:00     -215.798      -95.142      -10.930      211.760      144.313       91.603    44842.495    20826.332     8391.022        6.489        3.703      235.841       78.710        0.111      345.583       23.214      853.609
09/17/2013  12:09:00     -668.221     -298.913      -50.610      241.011      246.854      110.106    58086.434    60937.037    12123.434       33.476        6.557      732.030       74.925        0.010      345.072       22.337      853.597
09/17/2013  12:10:00     -473.802      -89.494      -26.607      308.095      168.847      112.465    94922.347    28509.417    12648.300       18.462        6.804      482.180      137.037        0.081      345.314       22.752      853.591
09/17/2013  12:11:00     -212.419      -62.099       24.916      207.333      192.075       92.849    42987.121    36892.664     8620.944        6.903        4.425      221.310      104.654        0.224      345.333       22.787      853.546
09/17/2013  12:12:00     -451.085      -74.227       -3.081      308.081      201.726      125.940    94914.010    40693.550    15860.955       18.020        7.573      457.151      132.502        0.084      345.466       23.013      853.494
09/17/2013  12:13:00     -363.597      -56.440        7.834      264.385      179.823       93.502    69899.229    32336.456     8742.617       12.319        5.549      367.952      111.378        0.092      345.802       23.590      853.599
09/17/2013  12:14:00     -355.342     -125.081       -3.349      284.950      212.435      100.226    81196.658    45128.821    10045.288       13.912        6.819      376.714      125.836        0.112      345.744       23.491      853.663
09/17/2013  12:15:00     -361.238       -0.936      -15.305      246.700      154.578      100.414    60861.027    23894.451    10083.004       11.276        4.742      361.239      118.938        0.108      345.396       22.893      853.691
09/17/2013  12:16:00     -422.528      -97.663      -21.808      265.664      184.957      117.491    70577.112    34209.103    13804.162       15.354        5.930      433.669      103.902        0.057      345.249       22.641      853.619
09/17/2013  12:17:00     -437.165      -55.530      -27.058      240.668      267.530      103.521    57921.260    71572.373    10716.500       16.754        7.011      440.678      107.665        0.060      345.273       22.683      853.597
09/17/2013  12:18:00     -455.257      -75.366      -21.773      228.371      191.575       92.101    52153.099    36701.086     8482.639       15.536        4.867      461.453      105.694        0.052      345.386       22.874      853.614
09/17/2013  12:19:00     -379.108     -130.262       -9.996      279.366      234.257      120.163    78045.392    54876.527    14439.032       15.405        7.368      400.862      155.295        0.150      345.614       23.267      853.570
09/17/2013  12:20:00     -386.045      -82.897        3.063      277.975      226.957      111.593    77269.871    51509.389    12453.034       14.854        7.062      394.846      140.700        0.127      345.520       23.105      853.587
09/17/2013  12:21:00     -312.977      -63.226        6.688      210.392      146.717       89.809    44264.646    21525.851     8065.687        8.791        3.693      319.300      103.971        0.106      345.600       23.243      853.633
09/17/2013  12:22:00     -379.623      -53.512       14.110      247.926      180.524      108.491    61467.399    32588.846    11770.214       12.648        5.291      383.376      111.962        0.085      345.702       23.418      853.644
09/17/2013  12:23:00     -289.788      -59.796        5.962      248.347      177.239      111.350    61676.326    31413.582    12398.793        9.652        5.274      295.894      134.926        0.208      345.421       22.936      853.744
09/17/2013  12:24:00     -457.619     -186.168      -35.818      243.135      194.132       89.876    59114.495    37687.143     8077.773       17.510        5.244      494.038      115.528        0.055      345.185       22.531      853.702
09/17/2013  12:25:00     -276.162     -137.289       24.893      310.928      163.535      104.572    96676.286    26743.808    10935.252       11.502        6.718      308.405      139.078        0.203      345.684       23.388      853.684
09/17/2013  12:26:00     -396.310     -117.356        3.745      249.137      197.711       86.942    62069.015    39089.603     7558.911       13.976        5.436      413.320       99.348        0.058      345.593       23.231      853.685
09/17/2013  12:27:00     -653.431      -52.501      -58.053      340.943      184.917       95.848   116242.380    34194.376     9186.865       29.633        7.981      655.537      110.662        0.028      345.380       22.865      853.711
09/17/2013  12:28:00     -433.750      -37.368        0.457      245.231      189.212      108.815    60138.074    35801.049    11840.651       14.864        5.389      435.357      121.402        0.078      345.336       22.792      853.672
09/17/2013  12:29:00     -652.315     -132.338      -37.093      359.125      188.199      102.953   128971.020    35419.010    10599.318       30.966        8.749      665.604      124.708        0.035      345.276       22.686      853.611
09/17/2013  12:30:00     -442.575     -114.497      -15.804      270.673      248.752      109.076    73263.931    61877.347    11897.505       17.811        7.352      457.145      138.159        0.091      345.424       22.942      853.567
09/17/2013  12:31:00     -599.770     -200.330      -31.387      294.449      233.604      115.851    86700.409    54571.012    13421.520       27.774        7.735      632.342      127.438        0.041      345.257       22.657      853.566
09/17/2013  12:32:00     -544.658     -102.146       -1.734      318.152      245.835      136.584   101220.837    60434.641    18655.206       24.366        9.016      554.154      162.419        0.086      345.323       22.770      853.605
09/17/2013  12:33:00     -680.066     -231.272      -25.014      278.801      189.555      107.046    77730.026    35930.937    11458.755       32.084        6.256      718.315      119.502        0.028      345.032       22.270      853.603
09/17/2013  12:34:00     -588.056      -88.578      -36.017      186.809      201.936      105.542    34897.657    40778.264    11139.018       22.087        4.341      594.689       93.809        0.025      345.129       22.436      853.641
09/17/2013  12:35:00     -245.707     -120.037       26.026      212.868      185.675       96.272    45312.943    34475.364     9268.206        8.224        4.453      273.460      113.401        0.172      345.416       22.927      853.600
09/17/2013  12:36:00     -247.009     -163.129       -0.721      209.614      155.764       96.324    43937.927    24262.405     9278.392        8.254        3.874      296.014      109.061        0.136      345.339       22.795      853.607
09/17/2013  12:37:00     -475.616     -266.913       -3.135      324.228      243.547      123.017   105123.703    59315.100    15133.293       23.848        8.979      545.392      145.086        0.071      345.177       22.519      853.558
09/17/2013  12:38:00     -574.271     -235.116      -11.221      350.894      222.439      129.143   123126.815    49479.319    16677.952       28.720        9.464      620.538      157.584        0.064      345.214       22.581      853.577
09/17/2013  12:39:00     -384.578     -291.513        8.216      223.360      215.348      111.932    49889.843    46374.775    12528.850       17.085        5.440      482.577      131.710        0.074      345.269       22.676      853.650
09/17/2013  12:40:00     -288.153     -193.048      -10.330      248.526      169.191      101.948    61765.191    28625.704    10393.313       11.058        5.039      346.842      111.600        0.104      345.322       22.767      853.622
09/17/2013  12:41:00     -593.436        6.604      -25.633      247.219      193.198      110.302    61117.150    37325.556    12166.434       23.172        5.530      593.473      110.198        0.034      345.329       22.779      853.656
09/17/2013  12:42:00     -472.489     -179.149      -36.537      206.314      167.522       93.414    42565.561    28063.553     8726.115       16.800        3.968      505.312      106.825        0.045      345.166       22.500      853.691
09/17/2013  12:43:00     -597.433     -158.691      -21.883      259.955      186.052       93.415    67576.494    34615.280     8726.374       24.673        5.546      618.149      113.870        0.034      345.244       22.633      853.653
09/17/2013  12:44:00     -655.323     -113.022      -33.929      230.467      169.814       86.558    53115.058    28836.729     7492.255       26.639        4.472      664.998       90.097        0.018      344.909       22.059      853.688
09/17/2013  12:45:00     -213.624     -105.512        2.166      117.864      129.060       56.836    13891.911    16656.460     3230.311        4.527        1.689      238.260       57.613        0.058      345.170       22.505      853.709
09/17/2013  12:46:00     -131.879      -52.674       14.248      130.059       96.767       57.004    16915.225     9363.757     3249.410        2.494        1.476      142.009       49.495        0.121      345.417       22.931      853.705
09/17/2013  12:47:00     -217.557      -91.678       -1.251      126.633      115.970       50.754    16036.033    13449.150     2575.953        4.389        1.603      236.084       53.604        0.052      345.296       22.722      853.714
09/17/2013  12:48:00     -277.919     -210.662        4.621      173.469      165.870       85.211    30091.660    27513.005     7260.992        9.324        3.243      348.737       88.946        0.065      345.129       22.434      853.688
09/17/2013  12:49:00     -328.107     -142.667      -10.252      190.540      194.914       90.246    36305.453    37991.509     8144.338       10.526        4.122      357.782       94.797        0.070      345.221       22.593      853.698
09/17/2013  12:50:00     -287.740     -213.217       18.714      255.312      174.420      126.358    65184.218    30422.401    15966.376       12.007        5.579      358.128      147.915        0.171      345.136       22.448      853.653
09/17/2013  12:51:00     -173.404     -111.701        8.099      171.470      131.717       84.365    29401.801    17349.425     7117.484        4.823        2.693      206.267       95.716        0.215      345.261       22.662      853.635
09/17/2013  12:52:00     -199.465     -120.670        9.529      149.822      129.024       79.391    22446.571    16647.190     6302.923        4.991        2.270      233.125       81.716        0.123      345.195       22.549      853.630
09/17/2013  12:53:00     -274.737     -194.353        6.621      213.074      151.892       99.134    45400.328    23071.066     9827.479        9.578        3.915      336.532      118.420        0.124      345.149       22.470      853.634
09/17/2013  12:54:00     -234.924     -135.183       12.918      225.330      180.861       98.550    50773.468    32710.569     9712.146        8.339        4.660      271.042      127.670        0.222      345.158       22.486      853.565
09/17/2013  12:55:00     -352.831       33.731      -25.603      210.589      143.914       83.889    44347.901    20711.157     7037.282        9.918        3.605      354.440       96.539        0.074      345.178       22.519      853.492
09/17/2013  12:56:00     -424.477     -222.730      -15.724      277.610      194.760       93.243    77067.155    37931.616     8694.235       17.684        6.185      479.363      124.477        0.067      345.232       22.612      853.462
09/17/2013  12:57:00     -613.641     -102.643      -18.489      270.601      238.888      108.227    73225.121    57067.472    11713.028       26.469        7.100      622.167      129.401        0.043      345.151       22.473      853.470
09/17/2013  12:58:00     -443.628     -168.125        3.273      212.783      172.920      108.599    45276.417    29901.161    11793.686       15.601        4.349      474.417      113.800        0.058      345.150       22.471      853.486
09/17/2013  12:59:00     -398.481     -101.014       -5.477      211.241      173.530      105.462    44622.802    30112.742    11122.328       12.742        4.293      411.086      107.997        0.069      345.072       22.339      853.537
09/17/2013  13:00:00     -367.691      -84.414      -10.647      143.150      104.056       56.491    20491.808    10827.555     3191.272        8.847        1.726      377.256       58.680        0.024      345.018       22.244      853.555
09/17/2013  13:01:00     -334.169      -27.118        2.632      180.885      160.215       75.410    32719.296    25668.778     5686.707        8.823        3.204      335.267       76.328        0.052      345.270       22.677      853.543
09/17/2013  13:02:00     -355.567     -171.932       -6.060      239.002      150.148       84.554    57121.883    22544.400     7149.368       12.140        4.341      394.954       90.554        0.053      345.190       22.539      853.553
09/17/2013  13:03:00     -201.519      -80.568       17.195      214.522      130.225       85.726    46019.789    16958.443     7348.922        5.885        3.516      217.028       92.337        0.181      345.440       22.970      853.513
09/17/2013  13:04:00     -432.258     -116.838      -18.641      263.742      187.347       99.351    69559.857    35098.978     9870.547       15.766        5.726      447.770      108.232        0.058      345.293       22.717      853.513
09/17/2013  13:05:00     -270.820     -106.229        4.924      154.775      127.701       63.897    23955.390    16307.578     4082.854        6.449        2.217      290.909       61.699        0.045      345.323       22.768      853.556
09/17/2013  13:06:00     -422.964      -83.505       -1.737      225.585      169.909       90.705    50888.418    28868.996     8227.428       13.691        4.399      431.129      108.885        0.064      345.239       22.625      853.583
09/17/2013  13:07:00     -138.633     -107.576        1.765      172.212      150.043       72.895    29656.877    22512.962     5313.626        4.413        2.874      175.475       76.690        0.191      345.326       22.775      853.548
09/17/2013  13:08:00     -267.382     -188.318       -3.644      147.432      124.278       75.057    21736.288    15445.003     5633.510        7.488        2.141      327.043       69.040        0.045      345.217       22.584      853.507
09/17/2013  13:09:00     -168.521     -149.248        5.405      124.589      110.421       63.510    15522.503    12192.736     4033.505        4.122        1.587      225.110       54.986        0.060      345.388       22.879      853.482
09/17/2013  13:10:00     -286.381     -189.066       -6.677      193.368      137.300       87.035    37391.228    18851.300     7575.153        9.080        3.191      343.162       86.237        0.063      345.354       22.821      853.527
09/17/2013  13:11:00     -175.422     -185.144        0.629      105.707      173.935       77.917    11174.031    30253.455     6071.091        5.627        2.375      255.051       59.385        0.054      345.287       22.706      853.474
09/17/2013  13:12:00     -332.725      -10.631       -5.955      187.747      126.051       67.304    35249.018    15888.980     4529.821        8.325        2.783      332.895       72.502        0.047      345.515       23.096      853.421
09/17/2013  13:13:00     -464.820     -119.909      -14.080      204.883      165.298       85.380    41977.080    27323.284     7289.739       15.360        3.830      480.037       88.827        0.034      345.549       23.154      853.454
09/17/2013  13:14:00     -245.297     -126.682       16.415      223.624      182.229       79.999    50007.827    33207.488     6399.774        8.303        4.481      276.078      101.229        0.134      345.762       23.520      853.524
09/17/2013  13:15:00     -359.274     -135.599        0.176      211.493      167.515       81.653    44729.187    28061.218     6667.191       11.345        3.973      384.011      102.504        0.071      345.456       22.996      853.547
09/17/2013  13:16:00     -270.576     -167.092      -14.074      198.068      186.862       87.065    39230.994    34917.287     7580.248        9.151        4.086      318.011       74.498        0.055      345.272       22.679      853.528
09/17/2013  13:17:00     -334.033      -95.931      -17.800      162.904      170.699       89.504    26537.841    29138.083     8010.893        9.238        3.184      347.536       85.733        0.061      345.432       22.953      853.498
09/17/2013  13:18:00     -352.519     -106.626       10.882      271.448      177.736      100.760    73683.976    31589.954    10152.614       12.557        5.771      368.291      133.835        0.132      345.520       23.107      853.470
09/17/2013  13:19:00     -254.220      -74.809        1.819      201.268      179.020       99.959    40508.966    32048.027     9991.802        7.637        4.127      264.998      111.964        0.179      345.529       23.121      853.430
09/17/2013  13:20:00     -508.208      121.161       -8.902      248.368      159.343       94.736    61686.790    25390.116     8974.938       18.452        4.803      522.451      109.318        0.044      345.493       23.060      853.354
09/17/2013  13:21:00     -554.911        0.002      -31.879      242.076      226.046       93.550    58600.677    51096.766     8751.674       21.367        5.922      554.911       99.033        0.032      345.358       22.829      853.316
09/17/2013  13:22:00     -261.785      -80.181       -7.752      164.245      162.898       78.915    26976.350    26535.850     6227.590        6.737        2.987      273.789       71.876        0.069      345.551       23.158      853.318
09/17/2013  13:23:00     -551.207     -122.684      -22.952      259.106      174.297       94.697    67135.936    30379.344     8967.573       21.292        5.324      564.695      102.558        0.033      345.452       22.990      853.224
09/17/2013  13:24:00     -574.775     -219.882      -17.702      316.194      192.690      130.174    99978.842    37129.505    16945.196       26.651        7.703      615.398      158.602        0.066      345.681       23.380      853.167
09/17/2013  13:25:00     -397.982     -221.573        3.427      251.444      220.951      106.870    63223.998    48819.382    11421.135       16.546        6.173      455.505      119.026        0.068      345.753       23.504      853.319
09/17/2013  13:26:00     -386.897     -319.380       -6.738      220.424      225.891       93.856    48586.708    51026.655     8808.991       18.006        5.421      501.690      117.187        0.055      345.604       23.250      853.392
09/17/2013  13:27:00     -212.127     -275.523      -10.673      147.372      188.591       83.108    21718.418    35566.445     6906.867        9.260        3.210      347.722       65.274        0.035      345.637       23.307      853.415
09/17/2013  13:28:00     -143.243     -188.472       -2.773      154.314      126.798       73.842    23812.755    16077.730     5452.706        5.069        2.267      236.728       85.988        0.132      345.680       23.382      853.417
09/17/2013  13:29:00     -238.442     -168.989        0.915      171.102      148.694       71.060    29276.019    22109.833     5049.472        7.091        2.822      292.253       69.355        0.056      345.724       23.456      853.474
09/17/2013  13:30:00     -394.573     -301.430       -2.879      255.344      168.352      105.605    65200.318    28342.429    11152.509       17.560        5.235      496.536      126.154        0.065      345.685       23.390      853.485
09/17/2013  13:31:00     -346.561     -162.593       -4.019      227.528      188.908      115.782    51768.928    35686.312    13405.556       12.369        5.043      382.807      128.402        0.113      345.706       23.425      853.482
09/17/2013  13:32:00     -450.265     -131.633      -21.432      271.781      244.779      120.172    73865.101    59916.820    14441.326       18.434        7.411      469.112      135.151        0.083      345.393       22.888      853.436
09/17/2013  13:33:00     -525.990      -87.086      -25.741      272.901      174.695      110.947    74474.750    30518.387    12309.216       20.108        5.865      533.150      118.775        0.050      345.385       22.874      853.393
09/17/2013  13:34:00     -448.526     -134.760      -20.587      217.685      217.468       96.669    47386.753    47292.134     9344.830       16.187        5.201      468.333      110.929        0.056      345.592       23.229      853.376
09/17/2013  13:35:00     -382.026     -296.423        1.358      306.288      225.608      126.838    93812.126    50899.004    16087.825       19.727        8.040      483.540      154.726        0.102      345.526       23.117      853.407
09/17/2013  13:36:00     -439.226     -282.866      -21.250      255.234      258.806      143.795    65144.503    66980.555    20676.889       21.306        7.640      522.430      134.605        0.066      345.384       22.873      853.440
09/17/2013  13:37:00     -468.660      -98.570      -20.149      280.045      166.177      112.757    78425.374    27614.735    12714.095       17.423        5.938      478.913      118.687        0.061      345.247       22.637      853.465
09/17/2013  13:38:00     -463.553     -178.389       -8.643      307.115      240.053      102.037    94319.368    57625.432    10411.614       20.453        8.118      496.693      141.803        0.082      345.188       22.538      853.472
09/17/2013  13:39:00     -291.778     -344.539       15.425      190.629      203.524      109.035    36339.292    41421.853    11888.554       14.685        4.482      451.488      103.130        0.052      345.166       22.500      853.486
09/17/2013  13:40:00     -361.128     -181.290        3.998      227.170      184.765       88.470    51606.336    34138.229     7826.982       12.841        4.679      404.079       91.854        0.052      345.291       22.712      853.440
09/17/2013  13:41:00     -319.651     -209.443       -7.380      278.866      189.951      114.295    77766.164    36081.389    13063.315       13.648        6.346      382.156      117.189        0.094      345.391       22.885      853.409
09/17/2013  13:42:00     -528.962     -346.030      -15.850      320.022      190.501      125.734   102413.945    36290.730    15809.069       27.712        7.726      632.090      153.623        0.059      345.274       22.683      853.395
09/17/2013  13:43:00     -405.866      -88.101       -5.631      250.825      210.142       95.256    62913.279    44159.794     9073.716       14.431        5.807      415.318      102.226        0.061      345.564       23.181      853.409
09/17/2013  13:44:00     -412.950     -177.074       -2.268      255.383      214.100      109.456    65220.456    45838.858    11980.512       16.244        6.152      449.314      125.946        0.079      345.599       23.242      853.461
09/17/2013  13:45:00     -394.243     -229.720       11.918      289.022      200.387      133.356    83533.785    40155.063    17783.921       17.488        7.074      456.288      154.621        0.115      345.560       23.176      853.429
09/17/2013  13:46:00     -453.434     -292.949       18.090      271.399      230.774      123.256    73657.343    53256.675    15192.022       21.690        7.105      539.835      145.819        0.073      345.434       22.957      853.498
09/17/2013  13:47:00     -336.832     -222.448        6.419      318.296      194.486       99.817   101312.389    37824.800     9963.422       15.601        7.455      403.657      129.104        0.102      345.394       22.889      853.445
09/17/2013  13:48:00     -435.470      -62.228       -6.727      271.156      201.071      102.326    73525.694    40429.379    10470.575       15.896        6.221      439.894      116.710        0.070      345.428       22.948      853.413
09/17/2013  13:49:00     -478.553     -153.587       -7.238      226.147      169.522      107.293    51142.494    28737.552    11511.797       17.201        4.570      502.596      113.050        0.051      345.428       22.947      853.417
09/17/2013  13:50:00     -259.946     -181.621        6.363      239.589      196.547      108.311    57402.786    38630.879    11731.287       10.416        5.388      317.109      135.277        0.182      345.576       23.202      853.418
09/17/2013  13:51:00     -434.303     -207.862      -21.919      184.223      168.356       73.370    33938.045    28343.814     5383.108       14.997        3.383      481.483       87.053        0.033      345.469       23.018      853.391
09/17/2013  13:52:00     -382.999     -164.793      -16.733      187.028      176.258       99.267    34979.335    31066.908     9853.886       12.500        3.795      416.948       99.059        0.056      345.765       23.527      853.403
09/17/2013  13:53:00     -367.879     -293.763      -16.663      269.826      183.736      117.654    72806.015    33758.783    13842.472       17.113        6.020      470.778      134.845        0.082      345.445       22.977      853.466
09/17/2013  13:54:00     -410.601     -286.585      -33.292      214.966      205.997       88.756    46210.324    42434.725     7877.671       17.416        4.826      500.724       78.844        0.025      345.353       22.819      853.343
09/17/2013  13:55:00     -402.843      -96.751      -19.586      300.438      183.198      100.814    90263.263    33561.402    10163.536       15.298        6.699      414.299      121.918        0.087      345.662       23.349      853.442
09/17/2013  13:56:00     -565.873        7.841      -15.336      359.685      223.808      125.325   129373.043    50090.079    15706.479       25.780        9.758      565.927      146.683        0.067      345.387       22.877      853.406
09/17/2013  13:57:00     -519.324     -291.657        2.979      290.047      238.131      126.915    84127.276    56706.422    16107.494       25.582        7.847      595.619      154.697        0.067      345.258       22.655      853.364
09/17/2013  13:58:00     -867.109     -190.794      -35.261      433.793      280.067      123.684   188176.523    78437.349    15297.733       53.566       14.096      887.852      159.533        0.032      345.206       22.568      853.329
09/17/2013  13:59:00     -717.740     -253.379       -9.388      351.162      298.023      128.836   123314.620    88817.416    16598.675       40.404       11.437      761.151      152.158        0.040      345.234       22.617      853.351
09/17/2013  14:00:00     -643.883     -137.974      -26.389      276.812      232.331      116.526    76624.868    53977.817    13578.327       28.922        7.209      658.500      118.164        0.032      345.463       23.007      853.484
09/17/2013  14:01:00     -444.614     -343.490        9.614      265.546      227.590      132.619    70514.549    51796.994    17587.730       22.780        6.995      561.843      137.645        0.060      345.271       22.679      853.564
09/17/2013  14:02:00     -437.573     -259.251       -4.311      233.637      173.963       94.368    54586.165    30263.246     8905.334       17.621        4.688      508.608      109.731        0.047      345.085       22.361      853.589
09/17/2013  14:03:00     -417.325     -214.322        4.934      264.508      212.041      106.760    69964.395    44961.206    11397.594       17.320        6.316      469.142      115.441        0.061      345.204       22.565      853.513
09/17/2013  14:04:00     -340.452     -260.649        1.339      252.481      177.145      108.213    63746.572    31380.487    11710.155       14.532        5.342      428.772      118.621        0.077      345.432       22.954      853.529
09/17/2013  14:05:00     -254.296     -256.266        6.581      175.525      140.340       94.455    30809.138    19695.209     8921.811        9.489        2.971      361.024       96.967        0.072      345.256       22.652      853.535
09/17/2013  14:06:00     -333.882     -246.757        2.788      252.971      241.941      130.752    63994.447    58535.323    17095.971       15.597        6.981      415.170      156.399        0.142      345.346       22.808      853.433
09/17/2013  14:07:00     -559.438     -288.219      -17.045      258.426      252.686      110.300    66783.989    63850.012    12166.032       26.954        7.140      629.319      110.543        0.031      345.322       22.765      853.508
09/17/2013  14:08:00     -275.893     -237.880       -2.938      196.559      178.024       89.129    38635.513    31692.369     7944.062       10.548        3.914      364.285       88.175        0.059      345.410       22.917      853.585
09/17/2013  14:09:00     -422.950      -73.059       -0.926      208.766      182.295       95.815    43583.354    33231.402     9180.609       13.509        4.300      429.214       87.225        0.041      345.402       22.902      853.596
09/17/2013  14:10:00     -517.714      -65.517      -33.545      268.370      235.662      111.947    72022.353    55536.707    12532.047       20.674        7.005      521.843      135.653        0.068      345.170       22.505      853.542
09/17/2013  14:11:00     -535.506     -254.439      -30.026      203.945      175.958       85.935    41593.592    30961.087     7384.869       21.616        3.997      592.879       89.351        0.023      345.160       22.488      853.524
09/17/2013  14:12:00     -598.789     -280.752      -38.172      251.191      201.295      115.174    63096.783    40519.699    13265.039       27.783        5.844      661.339      121.532        0.034      345.271       22.678      853.488
09/17/2013  14:13:00     -339.931     -335.490       10.888      247.302      237.724       92.585    61158.321    56512.639     8572.058       17.721        6.312      477.605      103.593        0.047      345.329       22.779      853.506
09/17/2013  14:14:00     -645.708     -125.595      -32.579      335.519      214.930      114.103   112573.266    46194.932    13019.480       30.275        8.589      657.809      164.487        0.063      345.152       22.475      853.544
09/17/2013  14:15:00     -470.899     -148.526        7.291      272.277      216.197      121.176    74134.539    46741.095    14683.542       18.968        6.778      493.766      130.643        0.070      345.384       22.872      853.560
09/17/2013  14:16:00     -362.174     -309.611        1.952      262.520      225.272      115.053    68916.666    50747.452    13237.188       17.994        6.645      476.476      136.322        0.082      345.307       22.740      853.571
09/17/2013  14:17:00     -352.658     -328.668       -1.711      218.467      186.702       98.167    47727.983    34857.551     9636.765       16.229        4.611      482.068      115.440        0.057      345.243       22.632      853.590
09/17/2013  14:18:00     -468.949      -30.210      -15.853      173.374      204.566       87.595    30058.610    41847.184     7672.853       15.031        3.979      469.921       84.200        0.032      345.314       22.752      853.612
09/17/2013  14:19:00     -520.769     -203.808      -35.979      369.428      215.590      124.839   136476.850    46479.228    15584.868       25.625        9.927      559.229      179.409        0.103      345.172       22.509      853.561
09/17/2013  14:20:00     -434.173     -220.523      -18.801      228.737      181.981       86.158    52320.419    33117.219     7423.193       16.516        4.643      486.967      100.045        0.042      345.231       22.610      853.557
09/17/2013  14:21:00     -245.943     -120.168       12.851      227.768      160.204      102.055    51878.349    25665.219    10415.305        8.151        4.398      273.731      125.158        0.209      345.421       22.935      853.583
09/17/2013  14:22:00     -306.738     -205.844       10.025      253.443      178.442      114.514    64233.468    31841.575    13113.527       12.285        5.459      369.404      130.535        0.125      345.320       22.762      853.588
09/17/2013  14:23:00     -455.522     -205.316        4.903      239.857      190.396      106.370    57531.454    36250.543    11314.656       17.737        5.255      499.655      107.577        0.046      345.245       22.635      853.563
09/17/2013  14:24:00     -552.783     -376.797      -22.639      255.500      196.743      118.756    65280.402    38707.884    14102.959       28.305        5.905      668.988      129.549        0.037      345.097       22.381      853.588
09/17/2013  14:25:00     -447.834      -28.214      -12.563      330.857      165.943      112.339   109466.291    27537.074    12620.053       17.554        7.481      448.721      150.672        0.113      345.131       22.439      853.645
09/17/2013  14:26:00     -196.093     -229.892       25.581      207.384      158.891       98.841    43008.136    25246.334     9769.445        8.497        3.901      302.164      108.207        0.128      345.155       22.479      853.652
09/17/2013  14:27:00     -299.270     -199.101       -2.478      192.575      172.341       94.340    37085.174    29701.394     8900.066       10.243        3.784      359.449       97.752        0.074      345.025       22.258      853.617
09/17/2013  14:28:00     -421.056     -302.412       -2.556      208.018      185.770      116.985    43271.359    34510.557    13685.502       18.009        4.573      518.403      119.575        0.053      345.065       22.326      853.661
09/17/2013  14:29:00     -498.541     -322.860       -4.005      229.808      173.575      101.429    52811.902    30128.247    10287.770       22.299        4.661      593.955      111.708        0.035      344.932       22.097      853.672
09/17/2013  14:30:00     -582.269     -410.897      -19.947      246.977      201.570      132.488    60997.684    40630.650    17553.044       31.370        5.959      712.652      113.776        0.025      344.859       21.972      853.664
09/17/2013  14:31:00     -308.041     -137.379       -7.860      189.262      106.161       81.775    35820.243    11270.112     6687.228        8.379        2.689      337.286       93.618        0.077      344.928       22.091      853.645
09/17/2013  14:32:00     -269.915      -40.434       -3.838      181.205      100.498       58.257    32835.403    10099.947     3393.830        6.041        2.316      272.927       72.168        0.070      345.191       22.544      853.655
09/17/2013  14:33:00     -403.421       36.996      -19.157      250.875      196.279       87.251    62938.094    38525.337     7612.711       13.676        5.454      405.114       94.032        0.054      345.312       22.748      853.652
09/17/2013  14:34:00     -224.410     -162.016       22.698      194.159      135.533       84.018    37697.628    18369.086     7059.011        7.011        3.156      276.783       94.623        0.117      345.346       22.808      853.652
09/17/2013  14:35:00     -328.191      -31.480       -4.257      167.440      145.521       79.910    28036.014    21176.449     6385.534        8.215        2.780      329.697       77.269        0.055      345.444       22.974      853.631
09/17/2013  14:36:00     -185.229     -125.334       15.410      167.689      105.195       69.673    28119.466    11065.893     4854.355        4.714        2.202      223.648       76.560        0.117      345.580       23.209      853.647
09/17/2013  14:37:00     -339.615     -176.695      -20.365      211.849      125.679       90.499    44879.799    15795.116     8190.096       10.791        3.443      382.831       81.497        0.045      345.352       22.818      853.668
09/17/2013  14:38:00     -475.811     -222.068      -12.748      228.320      150.667       86.894    52130.208    22700.692     7550.628       17.911        4.119      525.081       98.095        0.035      345.340       22.797      853.670
09/17/2013  14:39:00     -557.068     -362.729      -36.706      250.381      185.134      116.404    62690.530    34274.547    13549.958       27.686        5.526      664.754      127.204        0.037      345.101       22.386      853.673
09/17/2013  14:40:00     -403.103     -278.975        2.445      262.420      215.968      107.326    68864.195    46642.372    11518.774       18.365        6.351      490.223      121.563        0.061      345.099       22.384      853.682
09/17/2013  14:41:00     -495.359     -118.810      -29.441      231.011      208.354       98.468    53366.029    43411.251     9695.881       18.340        5.324      509.407      106.216        0.043      345.138       22.451      853.665
09/17/2013  14:42:00     -281.312      -69.545       -1.177      117.973      157.224       79.383    13917.591    24719.243     6301.617        6.445        2.247      289.781       68.801        0.056      345.397       22.894      853.672
09/17/2013  14:43:00     -404.975     -212.078      -25.786      214.929      136.133       80.940    46194.402    18532.127     6551.248       14.045        3.564      457.145      100.760        0.049      345.309       22.744      853.689
09/17/2013  14:44:00     -426.863     -318.754        8.195      239.399      228.964      106.048    57311.916    52424.584    11246.109       20.241        6.049      532.744      110.479        0.043      345.213       22.580      853.659
09/17/2013  14:45:00     -464.397     -277.200       -8.401      251.651      171.987      110.812    63328.269    29579.507    12279.236       19.886        5.259      540.837      115.050        0.045      345.243       22.629      853.666
09/17/2013  14:46:00     -404.509      -80.907      -12.579      270.775      148.769       92.124    73319.313    22132.310     8486.746       13.711        5.197      412.521      122.612        0.088      345.324       22.771      853.705
09/17/2013  14:47:00     -460.281     -196.645       -3.396      242.540      212.306       96.879    58825.745    45073.637     9385.611       18.189        5.664      500.527      103.311        0.043      345.123       22.426      853.664
09/17/2013  14:48:00     -550.039     -311.058      -23.358      280.285      205.942      108.403    78559.770    42412.129    11751.167       26.626        6.636      631.902      137.258        0.047      345.030       22.266      853.610
09/17/2013  14:49:00     -250.411     -162.963        7.544      150.375      162.343       84.203    22612.594    26355.211     7090.210        7.268        2.803      298.768       93.630        0.098      345.252       22.647      853.638
09/17/2013  14:50:00     -245.119      -68.990        1.902      175.059       96.986       63.396    30645.568     9406.307     4019.075        5.445        2.204      254.643       70.336        0.076      345.579       23.208      853.664
09/17/2013  14:51:00     -328.773     -217.776       23.788      222.930      175.610       92.663    49697.674    30838.923     8586.345       12.259        4.456      394.358       82.106        0.043      345.338       22.794      853.693
09/17/2013  14:52:00     -466.093     -339.001      -13.125      292.608      184.784      130.483    85619.529    34145.256    17025.907       23.454        6.840      576.337      161.355        0.078      344.968       22.161      853.690
09/17/2013  14:53:00     -467.333     -295.774      -10.444      190.285      203.810      100.207    36208.378    41538.708    10041.430       19.687        4.389      553.066      105.405        0.036      344.869       21.990      853.660
09/17/2013  14:54:00     -531.358     -239.022      -18.564      266.552      208.804       99.333    71049.946    43599.116     9867.022       23.214        6.226      582.643      111.824        0.037      344.964       22.154      853.689
09/17/2013  14:55:00     -500.508     -182.476       -5.524      276.404      189.299      100.039    76399.314    35834.256    10007.783       20.301        6.112      532.735      126.574        0.056      345.119       22.418      853.640
09/17/2013  14:56:00     -763.367     -277.671      -35.304      314.807      242.738      146.208    99103.196    58921.893    21376.829       42.020        8.970      812.300      146.448        0.033      344.911       22.062      853.641
09/17/2013  14:57:00     -542.283     -229.548      -32.801      287.695      263.841      138.013    82768.308    69612.315    19047.598       25.960        8.571      588.866      151.086        0.066      344.918       22.074      853.668
09/17/2013  14:58:00     -374.067     -136.756       -6.680      269.484      201.944      109.838    72621.543    40781.512    12064.411       14.205        6.273      398.282      142.453        0.128      345.007       22.227      853.734
09/17/2013  14:59:00     -445.882      -96.458      -19.685      288.336      195.850      115.977    83137.497    38357.208    13450.780       17.170        6.747      456.196      125.870        0.076      344.897       22.038      853.730
09/17/2013  15:00:00     -329.919     -147.282        2.871      245.428      190.462       93.964    60235.065    36275.957     8829.302       11.792        5.267      361.301      111.870        0.096      345.079       22.350      853.728
09/17/2013  15:01:00     -432.298     -101.251      -22.038      192.143      185.544       85.986    36918.988    34426.633     7393.544       13.816        3.937      443.997       79.157        0.032      345.066       22.329      853.747
09/17/2013  15:02:00     -450.095     -131.785       -9.101      268.877      193.446      119.699    72294.801    37421.460    14327.870       17.201        6.202      468.991      133.799        0.081      345.006       22.224      853.768
09/17/2013  15:03:00     -450.874     -204.170       -1.353      229.512      168.362      105.010    52675.840    28345.743    11027.175       16.849        4.602      494.947      123.064        0.062      344.888       22.022      853.776
09/17/2013  15:04:00     -401.146     -138.476       14.397      290.386      196.847      117.193    84324.243    38748.759    13734.251       15.853        6.840      424.375      116.673        0.076      345.017       22.244      853.761
09/17/2013  15:05:00     -462.001     -266.167      -25.343      243.808      141.982       86.243    59442.440    20158.794     7437.874       18.597        4.352      533.189       91.874        0.030      344.748       21.784      853.735
09/17/2013  15:06:00     -583.091     -403.530      -18.238      202.734      184.271      115.767    41101.056    33955.933    13401.927       29.579        4.423      709.106      110.550        0.024      344.821       21.908      853.701
09/17/2013  15:07:00     -527.250     -282.272      -21.246      261.235      237.832       98.845    68243.948    56563.882     9770.355       24.632        6.729      598.055      112.751        0.036      344.793       21.861      853.730
09/17/2013  15:08:00     -347.725       14.510       -4.393      224.529      202.455      106.579    50413.084    40987.957    11359.143       11.193        5.138      348.028      111.228        0.102      345.198       22.554      853.720
09/17/2013  15:09:00     -457.076     -104.909      -21.032      241.687      177.297      101.956    58412.486    31434.369    10395.005       16.028        5.012      468.960      114.604        0.060      345.092       22.372      853.706
09/17/2013  15:10:00     -484.729     -296.798      -29.737      291.588      223.183      117.593    85023.386    49810.814    13828.082       23.627        7.433      568.376      125.165        0.048      345.060       22.317      853.669
09/17/2013  15:11:00     -341.470     -227.131        0.253      301.099      240.006      128.412    90660.424    57602.657    16489.660       16.644        8.238      410.110      138.275        0.114      345.162       22.494      853.635
09/17/2013  15:12:00     -503.727     -163.561       -4.642      221.370      206.533      110.007    49004.891    42655.845    12101.537       19.212        5.188      529.616      132.363        0.062      345.082       22.354      853.656
09/17/2013  15:13:00     -548.210     -248.397       -6.767      347.319      245.774      134.741   120630.332    60405.096    18155.148       28.070        9.960      601.860      168.192        0.078      344.962       22.150      853.747
09/17/2013  15:14:00     -761.014     -153.691      -40.651      399.701      228.713      150.570   159760.839    52309.779    22671.312       41.953       11.737      776.378      185.645        0.057      344.768       21.818      853.770
09/17/2013  15:15:00     -543.580      -82.086      -26.317      268.929      190.370      103.067    72322.626    36240.868    10622.756       21.102        5.959      549.743      112.239        0.042      344.756       21.798      853.720
09/17/2013  15:16:00     -735.273     -131.778      -11.572      329.249      245.882      121.913   108405.117    60457.951    14862.862       37.089        9.186      746.989      142.594        0.036      344.761       21.806      853.672
09/17/2013  15:17:00     -429.537     -146.305        1.802      306.272      237.235      132.137    93802.345    56280.252    17460.257       18.669        8.377      453.770      148.450        0.107      344.906       22.052      853.655
09/17/2013  15:18:00     -390.950      -63.722        7.957      320.289      221.123      111.555   102585.090    48895.463    12444.570       16.041        8.196      396.109      144.563        0.133      345.047       22.295      853.655
09/17/2013  15:19:00     -450.311     -276.244      -15.126      236.099      189.811       97.015    55742.841    36028.397     9411.840       19.023        5.059      528.290      103.120        0.038      344.945       22.120      853.750
09/17/2013  15:20:00     -315.072     -114.138       39.224      362.206      182.479      128.604   131193.111    33298.615    16539.065       14.740        9.052      335.109      174.113        0.270      344.880       22.008      853.763
09/17/2013  15:21:00     -661.940     -171.908      -28.585      242.932      216.922      108.006    59016.157    47055.274    11665.207       29.311        5.887      683.899      108.135        0.025      344.743       21.776      853.748
09/17/2013  15:22:00     -579.248      -87.115      -24.320      306.645      274.671      123.301    94030.976    75444.179    15203.198       26.416        9.234      585.763      137.013        0.055      344.740       21.768      853.721
09/17/2013  15:23:00     -580.638      -37.710      -34.667      259.266      213.835      106.095    67219.105    45725.286    11256.062       23.196        6.210      581.862      127.078        0.048      344.928       22.091      853.783
09/17/2013  15:24:00     -466.188      -33.342       -1.438      227.563      188.556       96.247    51784.752    35553.493     9263.469       15.750        4.830      467.379       89.780        0.037      345.065       22.327      853.836
09/17/2013  15:25:00     -535.064     -123.874       -5.553      261.202      197.826      101.043    68226.386    39134.941    10209.713       20.960        5.879      549.216      104.663        0.036      344.965       22.156      853.800
09/17/2013  15:26:00     -658.450     -216.839      -35.889      299.520      257.460      130.816    89712.478    66285.566    17112.835       32.745        8.656      693.236      109.409        0.025      344.740       21.771      853.815
09/17/2013  15:27:00     -556.826     -107.268      -39.650      243.259      181.750       98.847    59174.855    33033.182     9770.645       21.254        5.099      567.064      114.416        0.041      344.932       22.097      853.837
09/17/2013  15:28:00     -678.011      -63.538      -46.760      268.981      247.064      102.398    72350.772    61040.513    10485.266       30.487        7.194      680.981      124.983        0.034      344.782       21.842      853.813
09/17/2013  15:29:00     -662.960     -219.160      -14.672      308.114      209.983      112.655    94934.270    44092.922    12691.116       31.971        7.586      698.246      121.386        0.030      344.706       21.711      853.799
09/17/2013  15:30:00     -594.810     -146.713      -34.987      244.641      159.478       97.727    59849.407    25433.195     9550.470       23.567        4.742      612.636       78.288        0.016      344.720       21.737      853.808
09/17/2013  15:31:00     -206.796      -86.328        6.913      169.769      117.833       70.572    28821.449    13884.606     4980.448        4.897        2.384      224.092       86.678        0.150      345.163       22.495      853.794
09/17/2013  15:32:00     -530.383     -122.813      -32.578      209.794      201.663       90.368    44013.685    40668.031     8166.339       19.513        4.642      544.417       82.851        0.023      344.821       21.908      853.829
09/17/2013  15:33:00     -740.140     -159.576      -36.642      376.868      232.673      125.469   142029.415    54136.820    15742.553       39.322       10.595      757.147      158.504        0.044      344.789       21.854      853.760
09/17/2013  15:34:00     -632.383     -288.278      -13.726      384.755      249.394      138.075   148036.789    62197.212    19064.734       35.620       11.465      694.991      171.297        0.061      344.701       21.704      853.810
09/17/2013  15:35:00     -415.773     -265.498        9.823      298.500      257.812      141.587    89102.365    66466.851    20046.889       20.950        8.781      493.311      168.976        0.117      344.702       21.706      853.843
09/17/2013  15:36:00     -404.071      -14.440       -0.792      213.172      123.229       90.279    45442.510    15185.305     8150.257       11.612        3.439      404.329      103.367        0.065      344.947       22.125      853.898
09/17/2013  15:37:00     -678.340     -221.443      -18.680      354.881      295.343      133.146   125940.705    87227.529    17727.930       37.017       11.545      713.570      169.592        0.056      344.760       21.804      853.893
09/17/2013  15:38:00     -379.519     -172.943       -5.609      245.891      207.225      103.302    60462.292    42942.043    10671.258       14.400        5.704      417.066      113.084        0.074      344.850       21.959      853.927
09/17/2013  15:39:00     -654.773     -238.352      -23.928      349.505      252.356      129.371   122153.807    63683.720    16736.844       34.430       10.129      696.806      145.139        0.043      344.671       21.651      853.913
09/17/2013  15:40:00     -273.074     -208.575       13.877      257.381      190.538      139.400    66244.908    36304.850    19432.395       12.010        6.099      343.618      152.309        0.196      344.805       21.881      853.907
09/17/2013  15:41:00     -219.903      -19.951       10.052      216.779      140.758       83.931    46993.152    19812.887     7044.408        6.134        3.693      220.807       97.846        0.196      344.998       22.213      853.909
09/17/2013  15:42:00     -754.631     -210.617      -38.289      289.516      308.337      116.216    83819.678    95071.792    13506.266       40.381        9.620      783.472      130.545        0.028      344.754       21.794      853.877
09/17/2013  15:43:00     -735.942     -374.648      -38.251      395.479      243.458      158.765   156404.003    59271.555    25206.197       46.211       12.044      825.816      187.724        0.052      344.676       21.659      853.900
09/17/2013  15:44:00     -704.691     -192.257      -63.238      442.593      235.660      126.850   195888.918    55535.576    16090.882       40.248       13.376      730.446      175.313        0.058      344.620       21.565      853.949
09/17/2013  15:45:00     -650.270     -174.032      -15.777      276.675      180.729      110.859    76549.237    32662.911    12289.715       28.742        6.075      673.155      137.917        0.042      344.521       21.395      854.006
09/17/2013  15:46:00     -466.645     -132.961      -17.815      199.511      148.457       83.390    39804.614    22039.372     6953.900       15.226        3.440      485.218       92.073        0.036      344.720       21.735      854.094
09/17/2013  15:47:00     -326.183      -44.976      -17.806      239.898      139.469       75.068    57551.165    19451.679     5635.154        9.567        4.132      329.269       70.130        0.045      344.551       21.447      854.079
09/17/2013  15:48:00     -271.579      -23.068       17.204      262.491      119.123       80.410    68901.270    14190.333     6465.764        8.205        4.478      272.557      112.859        0.171      345.029       22.265      854.102
09/17/2013  15:49:00     -351.173     -142.245        1.543      170.037      155.678       81.440    28912.421    24235.578     6632.463       10.166        2.989      378.888       89.956        0.056      344.977       22.175      854.166
09/17/2013  15:50:00     -453.457     -263.547      -12.554      244.178      159.761       89.982    59622.863    25523.561     8096.716       18.422        4.662      524.481       95.740        0.033      344.531       21.412      854.084
09/17/2013  15:51:00     -461.203     -248.610      -11.389      249.750      232.952      111.415    62375.310    54266.468    12413.336       20.182        6.453      523.942      115.698        0.049      344.657       21.627      854.112
09/17/2013  15:52:00     -783.579     -225.025      -25.684      305.462      226.195      115.361    93306.890    51164.126    13308.152       41.150        7.889      815.250      129.406        0.025      344.637       21.593      854.123
09/17/2013  15:53:00     -678.922     -154.512      -11.402      332.346      223.259      126.212   110453.805    49844.750    15929.367       33.055        8.811      696.282      131.230        0.036      344.554       21.452      854.059
09/17/2013  15:54:00     -419.899     -203.810      -13.148      240.643      166.150       92.291    57909.052    27605.696     8517.603       15.601        4.702      466.747      120.792        0.067      344.666       21.643      854.100
09/17/2013  15:55:00     -498.106     -196.343      -18.868      262.169      209.045       94.359    68732.771    43699.702     8903.691       20.415        6.067      535.406      101.870        0.036      344.637       21.593      854.109
09/17/2013  15:56:00     -391.866      -94.982       -9.162      286.862      260.662      106.360    82290.083    67944.665    11312.367       16.207        8.077      403.213      102.218        0.064      344.850       21.959      854.085
09/17/2013  15:57:00     -423.856     -188.313       13.227      340.704      236.861      121.088   116079.103    56103.333    14662.273       20.103        9.342      463.806      167.719        0.131      344.757       21.799      854.140
09/17/2013  15:58:00     -672.458     -114.106      -42.219      342.676      220.460      117.427   117426.923    48602.660    13789.042       32.337        8.991      682.070      144.621        0.045      344.624       21.572      854.168
09/17/2013  15:59:00     -568.618     -147.094      -31.802      394.604      200.043      128.454   155712.104    40017.094    16500.512       27.906       10.611      587.336      176.744        0.091      344.545       21.437      854.219
09/17/2013  16:00:00     -393.435      -71.159      -13.849      300.643      222.468      106.306    90386.173    49491.790    11300.930       15.558        7.559      399.819      120.264        0.090      344.632       21.584      854.173
09/17/2013  16:01:00     -513.952     -100.162      -47.713      182.329      184.748       83.685    33243.789    34131.951     7003.246       17.540        3.719      523.621       55.356        0.011      344.646       21.607      854.151
09/17/2013  16:02:00     -230.477     -107.120       19.120      207.074      143.995       98.105    42879.674    20734.465     9624.559        6.908        3.662      254.155       96.027        0.143      344.891       22.029      854.187
09/17/2013  16:03:00     -316.663     -198.431      -21.668      151.650      139.901       71.058    22997.775    19572.245     5049.184        9.386        2.381      373.698       72.357        0.037      344.917       22.073      854.228
09/17/2013  16:04:00     -533.731     -223.869       -1.397      254.062      193.612      101.766    64547.515    37485.796    10356.378       22.367        5.619      578.780      127.451        0.048      344.747       21.781      854.286
09/17/2013  16:05:00     -271.849     -182.545       22.348      251.605      194.472      118.345    63305.163    37819.471    14005.579       11.140        5.757      327.452      143.405        0.192      344.752       21.792      854.199
09/17/2013  16:06:00     -388.806     -133.184       13.572      301.078      260.723      118.214    90647.923    67976.280    13974.511       17.081        8.630      410.984      132.924        0.105      344.720       21.736      854.213
09/17/2013  16:07:00     -563.225     -428.399       -8.900      308.675      220.551      137.289    95280.168    48642.528    18848.146       33.177        8.139      707.635      170.402        0.058      344.472       21.310      854.223
09/17/2013  16:08:00     -545.739     -250.486      -11.950      287.743      228.211      125.312    82795.930    52080.344    15703.104       25.562        7.529      600.479      156.027        0.068      344.472       21.311      854.231
09/17/2013  16:09:00     -386.133     -149.341        4.648      265.593      186.889      102.712    70539.720    34927.678    10549.830       14.370        5.801      414.007      133.190        0.103      344.573       21.486      854.290
09/17/2013  16:10:00     -852.370      -92.473      -70.182      257.956      251.209      122.743    66541.147    63106.019    15065.943       44.233        7.236      857.372      121.328        0.020      344.375       21.145      854.291
09/17/2013  16:11:00     -451.599     -180.041      -11.582      212.151      180.613      105.118    45008.131    32621.081    11049.783       16.257        4.434      486.165      103.670        0.045      344.496       21.352      854.256
09/17/2013  16:12:00     -379.090      -42.515      -22.385      213.686      119.478       79.685    45661.793    14274.918     6349.627       10.614        3.314      381.467       81.161        0.045      344.505       21.367      854.185
09/17/2013  16:13:00     -510.188     -217.898      -33.927      380.123      237.967       86.692   144493.233    56628.437     7515.464       25.874       10.432      554.772      136.529        0.061      344.705       21.712      854.195
09/17/2013  16:14:00     -528.513     -217.068      -25.223      254.752      233.817      115.549    64898.758    54670.393    13351.467       22.997        6.646      571.354      116.945        0.042      344.516       21.387      854.188
09/17/2013  16:15:00     -529.809     -318.483      -26.228      291.716      220.209      109.879    85098.086    48492.206    12073.414       26.421        7.283      618.166      122.444        0.039      344.548       21.442      854.207
09/17/2013  16:16:00     -443.548     -116.742       -7.187      265.268      199.494      107.413    70366.868    39797.778    11537.640       16.603        6.085      458.654      129.716        0.080      344.642       21.602      854.213
09/17/2013  16:17:00     -384.884     -165.252       -7.842      189.820      162.626       83.699    36031.470    26447.248     7005.593       12.248        3.474      418.860       73.470        0.031      344.582       21.500      854.220
09/17/2013  16:18:00     -187.558       21.186       16.655      214.885      136.742       85.952    46175.387    18698.303     7387.664        5.407        3.613      188.750      108.257        0.329      344.868       21.991      854.206
09/17/2013  16:19:00     -602.631     -203.464      -15.356      350.755      234.039      132.099   123029.116    54774.366    17450.182       29.999        9.763      636.052      151.831        0.057      344.598       21.527      854.157
09/17/2013  16:20:00     -686.625     -202.320      -25.688      312.977      227.581      120.466    97954.596    51793.027    14512.149       33.862        8.213      715.812      133.218        0.035      344.540       21.427      854.126
09/17/2013  16:21:00     -473.438     -122.858        0.445      263.232      243.277      115.003    69290.831    59183.731    13225.609       19.044        7.085      489.119      122.147        0.062      344.630       21.582      854.196
09/17/2013  16:22:00     -664.964     -155.205      -49.280      306.292      224.709      123.631    93814.625    50494.250    15284.546       31.411        7.980      682.836      142.357        0.043      344.507       21.371      854.227
09/17/2013  16:23:00     -561.577       47.063      -34.647      291.639      199.905      122.156    85053.233    39962.100    14922.016       22.933        6.997      563.545      137.169        0.059      344.604       21.536      854.247
09/17/2013  16:24:00     -517.976     -170.239      -16.569      264.517      227.644      113.673    69969.460    51821.630    12921.610       21.611        6.736      545.234      127.234        0.054      344.555       21.454      854.255
09/17/2013  16:25:00     -608.565     -163.894      -31.422      243.158      185.217      109.917    59125.792    34305.415    12081.700       25.183        5.276      630.248      117.964        0.035      344.393       21.176      854.293
09/17/2013  16:26:00     -474.874     -207.040        2.707      275.807      211.728      118.913    76069.474    44828.725    14140.198       20.168        6.752      518.045      139.666        0.073      344.454       21.280      854.293
09/17/2013  16:27:00     -501.155      -57.164      -14.748      246.285      186.670       91.932    60656.519    34845.830     8451.468       17.928        5.198      504.404       97.237        0.037      344.560       21.462      854.346
09/17/2013  16:28:00     -603.786     -106.048      -25.626      256.143      286.561      110.927    65609.072    82117.092    12304.843       26.821        8.002      613.028      114.870        0.035      344.405       21.198      854.296
09/17/2013  16:29:00     -742.287     -142.844      -28.274      256.991      172.469      115.268    66044.333    29745.497    13286.779       34.061        5.454      755.906      121.452        0.026      344.256       20.942      854.277
09/17/2013  16:30:00     -520.505      -68.536      -27.543      213.249      211.035      107.629    45475.201    44535.659    11583.931       18.897        5.080      524.998      103.400        0.039      344.365       21.127      854.269
09/17/2013  16:31:00     -624.849     -157.148      -33.559      321.522      294.230      119.387   103376.103    86571.483    14253.351       31.019       10.210      644.308      126.418        0.038      344.460       21.291      854.239
09/17/2013  16:32:00     -544.831      -68.191      -10.828      217.637      213.848      105.068    47365.759    45730.920    11039.184       20.285        5.207      549.082       96.572        0.031      344.410       21.204      854.270
09/17/2013  16:33:00     -759.281     -214.071      -56.759      298.435      203.005      128.538    89063.376    41210.922    16522.106       38.615        7.340      788.882      148.074        0.035      344.288       20.998      854.253
09/17/2013  16:34:00     -692.553        0.601      -36.282      313.644      206.967      106.768    98372.557    42835.391    11399.347       31.675        7.630      692.553      137.570        0.039      344.387       21.167      854.257
09/17/2013  16:35:00     -504.698     -165.582        6.962      239.660      205.547      113.546    57436.843    42249.571    12892.642       19.736        5.629      531.166      128.865        0.059      344.374       21.145      854.280
09/17/2013  16:36:00     -479.966     -123.505       -4.977      243.820      160.784       85.445    59447.997    25851.361     7300.902       16.910        4.630      495.601       86.694        0.031      344.437       21.251      854.286
09/17/2013  16:37:00     -279.585     -220.279       13.544      275.559      236.931      116.461    75932.791    56136.476    13563.094       13.622        7.282      355.937      134.790        0.143      344.579       21.496      854.372
09/17/2013  16:38:00     -467.412     -205.005       -7.087      240.802      192.465      107.890    57985.663    37042.903    11640.289       18.359        5.333      510.393      120.794        0.056      344.422       21.225      854.395
09/17/2013  16:39:00     -575.720      -47.846      -27.342      332.329      160.552      102.501   110442.267    25777.037    10506.550       24.058        7.336      577.705      130.907        0.051      344.467       21.305      854.405
09/17/2013  16:40:00     -629.413     -123.698      -51.792      253.689      239.785      101.804    64357.997    57496.997    10363.953       27.316        6.611      641.453      116.841        0.033      344.269       20.965      854.397
09/17/2013  16:41:00     -469.247     -133.251      -25.996      198.090      187.219       92.875    39239.525    35050.872     8625.776       16.075        4.146      487.799       96.831        0.039      344.310       21.034      854.405
09/17/2013  16:42:00     -284.432     -140.444       -2.636      174.670      114.920       78.353    30509.614    13206.590     6139.253        7.523        2.493      317.216       91.085        0.082      344.465       21.301      854.430
09/17/2013  16:43:00     -527.863     -220.395       -7.386      285.871      211.196      118.636    81722.271    44603.672    14074.595       23.381        7.020      572.025      130.608        0.052      344.307       21.030      854.413
09/17/2013  16:44:00     -518.678     -131.331      -18.731      280.817      250.757      105.447    78858.045    62878.912    11119.082       21.971        7.643      535.046      125.723        0.055      344.203       20.851      854.401
09/17/2013  16:45:00     -431.533     -136.954       -4.363      259.871      209.088      109.127    67533.172    43717.829    11908.670       16.405        6.158      452.744      121.336        0.072      344.365       21.129      854.357
09/17/2013  16:46:00     -601.401     -184.008      -14.686      234.764      206.558      103.573    55113.967    42666.077    10727.348       25.211        5.425      628.922       99.446        0.025      344.325       21.059      854.332
09/17/2013  16:47:00     -666.767     -147.693      -41.433      339.470      215.683      107.489   115239.606    46519.342    11553.837       32.068        8.666      682.929      146.552        0.046      344.314       21.041      854.362
09/17/2013  16:48:00     -663.458     -105.464      -17.428      298.266      258.691      127.558    88962.327    66921.128    16271.148       31.184        8.608      671.788      135.224        0.041      344.291       21.001      854.389
09/17/2013  16:49:00     -489.476     -128.066        0.832      251.936      176.628       97.027    63471.895    31197.595     9414.204       18.002        5.204      505.952      102.880        0.041      344.376       21.147      854.504
09/17/2013  16:50:00     -538.522     -124.946      -14.708      308.874      156.831       94.103    95403.172    24595.983     8855.446       21.732        6.443      552.827      102.961        0.035      344.358       21.116      854.515
09/17/2013  16:51:00     -488.397      -37.469      -25.201      260.158      160.355      104.526    67681.993    25713.782    10925.709       17.243        5.216      489.833      124.805        0.065      344.314       21.041      854.479
09/17/2013  16:52:00     -673.440      -88.065      -27.041      208.608      219.453       90.748    43517.222    48159.490     8235.109       28.094        4.996      679.174       86.628        0.016      344.235       20.906      854.509
09/17/2013  16:53:00     -596.952      -80.337      -23.829      299.310      230.898      133.520    89586.480    53313.972    17827.600       26.202        8.036      602.333      165.803        0.076      344.221       20.882      854.479
09/17/2013  16:54:00     -769.673     -201.739      -36.303      279.330      228.525      126.413    78025.503    52223.489    15980.255       39.029        7.311      795.673      128.769        0.026      344.083       20.647      854.476
09/17/2013  16:55:00     -851.540     -272.340      -13.017      320.971      241.131      122.470   103022.699    58144.068    14998.945       48.778        8.808      894.030      126.574        0.020      344.029       20.555      854.425
09/17/2013  16:56:00     -455.225     -157.909        6.159      392.335      299.369      155.097   153926.857    89621.974    24054.986       24.985       13.380      481.835      182.118        0.143      344.098       20.673      854.461
09/17/2013  16:57:00     -448.221     -125.474       -5.119      256.403      232.809      106.015    65742.724    54199.954    11239.138       17.390        6.559      465.452      109.859        0.056      344.217       20.875      854.497
09/17/2013  16:58:00     -796.914     -174.565      -60.870      336.748      230.604      122.713   113399.295    53177.975    15058.370       42.541        9.082      815.809      147.410        0.033      344.082       20.644      854.490
09/17/2013  16:59:00     -641.204     -134.627      -26.643      330.671      248.137      119.921   109343.521    61572.100    14381.003       30.760        9.265      655.184      139.356        0.045      344.079       20.640      854.514
09/17/2013  17:00:00     -774.340     -102.501      -16.806      344.703      229.592      131.856   118820.184    52712.665    17386.117       39.962        9.446      781.095      157.079        0.040      344.018       20.535      854.506
09/17/2013  17:01:00     -355.406      -73.965      -13.424      283.738      192.596      104.974    80507.158    37093.317    11019.457       13.027        6.431      363.021      109.344        0.091      344.210       20.865      854.523
09/17/2013  17:02:00     -345.187      -61.731        2.948      321.712      267.279      127.863   103498.782    71438.170    16348.887       15.709        9.564      350.663      143.010        0.166      344.175       20.804      854.525
09/17/2013  17:03:00     -513.246     -151.386       -7.715      307.108      238.034      129.845    94315.290    56660.283    16859.598       22.708        8.392      535.107      153.949        0.083      344.193       20.835      854.541
09/17/2013  17:04:00     -630.680     -307.509      -50.009      330.450      306.062      161.153   109197.296    93673.835    25970.174       36.179       11.442      701.655      168.989        0.058      344.075       20.633      854.529
09/17/2013  17:05:00     -298.729      -28.840       33.610      199.581      201.348      120.191    39832.429    40541.171    14445.987        9.299        4.741      300.118      113.561        0.143      344.278       20.979      854.521
09/17/2013  17:06:00     -383.872      -70.250       18.405      257.432      247.257      137.059    66271.184    61135.809    18785.189       14.938        7.310      390.247      152.610        0.153      344.176       20.805      854.500
09/17/2013  17:07:00     -466.646     -250.948       14.467      309.406      254.553      127.419    95732.106    64797.028    16235.673       22.882        8.838      529.843      148.153        0.078      344.140       20.744      854.514
09/17/2013  17:08:00     -394.027     -162.601       -0.777      399.187      233.835      148.629   159350.639    54678.703    22090.583       20.886       11.806      426.258      182.608        0.184      344.105       20.685      854.457
09/17/2013  17:09:00     -643.380     -142.717      -32.089      416.977      278.572      144.311   173869.790    77602.416    20825.690       35.376       13.615      659.019      159.581        0.059      343.982       20.474      854.501
09/17/2013  17:10:00     -641.570     -129.270      -35.067      324.961      273.702      122.069   105599.898    74912.516    14900.776       31.244        9.771      654.464      136.550        0.044      344.006       20.516      854.487
09/17/2013  17:11:00     -538.808     -400.455      -21.843      313.583      311.997      145.801    98334.420    97342.438    21257.787       33.400       10.847      671.326      145.642        0.047      343.957       20.431      854.474
09/17/2013  17:12:00     -593.342     -223.226      -31.262      304.492      213.756      116.331    92715.571    45691.468    13532.789       27.737        7.597      633.944      118.110        0.035      343.924       20.376      854.451
09/17/2013  17:13:00     -455.188     -218.769      -16.911      271.275      186.631       85.487    73590.020    34831.213     7307.946       18.551        5.786      505.031       97.619        0.037      343.992       20.490      854.423
09/17/2013  17:14:00     -366.904     -231.998      -13.740      199.408      185.641      105.635    39763.665    34462.669    11158.858       13.699        4.269      434.098      114.464        0.070      344.093       20.665      854.381
09/17/2013  17:15:00     -600.498      -43.169      -31.641      293.372      224.659      112.039    86067.009    50471.886    12552.723       25.625        7.455      602.047      126.324        0.044      344.156       20.771      854.396
09/17/2013  17:16:00     -324.839      -89.757       -5.774      194.878      164.018       90.279    37977.510    26901.763     8150.243        9.330        3.651      337.011      104.270        0.096      344.322       21.056      854.431
09/17/2013  17:17:00     -643.466     -231.700      -23.964      308.732      304.461      140.825    95315.362    92696.384    19831.583       33.803       10.392      683.910      147.711        0.047      344.023       20.545      854.368
09/17/2013  17:18:00     -546.340     -372.058      -15.626      455.902      347.918      162.886   207846.188   121047.196    26531.688       39.622       17.771      660.995      208.663        0.100      344.019       20.539      854.309
09/17/2013  17:19:00     -473.496     -227.102       -3.329      303.996      234.387      127.216    92413.660    54937.129    16183.832       21.963        8.177      525.141      156.932        0.089      344.068       20.623      854.353
09/17/2013  17:20:00     -507.730     -449.647      -16.663      290.075      213.072      147.752    84143.393    45399.714    21830.612       30.578        7.569      678.213      153.748        0.051      343.934       20.393      854.375
09/17/2013  17:21:00     -521.368     -380.799        5.056      299.374      233.951      139.568    89624.678    54733.070    19479.296       29.032        8.192      645.626      160.325        0.062      343.942       20.407      854.347
09/17/2013  17:22:00     -454.885     -364.963       -5.148      343.752      203.666      140.507   118165.188    41479.923    19742.271       25.973        8.969      583.196      170.786        0.086      343.926       20.378      854.332
09/17/2013  17:23:00     -405.196     -198.342        3.847      277.710      212.730      115.606    77122.943    45254.159    13364.724       16.961        6.787      451.135      143.086        0.101      344.045       20.582      854.379
09/17/2013  17:24:00     -701.813     -374.158      -28.471      404.116      328.866      161.845   163309.776   108152.945    26193.830       46.544       14.883      795.321      205.650        0.067      343.884       20.307      854.324
09/17/2013  17:25:00     -626.877     -250.445      -25.193      348.334      265.842      128.108   121336.547    70672.164    16411.754       33.233       10.421      675.054      141.473        0.044      343.931       20.386      854.353
09/17/2013  17:26:00     -584.359     -341.982      -19.395      343.649      218.319      129.225   118094.742    47663.050    16699.111       32.059        9.123      677.073      147.012        0.047      343.874       20.291      854.349
09/17/2013  17:27:00     -557.413     -389.647      -17.276      322.821      261.516      126.363   104213.102    68390.738    15967.490       32.566        9.429      680.098      170.107        0.063      343.805       20.173      854.332
09/17/2013  17:28:00     -450.050     -308.029        0.193      257.161      202.738      133.812    66131.844    41102.571    17905.534       21.126        6.257      545.369      142.614        0.068      343.854       20.254      854.313
09/17/2013  17:29:00     -474.711     -149.311      -22.520      276.905      245.152      113.107    76676.165    60099.382    12793.101       19.883        7.478      497.638      117.837        0.056      343.878       20.298      854.286
09/17/2013  17:30:00     -450.857     -320.599       -7.118      369.540      237.442      140.418   136559.912    56378.489    19717.282       25.934       10.633      553.223      171.808        0.096      343.895       20.325      854.227
09/17/2013  17:31:00     -682.674     -195.336      -23.784      349.227      316.828      141.846   121959.193   100379.897    20120.307       37.356       12.123      710.071      150.054        0.045      343.868       20.281      854.236
09/17/2013  17:32:00     -687.531     -315.437      -42.270      324.585      270.788      150.880   105355.305    73325.973    22764.854       38.768       10.072      756.439      147.264        0.038      343.760       20.094      854.248
09/17/2013  17:33:00     -698.721     -320.278      -38.538      309.829      304.645      158.401    95994.076    92808.715    25090.871       40.304       10.695      768.628      161.635        0.044      343.768       20.109      854.243
09/17/2013  17:34:00     -435.335     -255.592        4.678      357.349      240.807      146.568   127698.628    57987.954    21482.080       23.098       10.358      504.821      185.240        0.135      343.824       20.205      854.275
09/17/2013  17:35:00     -625.222     -289.632      -11.497      343.204      303.793      157.762   117788.721    92290.073    24888.700       35.490       11.748      689.049      177.810        0.067      343.730       20.045      854.273
09/17/2013  17:36:00     -443.074     -260.448      -30.516      239.146      210.404      107.133    57190.728    44269.929    11477.394       18.899        5.647      513.953       76.612        0.022      343.833       20.218      854.354
09/17/2013  17:37:00     -460.788     -337.409       -3.367      358.463      270.730      150.439   128495.556    73294.939    22631.902       27.526       11.221      571.113      201.226        0.124      343.769       20.110      854.334
09/17/2013  17:38:00     -644.121     -300.053      -21.215      324.818      286.478      152.029   105506.890    82069.816    23112.912       35.799       10.534      710.580      174.035        0.060      343.679       19.958      854.369
09/17/2013  17:39:00     -597.757     -269.451      -13.068      358.987      307.748      147.100   128871.976    94708.617    21638.382       33.760       12.261      655.681      172.517        0.069      343.706       20.003      854.398
09/17/2013  17:40:00     -649.959     -336.501      -44.574      281.447      221.881      103.824    79212.539    49231.243    10779.368       33.842        6.961      731.901      111.503        0.023      343.701       19.994      854.431
09/17/2013  17:41:00     -517.778     -281.131      -39.116      213.952      165.472      101.389    45775.409    27380.901    10279.828       21.603        4.172      589.177      111.148        0.036      343.733       20.048      854.478
09/17/2013  17:42:00     -225.993     -139.271       30.387      185.293      168.114       95.960    34333.531    28262.409     9208.326        7.158        3.590      265.460      102.595        0.149      343.840       20.233      854.504
09/17/2013  17:43:00     -300.890     -200.560       -8.242      182.748      185.901      105.788    33397.001    34559.028    11191.179       10.497        3.957      361.606      100.647        0.077      343.839       20.231      854.513
09/17/2013  17:44:00     -516.162      -16.695      -20.655      390.334      208.525      111.643   152360.651    43482.775    12464.160       23.768       10.415      516.432      142.614        0.076      343.856       20.260      854.534
09/17/2013  17:45:00     -628.180     -299.952      -13.449      340.139      220.361      135.659   115694.867    48558.941    18403.231       33.367        9.133      696.119      151.133        0.047      343.702       19.997      854.506
09/17/2013  17:46:00     -521.436     -221.678      -14.270      244.922      239.418      120.687    59986.892    57320.809    14565.313       22.653        6.594      566.601      136.202        0.058      343.695       19.984      854.576
09/17/2013  17:47:00     -678.210     -180.578      -42.169      299.596      268.828      135.460    89757.743    72268.745    18349.290       33.733        9.019      701.838      141.874        0.041      343.628       19.870      854.598
09/17/2013  17:48:00     -787.169     -146.966      -30.387      370.339      255.431      137.601   137151.191    65245.212    18933.913       43.170       11.067      800.771      157.370        0.039      343.583       19.793      854.612
09/17/2013  17:49:00     -566.321     -117.807      -32.815      339.379      202.943      124.911   115177.832    41185.661    15602.827       25.379        8.598      578.445      158.538        0.075      343.613       19.844      854.668
09/17/2013  17:50:00     -386.292      -51.460        9.344      303.735      185.195      117.375    92255.099    34297.044    13777.005       14.612        7.016      389.705      136.824        0.123      343.672       19.945      854.710
09/17/2013  17:51:00     -454.106      -40.694      -17.312      226.835      202.021       94.152    51454.068    40812.290     8864.677       15.463        5.057      455.925       88.664        0.038      343.678       19.955      854.801
09/17/2013  17:52:00     -450.899      -99.276       -8.983      268.596      196.629      111.068    72143.797    38662.890    12336.061       16.817        6.157      461.698      129.535        0.079      343.612       19.842      854.851
09/17/2013  17:53:00     -468.726     -306.824       -9.667      255.833      235.787      122.788    65450.365    55595.639    15076.912       22.500        6.806      560.219      134.407        0.058      343.603       19.828      854.853
09/17/2013  17:54:00     -566.246     -289.433      -26.707      271.891      249.724      108.705    73924.484    62362.323    11816.811       27.658        7.405      635.929      125.742        0.039      343.538       19.718      854.869
09/17/2013  17:55:00     -401.173     -151.038       -8.304      266.903      205.523      111.733    71237.410    42239.819    12484.306       15.487        6.298      428.663      126.171        0.087      343.595       19.814      854.924
09/17/2013  17:56:00     -245.870      -77.458       -1.005      176.206      140.634       79.375    31048.391    19777.820     6300.458        6.178        2.856      257.783       80.338        0.097      343.652       19.912      854.978
09/17/2013  17:57:00     -272.067      -86.601       12.014      266.017      146.796       86.564    70765.114    21549.091     7493.256        9.072        4.990      285.518       68.608        0.058      343.639       19.890      855.042
09/17/2013  17:58:00     -585.744      -39.273      -28.368      251.176      197.965      117.132    63089.468    39190.112    13719.831       23.070        5.800      587.059      126.339        0.046      343.523       19.691      855.077
09/17/2013  17:59:00     -286.596      -79.440       13.105      211.426      138.265       95.408    44701.111    19117.166     9102.657        8.076        3.646      297.402      111.853        0.141      343.540       19.721      855.098
09/17/2013  18:00:00     -335.964     -191.236       -0.540      246.448      168.747      114.627    60736.671    28475.441    13139.352       12.588        5.118      386.578      123.766        0.103      343.502       19.654      855.099
09/17/2013  18:01:00     -455.399     -195.844      -13.081      281.270      171.506      102.684    79112.564    29414.260    10543.964       18.247        5.954      495.725      110.979        0.050      343.492       19.638      855.130
09/17/2013  18:02:00     -755.866     -192.743      -25.093      291.870      220.630      122.314    85188.364    48677.537    14960.794       37.894        7.441      780.054      156.779        0.040      343.408       19.494      855.133
09/17/2013  18:03:00     -343.424     -148.414      -12.428      230.211      196.681      103.137    52997.313    38683.337    10637.142       12.120        5.116      374.121      122.405        0.107      343.511       19.669      855.212
09/17/2013  18:04:00     -418.853     -124.537       -2.848      297.922      206.724      105.977    88757.717    42734.747    11231.163       16.681        7.136      436.975      131.616        0.091      343.477       19.613      855.206
09/17/2013  18:05:00     -479.820     -155.080       -2.153      303.980      196.728      112.533    92403.559    38701.746    12663.751       19.900        7.188      504.259      134.406        0.071      343.429       19.530      855.244
09/17/2013  18:06:00     -480.953     -114.895      -30.526      209.251      161.890       94.663    43786.009    26208.302     8961.070       16.219        3.948      494.486       83.523        0.029      343.421       19.517      855.257
09/17/2013  18:07:00     -254.790     -135.969       -2.751      192.179      148.268       78.516    36932.628    21983.344     6164.796        7.423        3.254      288.800       89.141        0.095      343.475       19.612      855.301
09/17/2013  18:08:00     -441.364     -231.633       -8.819      274.330      234.520      124.398    75256.815    54999.609    15474.920       19.710        7.287      498.454      125.669        0.064      343.386       19.458      855.262
09/17/2013  18:09:00     -395.659     -334.055       -6.817      280.887      191.909      129.071    78897.246    36829.121    16659.365       20.026        6.619      517.821      141.921        0.075      343.361       19.416      855.314
09/17/2013  18:10:00     -329.019     -128.988       -8.539      224.055      153.564       96.053    50200.764    23581.806     9226.139       10.397        4.150      353.400      109.295        0.096      343.416       19.509      855.346
09/17/2013  18:11:00     -502.119     -138.014      -29.073      272.187      192.585      100.756    74085.506    37089.065    10151.804       19.665        6.066      520.741      127.302        0.060      343.377       19.442      855.399
09/17/2013  18:12:00     -451.910      -98.986       -6.975      229.957      201.776      110.397    52880.069    40713.742    12187.418       15.990        5.289      462.624      120.320        0.068      343.348       19.392      855.379
09/17/2013  18:13:00     -266.888     -165.546       11.131      278.903      195.278      106.237    77786.813    38133.450    11286.238       11.296        6.360      314.062      132.201        0.177      343.373       19.435      855.388
09/17/2013  18:14:00     -203.236      -98.900        6.252      249.439      132.676       93.658    62219.860    17602.865     8771.764        6.984        4.430      226.023      124.320        0.303      343.418       19.511      855.421
09/17/2013  18:15:00     -250.597     -137.591      -10.915      164.802      171.090       86.224    27159.619    29271.949     7434.501        7.284        3.193      285.885       83.416        0.085      343.353       19.402      855.453
09/17/2013  18:16:00     -478.197     -422.266      -19.150      237.623      187.423      123.971    56464.871    35127.405    15368.910       25.713        5.348      637.951      123.744        0.038      343.214       19.165      855.409
09/17/2013  18:17:00     -364.672     -272.369       -0.043      257.033      164.694      117.844    66065.897    27123.986    13887.241       15.710        5.354      455.160      131.188        0.083      343.230       19.190      855.446
09/17/2013  18:18:00     -413.946     -347.283       16.213      293.419      259.375      142.596    86094.684    67275.380    20333.480       23.293        8.685      540.330      169.817        0.099      343.181       19.108      855.402
09/17/2013  18:19:00     -342.732     -261.614        1.564      243.789      176.213      115.997    59432.936    31050.882    13455.392       14.490        5.197      431.169      130.780        0.092      343.214       19.164      855.480
09/17/2013  18:20:00     -585.792     -182.468      -41.488      233.446      196.737      114.073    54496.944    38705.423    13012.557       24.217        5.311      613.553       94.860        0.024      343.175       19.098      855.493
09/17/2013  18:21:00     -192.871      -66.127       14.413      144.673      114.625       74.340    20930.414    13138.961     5526.496        4.068        1.980      203.892       77.560        0.145      343.242       19.213      855.565
09/17/2013  18:22:00     -344.571     -219.137      -14.313      186.605      227.446       88.100    34821.398    51731.844     7761.619       13.062        4.716      408.350       85.500        0.044      343.191       19.125      855.594
09/17/2013  18:23:00     -179.531     -120.975       16.603      203.429      145.727      100.765    41383.410    21236.217    10153.583        5.994        3.639      216.487       93.348        0.186      343.249       19.225      855.552
09/17/2013  18:24:00     -227.274      -83.896       -5.278      164.307      135.143       58.368    26996.853    18263.647     3406.819        5.368        2.433      242.265       45.878        0.036      343.281       19.279      855.591
09/17/2013  18:25:00     -170.765     -143.130        9.047      193.332      165.155       84.299    37377.441    27276.015     7106.329        6.073        3.588      222.816      104.207        0.219      343.200       19.141      855.628
09/17/2013  18:26:00      -73.617      -16.984       15.869       81.638       78.079       48.970     6664.809     6096.335     2398.013        1.056        0.758       75.551       44.212        0.342      343.183       19.116      855.671
09/17/2013  18:27:00     -156.006     -118.057        2.283      170.716      144.913       72.074    29143.892    20999.830     5194.636        4.680        2.767      195.641       87.347        0.199      343.146       19.050      855.680
09/17/2013  18:28:00     -428.109     -114.414       -8.932      243.230      238.322       95.381    59161.031    56797.533     9097.486       16.073        6.253      443.134       99.742        0.051      343.031       18.852      855.720
09/17/2013  18:29:00     -284.807      -90.000       -3.590      164.489      135.774       75.704    27056.598    18434.504     5731.060        7.021        2.561      298.689       91.757        0.094      343.035       18.860      855.789
09/17/2013  18:30:00     -439.533       28.956      -32.033      271.147      135.760       84.570    73520.741    18430.839     7152.053       14.706        4.955      440.486      108.994        0.061      342.976       18.760      855.838
09/17/2013  18:31:00     -346.248      -20.113      -18.472      135.787      160.832       72.385    18438.135    25866.928     5239.615        8.508        2.477      346.832       69.682        0.040      342.934       18.689      855.846
09/17/2013  18:32:00     -260.753      -11.740       -1.076      167.081      129.570       70.264    27916.000    16788.296     4936.982        5.888        2.482      261.018       79.640        0.093      342.929       18.680      855.924
09/17/2013  18:33:00     -150.736      -28.417        7.562      229.258      178.603       93.270    52559.118    31898.942     8699.386        5.835        4.658      153.391      108.822        0.503      342.932       18.683      855.947
09/17/2013  18:34:00     -170.767      -41.075        8.266      144.344      117.949       61.767    20835.047    13912.055     3815.207        3.473        1.928      175.637       60.981        0.121      342.920       18.667      855.981
09/17/2013  18:35:00      -17.281      -53.941       13.045       39.217       68.755       38.654     1537.971     4727.302     1494.108        0.557        0.388       56.641       28.253        0.249      342.998       18.800      855.997
09/17/2013  18:36:00     -124.726      -84.920       -3.377       77.561       76.110       44.905     6015.666     5792.756     2016.491        1.830        0.691      150.890       34.219        0.051      342.960       18.732      856.089
09/17/2013  18:37:00        3.237       -8.423       18.970       67.156       71.397       50.318     4509.991     5097.593     2531.877        0.629        0.607        9.024       53.690       35.399      342.888       18.612      856.095
09/17/2013  18:38:00     -183.656      -77.735      -14.333      161.819      220.132       76.351    26185.339    48458.006     5829.464        6.021        4.024      199.429       84.949        0.181      342.856       18.557      856.154
09/17/2013  18:39:00     -266.483     -164.737        6.099      211.608      178.336       81.737    44778.003    31803.805     6681.005        9.071        4.163      313.291       99.457        0.101      342.835       18.520      856.190
09/17/2013  18:40:00     -338.609        5.472      -39.793      178.505      146.339       78.328    31864.165    21415.130     6135.239        8.783        2.971      338.653       67.203        0.039      342.818       18.489      856.213
09/17/2013  18:41:00     -199.172     -138.234      -34.791      132.988      134.796       60.849    17685.704    18170.063     3702.609        4.977        1.978      242.442       58.180        0.058      342.858       18.560      856.256
09/17/2013  18:42:00     -220.512       40.836      -32.494       96.454      111.397       42.387     9303.437    12409.276     1796.654        3.742        1.175      224.261       38.773        0.030      342.821       18.497      856.291
09/17/2013  18:43:00     -219.486     -104.739        3.245      138.538      105.570       44.921    19192.875    11145.052     2017.859        4.575        1.618      243.196       48.270        0.039      342.827       18.507      856.350
09/17/2013  18:44:00      -25.668      148.376        6.566       57.398       73.508       57.720     3294.482     5403.470     3331.570        1.737        0.601      150.580       52.741        0.123      342.779       18.424      856.413
09/17/2013  18:45:00      -14.065       37.165       -2.278       30.847       65.249       29.717      951.565     4257.375      883.081        0.384        0.305       39.738       13.082        0.108      342.791       18.449      856.442
09/17/2013  18:46:00     -118.517      109.316      -17.053      115.496      103.331       56.683    13339.417    10677.232     3212.959        2.675        1.361      161.234       78.286        0.236      342.793       18.450      856.479
09/17/2013  18:47:00     -176.894      101.965      -17.517      256.083       87.400       54.827    65578.265     7638.823     3006.031        5.909        3.811      204.177       79.570        0.152      342.789       18.443      856.475
09/17/2013  18:48:00     -399.563      -66.153      -26.215      185.393      129.710       65.183    34370.521    16824.811     4248.793       11.007        2.772      405.002       78.278        0.037      342.783       18.431      856.471
09/17/2013  18:49:00     -195.536      130.600       -8.616      135.725      104.654       64.466    18421.227    10952.437     4155.841        4.444        1.676      235.140       57.717        0.060      342.760       18.393      856.565
09/17/2013  18:50:00     -149.771      154.369      -28.221       85.773      123.069       54.407     7356.971    15145.957     2960.140        3.626        1.273      215.084       40.865        0.036      342.727       18.336      856.549
09/17/2013  18:51:00     -206.569       97.752      -20.952       76.907      103.302       58.003     5914.734    10671.357     3364.388        3.630        0.998      228.530       51.134        0.050      342.771       18.411      856.595
09/17/2013  18:52:00      -80.081      145.696      -22.750      100.140      108.433       51.012    10028.096    11757.654     2602.265        2.627        1.219      166.253       50.517        0.092      342.733       18.347      856.665
09/17/2013  18:53:00     -168.717      260.908      -34.107      150.315      197.711       88.508    22594.716    39089.716     7833.725        8.360        3.476      310.706      106.938        0.118      342.729       18.341      856.663
09/17/2013  18:54:00       27.450      191.252      -11.579       91.466      116.897       62.480     8366.120    13665.005     3903.696        3.169        1.297      193.211       56.301        0.085      342.673       18.244      856.679
09/17/2013  18:55:00      -15.868       82.137       15.400       90.087       99.726       47.972     8115.701     9945.286     2301.271        1.379        1.018       83.655       61.124        0.534      342.676       18.250      856.735
09/17/2013  18:56:00     -156.977      -18.422      -15.067      139.262       59.837       38.868    19393.784     3580.469     1510.711        2.484        1.224      158.055       55.550        0.124      342.768       18.407      856.762
09/17/2013  18:57:00      -38.235       89.271       -2.004       62.580       74.344       36.731     3916.284     5527.086     1349.167        1.011        0.540       97.114       28.800        0.088      342.648       18.203      856.775
09/17/2013  18:58:00     -101.823       39.957       -7.954       56.762       66.258       29.633     3221.899     4390.188      878.097        1.026        0.425      109.382       24.430        0.050      342.755       18.388      856.816
09/17/2013  18:59:00     -159.444      -27.550        0.144      117.013       90.058       47.501    13692.121     8110.399     2256.376        2.512        1.203      161.806       46.059        0.081      342.678       18.254      856.809
09/17/2013  19:00:00       41.195       92.396        0.817       90.654       86.764       50.043     8218.062     7527.989     2504.296        1.424        0.913      101.164       39.521        0.153      342.631       18.175      856.797
09/17/2013  19:01:00       30.744      123.546       -8.059       47.772       95.214       42.975     2282.162     9065.762     1846.885        1.473        0.660      127.314       50.428        0.157      342.599       18.121      856.813
09/17/2013  19:02:00      -58.889      129.460      -32.321       63.173       81.190       37.935     3990.855     6591.817     1439.048        1.664        0.601      142.224       29.028        0.042      342.649       18.206      856.829
09/17/2013  19:03:00     -214.576       24.001      -19.395      121.963       75.573       50.895    14874.926     5711.347     2590.340        3.508        1.159      215.914       47.554        0.049      342.688       18.271      856.868
09/17/2013  19:04:00     -110.496      -81.194        0.522      133.991       87.488       59.213    17953.609     7654.217     3506.235        2.395        1.456      137.120       40.858        0.089      342.616       18.148      856.864
09/17/2013  19:05:00      -21.591       -9.744       12.437       52.245      106.452       38.454     2729.541    11332.102     1478.693        0.812        0.777       23.688       30.389        1.646      342.518       17.983      856.869
09/17/2013  19:06:00        6.991       68.846        7.233       46.257       61.889       32.043     2139.684     3830.278     1026.753        0.592        0.350       69.200        8.558        0.015      342.517       17.983      856.882
09/17/2013  19:07:00     -104.796      111.171      -14.589       68.580       88.802       41.408     4703.235     7885.779     1714.629        1.893        0.715      152.779       42.862        0.079      342.562       18.058      856.911
09/17/2013  19:08:00     -117.857       43.897      -21.291       71.601      128.834       35.851     5126.717    16598.130     1285.312        1.964        1.151      125.767       36.961        0.086      342.634       18.178      856.944
09/17/2013  19:09:00      -71.104       36.129        1.029       54.793       48.683       32.008     3002.274     2370.064     1024.517        0.638        0.320       79.756       35.057        0.193      342.617       18.152      856.948
09/17/2013  19:10:00     -290.104     -118.380       -6.182      134.570      108.759       56.646    18109.163    11828.438     3208.794        6.567        1.657      313.328       43.317        0.019      342.596       18.112      856.980
09/17/2013  19:11:00     -191.871      -64.614       -0.163       91.690      139.766       49.378     8407.126    19534.457     2438.225        3.568        1.519      202.459       40.753        0.041      342.550       18.035      857.004
09/17/2013  19:12:00     -333.972     -147.515      -10.794      189.755      125.147       77.394    36006.938    15661.814     5989.852        9.553        2.883      365.100       93.956        0.066      342.586       18.096      857.120
09/17/2013  19:13:00     -365.515     -152.813       -9.074      171.475      146.187       76.198    29403.515    21370.594     5806.205       10.680        2.829      396.173       68.260        0.030      342.612       18.141      857.097
09/17/2013  19:14:00     -110.205      -92.619       -6.815      158.872      122.687       74.618    25240.290    15052.123     5567.858        3.331        2.293      143.957       89.506        0.387      342.584       18.095      857.041
09/17/2013  19:15:00     -144.744      -38.213       -1.915       64.193       72.427       43.021     4120.775     5245.728     1850.791        1.681        0.561      149.704       39.311        0.069      342.627       18.168      857.042
09/17/2013  19:16:00     -168.271      -45.588        0.818      104.182       84.747       45.060    10853.818     7182.079     2030.433        2.523        1.003      174.337       38.082        0.048      342.606       18.132      857.082
09/17/2013  19:17:00     -259.153      -77.306        2.326      121.366      110.455       61.269    14729.759    12200.211     3753.868        5.191        1.534      270.438       58.761        0.047      342.532       18.005      857.126
09/17/2013  19:18:00     -285.524      -27.838       -3.887      111.414       89.808       54.962    12413.001     8065.424     3020.774        5.290        1.175      286.878       57.674        0.040      342.527       17.997      857.192
09/17/2013  19:19:00     -241.799      -21.825      -18.035       93.127       78.267       41.374     8672.701     6125.702     1711.775        3.789        0.826      242.782       41.904        0.030      342.544       18.023      857.228
09/17/2013  19:20:00      -69.160      -27.705        6.233       67.003       65.735       35.767     4489.352     4321.042     1279.246        0.784        0.504       74.503       33.084        0.197      342.477       17.914      857.242
09/17/2013  19:21:00       57.667       74.524       33.450       52.490       35.573       27.887     2755.228     1265.458      777.669        0.740        0.240       94.230       20.162        0.046      342.341       17.681      857.231
09/17/2013  19:22:00       -1.674       28.574        0.529       37.909       57.921       16.681     1437.057     3354.869      278.240        0.294        0.254       28.623       15.092        0.278      342.456       17.877      857.200
09/17/2013  19:23:00     -121.845       23.377      -17.915       53.907       33.332       22.235     2905.962     1111.022      494.408        1.011        0.226      124.067       19.654        0.025      342.582       18.093      857.233
09/17/2013  19:24:00     -105.904       16.872      -10.797       68.269      112.357       45.377     4660.702    12624.151     2059.105        1.548        0.967      107.240       44.146        0.169      342.516       17.980      857.250
09/17/2013  19:25:00     -161.114     -192.834       -9.229      116.283      116.602       58.267    13521.653    13596.018     3395.046        4.686        1.526      251.282       58.796        0.055      342.502       17.955      857.241
09/17/2013  19:26:00     -193.257     -209.918        4.317      125.334      104.898       69.081    15708.557    11003.579     4772.247        5.645        1.574      285.331       72.575        0.065      342.493       17.938      857.214
09/17/2013  19:27:00     -106.779      -98.171        0.615       97.650       62.876       40.216     9535.520     3953.398     1617.352        1.807        0.755      145.050       42.701        0.087      342.473       17.904      857.238
09/17/2013  19:28:00     -133.114     -125.921       -5.018       81.012       63.730       33.234     6562.865     4061.471     1104.478        2.266        0.586      183.235       30.358        0.027      342.491       17.935      857.277
09/17/2013  19:29:00      -63.099      -66.722       14.367       76.449       65.167       42.132     5844.473     4246.714     1775.112        1.025        0.593       91.833       46.071        0.252      342.474       17.910      857.268
09/17/2013  19:30:00      -86.400      -91.501        0.033       84.628       57.976       43.696     7161.955     3361.272     1909.384        1.413        0.622      125.847       47.079        0.140      342.502       17.956      857.278
09/17/2013  19:31:00      -56.752      -55.192        1.664       85.554       51.241       46.221     7319.441     2625.629     2136.336        0.917        0.604       79.164       38.587        0.238      342.498       17.950      857.303
09/17/2013  19:32:00      -88.505      -30.013        7.941       89.568       62.554       39.726     8022.430     3912.989     1578.151        1.115        0.676       93.456       55.964        0.359      342.448       17.865      857.299
09/17/2013  19:33:00     -100.476      -95.150       18.498       99.367       69.600       46.736     9873.790     4844.158     2184.278        1.819        0.845      138.380       44.304        0.103      342.467       17.896      857.278
09/17/2013  19:34:00     -175.331     -200.295       -0.057       99.990       97.681       54.164     9997.999     9541.540     2933.785        4.666        1.124      266.194       42.873        0.026      342.465       17.890      857.249
09/17/2013  19:35:00     -130.744     -150.326      -11.073      123.462       87.419       49.858    15242.873     7642.046     2485.863        3.259        1.269      199.228       26.031        0.017      342.467       17.894      857.204
09/17/2013  19:36:00     -300.737     -150.381      -12.071       82.067       68.085       51.369     6735.056     4635.506     2638.821        6.360        0.700      336.240       38.212        0.013      342.446       17.856      857.162
09/17/2013  19:37:00     -263.645     -121.682        0.934      152.137      147.793       65.802    23145.738    21842.767     4329.966        6.681        2.466      290.371       70.063        0.058      342.414       17.803      857.175
09/17/2013  19:38:00     -311.861     -226.733      -11.932      171.026      109.763       83.020    29250.062    12047.868     6892.352        9.849        2.410      385.571       93.372        0.059      342.412       17.801      857.181
09/17/2013  19:39:00     -276.152     -118.662        9.869      129.302      107.877       61.557    16718.882    11637.530     3789.323        6.129        1.607      300.567       71.001        0.056      342.386       17.757      857.233
09/17/2013  19:40:00     -233.820     -173.252       -5.438      122.948      102.515       60.793    15116.176    10509.327     3695.825        5.701        1.466      291.013       63.405        0.047      342.380       17.747      857.253
09/17/2013  19:41:00      -75.160      -23.844       31.764       85.886       74.760       49.009     7376.411     5589.015     2401.921        1.129        0.768       78.851       51.616        0.429      342.339       17.678      857.242
09/17/2013  19:42:00     -259.817     -223.457       -1.305      141.881      113.036       70.496    20130.215    12777.215     4969.647        7.765        1.894      342.692       70.299        0.042      342.386       17.757      857.222
09/17/2013  19:43:00     -356.088     -222.757       -1.527      179.990      124.629       72.197    32396.540    15532.325     5212.444       11.477        2.657      420.023       90.169        0.046      342.379       17.745      857.200
09/17/2013  19:44:00     -260.417     -182.370       -6.776      138.245       89.611       65.403    19111.746     8030.168     4277.549        6.626        1.571      317.924       67.288        0.045      342.412       17.801      857.223
09/17/2013  19:45:00     -317.975     -167.437       -7.744      179.858      144.965       80.644    32348.925    21014.869     6503.381        9.452        2.993      359.365       91.292        0.065      342.410       17.797      857.243
09/17/2013  19:46:00     -344.739     -145.850      -26.020      130.266      117.399       62.088    16969.138    13782.518     3854.925        8.769        1.730      374.322       69.703        0.035      342.408       17.793      857.258
09/17/2013  19:47:00     -290.232      -70.989       -4.582      136.925       88.458       61.118    18748.420     7824.864     3735.399        5.980        1.515      298.788       60.599        0.041      342.326       17.655      857.278
09/17/2013  19:48:00     -440.650      -61.235      -17.567      136.955      114.884       63.971    18756.640    13198.224     4092.251       11.713        1.802      444.884       64.312        0.021      342.218       17.472      857.318
09/17/2013  19:49:00     -312.427      -33.954      -11.723      165.997      115.400       65.853    27554.892    13317.148     4336.635        7.205        2.260      314.266       69.439        0.049      342.185       17.415      857.330
09/17/2013  19:50:00     -255.951      -39.243       -9.690      151.226      106.016       62.284    22869.265    11239.476     3879.349        5.256        1.899      258.942       77.898        0.090      342.208       17.453      857.327
09/17/2013  19:51:00     -189.775      -87.921        1.979      192.335       88.836       59.722    36992.757     7891.914     3566.752        4.609        2.423      209.152       57.576        0.076      342.226       17.485      857.248
09/17/2013  19:52:00     -266.135      -75.607       -4.594      124.479      109.349       54.208    15495.113    11957.294     2938.455        5.347        1.520      276.666       59.976        0.047      342.163       17.378      857.230
09/17/2013  19:53:00     -381.693      -22.147      -29.575      119.955      121.637       64.262    14389.130    14795.673     4129.566        9.018        1.666      382.335       58.557        0.023      342.053       17.189      857.284
09/17/2013  19:54:00     -509.423     -144.929      -36.801      165.032      162.519       75.731    27235.478    26412.310     5735.226       17.061        2.969      529.637       76.322        0.021      342.076       17.230      857.249
09/17/2013  19:55:00     -460.003      -78.606      -28.128      158.182      129.807       74.926    25021.500    16849.768     5613.902       13.302        2.374      466.671       70.596        0.023      342.038       17.164      857.262
09/17/2013  19:56:00     -453.368      -71.825      -21.272      157.767      147.004       71.643    24890.388    21610.176     5132.668       13.138        2.582      459.022       64.349        0.020      342.012       17.121      857.289
09/17/2013  19:57:00     -217.894       -6.035        3.706      166.819      113.994       70.875    27828.739    12994.566     5023.196        4.668        2.292      217.977       89.307        0.168      341.989       17.084      857.305
09/17/2013  19:58:00     -317.196      -46.334      -18.841      132.006      134.282       62.398    17425.511    18031.621     3893.466        7.122        1.968      320.562       56.552        0.031      342.020       17.135      857.266
09/17/2013  19:59:00     -428.368      -39.804      -35.996      157.732      153.315       67.644    24879.540    23505.420     4575.714       11.966        2.648      430.213       72.651        0.029      342.068       17.216      857.285
09/17/2013  20:00:00     -372.959      -82.028      -20.833      183.579      135.280       81.594    33701.267    18300.689     6657.598       10.245        2.933      381.873       90.197        0.056      342.078       17.232      857.296
09/17/2013  20:01:00     -368.557      -87.754       -8.250      175.196      139.033       81.955    30693.499    19330.313     6716.547       10.016        2.837      378.860       76.729        0.041      342.062       17.206      857.313
09/17/2013  20:02:00     -451.435     -144.775       -7.817      196.269      141.528       81.092    38521.548    20030.131     6575.918       14.496        3.256      474.081       87.978        0.034      342.038       17.164      857.331
09/17/2013  20:03:00     -251.431      -72.998       -2.307      181.190      117.941       81.216    32829.711    13910.172     6596.098        6.093        2.667      261.813       86.637        0.110      342.000       17.102      857.370
09/17/2013  20:04:00     -390.910     -106.211      -16.533      153.128      107.010       57.306    23448.146    11451.053     3284.000       10.127        1.909      405.082       50.094        0.015      342.019       17.132      857.402
09/17/2013  20:05:00     -338.133      -71.738      -19.362      137.075      156.395       66.334    18789.452    24459.297     4400.157        8.374        2.382      345.659       47.020        0.019      341.988       17.081      857.412
09/17/2013  20:06:00     -416.662     -102.540      -13.997      149.406      120.937       74.800    22322.289    14625.682     5595.074       11.342        2.127      429.094       74.207        0.030      341.954       17.021      857.441
09/17/2013  20:07:00     -489.087      -19.650      -45.534      194.632      174.109       75.626    37881.603    30313.849     5719.278       15.778        3.696      489.482       91.397        0.035      341.964       17.038      857.467
09/17/2013  20:08:00     -531.577      -39.277      -41.512      156.825      162.704       78.529    24594.127    26472.701     6166.727       17.153        2.862      533.026       76.666        0.021      341.949       17.013      857.492
09/17/2013  20:09:00     -347.492      -92.844      -12.901      176.573      168.301       79.207    31177.939    28325.224     6273.725        9.764        3.289      359.682       78.089        0.047      341.940       17.000      857.498
09/17/2013  20:10:00     -362.043     -118.162      -10.680      178.520      133.093       86.770    31869.567    17713.745     7529.101       10.112        2.856      380.838       96.511        0.064      341.907       16.943      857.520
09/17/2013  20:11:00     -386.739      -51.107       -8.914      143.407      119.270       78.373    20565.659    14225.429     6142.322        9.659        2.047      390.101       85.714        0.048      341.892       16.916      857.562
09/17/2013  20:12:00     -346.361      -35.931      -21.462      125.441       77.161       61.893    15735.372     5953.811     3830.702        7.361        1.276      348.220       64.539        0.034      341.892       16.917      857.594
09/17/2013  20:13:00     -266.553      -33.528      -15.089       93.380       95.529       43.595     8719.892     9125.754     1900.509        4.607        0.987      268.653       37.056        0.019      341.877       16.890      857.618
09/17/2013  20:14:00     -249.138      -52.044      -18.289       95.731       95.058       44.186     9164.386     9035.938     1952.391        4.263        1.008      254.516       42.066        0.027      341.845       16.836      857.625
09/17/2013  20:15:00     -250.654      -78.077       -9.751      142.435      119.730       48.787    20287.727    14335.215     2380.193        5.300        1.850      262.533       49.983        0.036      341.816       16.789      857.648
09/17/2013  20:16:00     -431.440      -64.902      -26.670      128.014       94.373       53.844    16387.667     8906.320     2899.164       10.962        1.410      436.294       56.291        0.017      341.841       16.828      857.663
09/17/2013  20:17:00     -407.696      -52.462      -35.298       99.633       93.113       55.230     9926.640     8669.984     3050.388        9.593        1.082      411.058       48.461        0.014      341.815       16.786      857.692
09/17/2013  20:18:00     -263.169      -51.941       -5.785      108.664       78.968       46.764    11807.903     6235.984     2186.907        4.611        1.012      268.246       51.765        0.037      341.768       16.708      857.715
09/17/2013  20:19:00     -204.835       27.192      -17.290       72.506       71.540       38.765     5257.141     5117.956     1502.713        2.743        0.594      206.632       34.262        0.027      341.772       16.713      857.727
09/17/2013  20:20:00     -196.857      -50.927       -0.182      130.311       77.699       40.406    16980.971     6037.203     1632.609        3.299        1.233      203.338       48.488        0.057      341.729       16.641      857.762
09/17/2013  20:21:00     -260.481      -49.828      -14.776      111.816       87.033       48.528    12502.818     7574.713     2354.994        4.649        1.122      265.204       49.584        0.035      341.752       16.678      857.791
09/17/2013  20:22:00     -246.025       58.169      -19.360       94.785       80.462       45.185     8984.235     6474.167     2041.663        4.089        0.875      252.808       43.738        0.030      341.740       16.658      857.824
09/17/2013  20:23:00     -300.866       -4.234      -28.309      106.863       78.183       47.234    11419.626     6112.641     2231.063        5.555        0.988      300.896       53.012        0.031      341.748       16.670      857.843
09/17/2013  20:24:00     -290.678      -41.707       -9.705       75.732       98.896       38.386     5735.358     9780.411     1473.518        5.165        0.849      293.655       33.391        0.013      341.738       16.656      857.876
09/17/2013  20:25:00     -230.009      -65.422      -23.456       91.371       81.841       40.510     8348.593     6697.938     1641.070        3.721        0.834      239.132       38.496        0.026      341.750       16.676      857.901
09/17/2013  20:26:00     -209.369      -62.863      -20.970       52.537       56.463       36.721     2760.095     3188.107     1348.444        2.776        0.365      218.603       28.315        0.017      341.748       16.673      857.941
09/17/2013  20:27:00     -105.377      -48.560        6.129       84.788       62.065       36.294     7188.931     3852.015     1317.257        1.293        0.618      116.027       39.403        0.115      341.724       16.634      857.978
09/17/2013  20:28:00     -289.642        1.985      -32.228      121.991      119.216       50.925    14881.745    14212.356     2593.362        5.830        1.584      289.649       54.651        0.036      341.730       16.643      858.010
09/17/2013  20:29:00     -265.192      -59.177      -23.918       78.654       65.901       43.306     6186.412     4342.954     1875.425        4.340        0.620      271.714       27.645        0.010      341.743       16.661      858.026
09/17/2013  20:30:00     -274.611     -102.047      -15.420       86.718       70.528       37.771     7520.016     4974.246     1426.627        4.999        0.696      292.958       29.528        0.010      341.716       16.619      858.041
09/17/2013  20:31:00     -270.896      -78.410      -18.802       93.573       79.842       55.196     8755.959     6374.697     3046.574        4.903        0.909      282.016       36.523        0.017      341.703       16.596      858.053
09/17/2013  20:32:00     -245.525      -72.445      -24.183       58.796       57.171       33.238     3457.026     3268.497     1104.754        3.697        0.392      255.990       25.391        0.010      341.707       16.602      858.049
09/17/2013  20:33:00     -305.770       21.044      -34.115       60.918       49.381       32.169     3711.037     2438.525     1034.853        5.114        0.359      306.494       27.625        0.008      341.647       16.501      858.068
09/17/2013  20:34:00     -165.731      -57.059       -2.975       88.865       71.028       40.220     7897.062     5044.966     1617.655        2.264        0.728      175.279       30.846        0.031      341.632       16.477      858.064
09/17/2013  20:35:00     -179.037      -43.230        1.516       98.449       67.415       40.018     9692.181     4544.748     1601.463        2.488        0.792      184.182       43.861        0.057      341.575       16.379      858.059
09/17/2013  20:36:00     -220.017      -67.929       -0.370      105.658       87.579       43.322    11163.621     7670.099     1876.806        3.686        1.036      230.265       51.518        0.050      341.545       16.330      858.066
09/17/2013  20:37:00     -158.557      -81.219        1.617      101.154       62.149       43.889    10232.147     3862.524     1926.248        2.388        0.801      178.148       48.181        0.073      341.512       16.273      858.081
09/17/2013  20:38:00     -133.888       -1.233       -8.043       71.225       48.111       48.733     5072.954     2314.710     2374.904        1.388        0.488      133.894       49.002        0.134      341.596       16.416      858.084
09/17/2013  20:39:00     -172.215      -54.309      -18.330      134.231       66.446       52.093    18018.060     4415.102     2713.646        2.904        1.257      180.575       56.429        0.098      341.542       16.325      858.092
09/17/2013  20:40:00      -88.538      -16.008       12.925       75.422       61.138       46.554     5688.492     3737.863     2167.248        0.993        0.580       89.974       39.678        0.194      341.504       16.261      858.079
09/17/2013  20:41:00     -146.847      -93.447        1.264       91.260       68.013       46.622     8328.428     4625.719     2173.579        2.271        0.756      174.059       48.431        0.077      341.517       16.281      858.093
09/17/2013  20:42:00     -172.676      -95.455       -4.471       88.812       85.208       51.946     7887.551     7260.460     2698.425        2.839        0.892      197.303       41.621        0.044      341.528       16.299      858.091
09/17/2013  20:43:00     -182.421      -94.264        6.144      116.077      113.845       56.203    13473.887    12960.643     3158.804        3.589        1.480      205.337       59.282        0.083      341.524       16.293      858.077
09/17/2013  20:44:00     -253.954      -96.754       -7.896      164.001       91.336       60.141    26896.300     8342.297     3616.987        5.638        1.943      271.761       62.897        0.054      341.606       16.431      858.085
09/17/2013  20:45:00     -302.855     -179.139      -13.914      126.965      118.952       62.532    16120.035    14149.616     3910.244        7.909        1.709      351.869       54.609        0.024      341.620       16.456      858.091
09/17/2013  20:46:00     -293.338      -67.085        5.995      153.722      122.183       76.341    23630.470    14928.628     5827.883        6.748        2.219      300.912       83.680        0.077      341.579       16.387      858.105
09/17/2013  20:47:00     -246.954     -120.429       -0.895      110.128       87.235       47.712    12128.140     7609.991     2276.441        4.875        1.101      274.754       50.187        0.033      341.613       16.444      858.118
09/17/2013  20:48:00     -270.635     -134.321       -1.492      151.476      101.072       60.652    22945.053    10215.629     3678.663        6.406        1.842      302.135       64.858        0.046      341.598       16.417      858.116
09/17/2013  20:49:00     -150.422      -94.233        2.948      141.109      112.640       67.459    19911.637    12687.687     4550.720        3.433        1.858      177.501       79.778        0.202      341.564       16.361      858.124
09/17/2013  20:50:00     -210.615      -85.106       -1.051      138.637       73.474       53.196    19220.089     5398.481     2829.826        3.952        1.372      227.160       64.395        0.080      341.572       16.376      858.143
09/17/2013  20:51:00     -263.395     -189.178       -1.725      141.900      103.333       65.910    20135.547    10677.800     4344.091        7.016        1.758      324.292       59.888        0.034      341.568       16.368      858.138
09/17/2013  20:52:00     -161.283      -84.975        3.649      139.308      118.036       69.542    19406.684    13932.614     4836.060        3.570        1.909      182.299       75.678        0.172      341.561       16.357      858.134
09/17/2013  20:53:00     -142.263      -86.447        5.938      118.088       94.939       53.630    13944.768     9013.476     2876.178        2.679        1.292      166.469       53.245        0.102      341.554       16.345      858.133
09/17/2013  20:54:00     -234.636      -62.485       12.741      180.547      120.482       77.143    32597.232    14515.895     5950.998        5.608        2.653      242.814       92.234        0.144      341.547       16.333      858.154
09/17/2013  20:55:00     -247.312      -82.529       -4.264      157.391      123.692       57.389    24772.021    15299.798     3293.526        5.567        2.168      260.718       65.308        0.063      341.545       16.329      858.148
09/17/2013  20:56:00     -215.490     -123.659        9.949      171.076      122.827       74.907    29266.848    15086.352     5610.989        5.589        2.498      248.450       81.853        0.109      341.525       16.295      858.159
09/17/2013  20:57:00     -305.137     -133.009       -6.466      146.622       99.315       61.998    21498.106     9863.507     3843.787        7.302        1.760      332.866       69.211        0.043      341.511       16.270      858.166
09/17/2013  20:58:00     -229.629      -78.348       -5.394      149.556      136.360       65.167    22367.130    18594.126     4246.803        5.204        2.260      242.627       55.664        0.053      341.496       16.246      858.162
09/17/2013  20:59:00     -158.536     -113.850       -6.289      142.205      103.574       72.822    20222.268    10727.476     5303.107        3.719        1.813      195.181       69.838        0.128      341.462       16.189      858.161
09/17/2013  21:00:00     -277.609     -150.098      -12.516      143.231      108.641       56.765    20515.009    11802.972     3222.256        6.764        1.777      315.589       66.353        0.044      341.495       16.243      858.160
09/17/2013  21:01:00     -245.957     -164.115      -22.088      146.241       99.697       68.481    21386.467     9939.546     4689.677        6.196        1.801      295.683       77.259        0.068      341.502       16.255      858.143
09/17/2013  21:02:00     -249.774      -71.193       -3.841      229.959      110.984       75.997    52880.922    12317.342     5775.548        6.921        3.549      259.722      101.129        0.152      341.446       16.161      858.123
09/17/2013  21:03:00     -268.780      -63.287      -20.029      137.495      123.721       68.913    18904.993    15306.912     4748.955        5.780        1.948      276.130       58.561        0.045      341.443       16.156      858.121
09/17/2013  21:04:00     -300.676     -158.757      -14.648      153.920      137.468       73.376    23691.259    18897.397     5384.007        8.189        2.399      340.015       76.129        0.050      341.467       16.195      858.109
09/17/2013  21:05:00     -222.716      -54.963        8.815      169.448       89.248       65.705    28712.597     7965.165     4317.109        4.684        2.050      229.397       77.405        0.114      341.446       16.162      858.103
09/17/2013  21:06:00     -245.780     -102.180       -9.647      123.083      104.224       52.764    15149.406    10862.646     2784.055        4.986        1.440      266.174       55.788        0.044      341.424       16.122      858.134
09/17/2013  21:07:00     -266.425      -34.581      -18.829      179.326      106.206       54.039    32157.917    11279.772     2920.220        5.944        2.318      268.660       68.936        0.066      341.422       16.121      858.121
09/17/2013  21:08:00     -208.186      -87.828        6.408      146.628      136.969       68.179    21499.829    18760.389     4648.417        4.799        2.245      225.954       81.627        0.131      341.379       16.048      858.134
09/17/2013  21:09:00     -204.242      -95.313       -1.975      112.449       89.415       51.962    12644.747     7994.990     2700.099        3.707        1.167      225.387       52.539        0.054      341.390       16.066      858.154
09/17/2013  21:10:00     -379.007      -96.010      -19.988      184.509      143.611       74.842    34043.424    20624.230     5601.338       10.675        3.013      390.979       84.192        0.046      341.355       16.007      858.151
09/17/2013  21:11:00     -361.937      -35.977      -10.308      126.315      110.823       57.751    15955.559    12281.752     3335.138        8.198        1.579      363.721       57.125        0.025      341.338       15.978      858.192
09/17/2013  21:12:00     -207.606      -75.961       -1.528      123.426       65.553       46.412    15234.073     4297.174     2154.114        3.527        1.084      221.067       49.554        0.050      341.361       16.018      858.226
09/17/2013  21:13:00     -333.968      -57.391      -30.007      141.474      112.543       53.345    20014.779    12665.982     2845.667        7.562        1.776      338.863       54.648        0.026      341.349       15.995      858.247
09/17/2013  21:14:00     -260.020      -63.430      -18.129      133.007      115.016       53.047    17690.832    13228.715     2814.014        5.284        1.687      267.645       59.685        0.050      341.321       15.949      858.292
09/17/2013  21:15:00     -280.957      -12.338      -16.575      129.258      162.148       68.796    16707.582    26292.124     4732.914        6.354        2.387      281.227       61.181        0.047      341.290       15.898      858.330
09/17/2013  21:16:00     -134.560      -25.461       10.098      105.215      122.004       61.417    11070.139    14885.004     3772.059        2.429        1.486      136.948       53.704        0.154      341.269       15.862      858.361
09/17/2013  21:17:00     -154.156       26.317       -4.480      106.917       67.306       43.777    11431.202     4530.159     1916.421        2.117        0.894      156.386       51.858        0.110      341.254       15.837      858.403
09/17/2013  21:18:00     -160.162       30.308      -12.676      115.413       54.716       43.726    13320.145     2993.859     1911.961        2.247        0.911      163.004       51.117        0.098      341.277       15.877      858.444
09/17/2013  21:19:00     -107.411       52.749       -8.128       55.574       37.120       27.823     3088.425     1377.907      774.146        0.981        0.262      119.665       26.527        0.049      341.245       15.823      858.497
09/17/2013  21:20:00       10.833        5.563        2.295       49.600       51.252       33.381     2460.122     2626.758     1114.301        0.318        0.310       12.177       13.096        1.156      341.217       15.776      858.550
09/17/2013  21:21:00      -28.560       44.237       -4.063       55.829       40.120       27.717     3116.902     1609.609      768.228        0.414        0.275       52.656       31.303        0.353      341.171       15.700      858.581
09/17/2013  21:22:00      -30.388       60.133        3.611       30.132       43.319       25.714      907.949     1876.570      661.231        0.400        0.172       67.375       28.734        0.182      341.172       15.699      858.619
09/17/2013  21:23:00       13.137       94.398      -17.165       41.308       50.835       28.169     1706.355     2584.247      793.481        0.723        0.254       95.308       31.101        0.106      341.165       15.689      858.654
09/17/2013  21:24:00       50.162      119.815      -17.553       43.374       70.441       34.269     1881.265     4961.910     1174.336        1.260        0.401      129.892       37.038        0.081      341.106       15.589      858.696
09/17/2013  21:25:00       16.187       90.674       -2.008       32.976       59.355       33.729     1087.433     3523.001     1137.660        0.712        0.287       92.107       35.584        0.149      341.042       15.480      858.731
09/17/2013  21:26:00       33.853      115.122       -3.188       51.677       48.491       43.803     2670.562     2351.411     1918.746        1.067        0.347      119.997       34.239        0.081      341.020       15.443      858.762
09/17/2013  21:27:00      -41.131      197.704      -22.901       41.612       34.240       28.277     1731.592     1172.349      799.562        2.250        0.185      201.937       18.742        0.009      341.180       15.713      858.793
09/17/2013  21:28:00       25.681      150.469       -5.336       59.854       70.714       47.271     3582.483     5000.527     2234.540        1.707        0.541      152.645       44.061        0.083      341.131       15.630      858.799
09/17/2013  21:29:00       27.042      270.793      -38.421       67.485       77.322       47.097     4554.171     5978.712     2218.090        4.414        0.638      272.140       44.129        0.026      341.160       15.675      858.842
09/17/2013  21:30:00       23.992      141.742      -13.259       51.224       72.166       39.803     2623.871     5207.966     1584.298        1.513        0.471      143.758       39.643        0.076      341.069       15.525      858.876
09/17/2013  21:31:00       40.838      255.507      -40.656       55.661       66.177       45.968     3098.106     4379.433     2113.077        3.910        0.480      258.750       40.551        0.025      341.023       15.445      858.919
09/17/2013  21:32:00      -10.211      221.054      -27.566       43.882       80.379       35.002     1925.586     6460.833     1225.135        2.967        0.481      221.290       38.841        0.031      341.022       15.445      858.950
09/17/2013  21:33:00      -11.373      168.404      -12.606       87.281       74.692       44.850     7617.892     5578.903     2011.562        2.193        0.760      168.787       44.917        0.071      340.980       15.373      858.980
09/17/2013  21:34:00      -10.443      150.630      -14.142       33.015       50.348       29.114     1089.994     2534.871      847.618        1.373        0.224      150.992       29.691        0.039      340.988       15.388      859.011
09/17/2013  21:35:00      -20.791      138.736      -15.430       53.367       55.489       29.995     2848.056     3079.036      899.720        1.337        0.341      140.285       27.721        0.039      340.966       15.350      859.005
09/17/2013  21:36:00      -28.905       79.427       -5.939       38.739       65.949       25.990     1500.733     4349.276      675.498        0.685        0.326       84.523       22.479        0.071      340.923       15.278      859.008
09/17/2013  21:37:00       -9.948      253.422      -33.261       38.280       79.177       32.907     1465.322     6269.011     1082.867        3.712        0.441      253.618       36.883        0.021      340.893       15.223      859.002
09/17/2013  21:38:00      -40.174      252.134      -24.819       28.997       71.278       21.709      840.835     5080.598      471.262        3.610        0.320      255.314       20.152        0.006      340.874       15.191      859.000
09/17/2013  21:39:00     -121.859       93.596      -10.853       76.266       51.226       33.256     5816.555     2624.061     1105.963        1.664        0.477      153.655       41.467        0.073      340.881       15.206      859.011
09/17/2013  21:40:00      -97.305       47.263      -20.946       84.122       62.246       32.123     7076.496     3874.620     1031.917        1.206        0.599      108.176       20.504        0.036      340.873       15.194      859.012
09/17/2013  21:41:00     -150.207      109.714      -20.030       62.001       79.011       43.797     3844.142     6242.754     1918.202        2.350        0.600      186.009       37.826        0.041      340.824       15.109      859.014
09/17/2013  21:42:00     -180.369      148.393      -41.549       69.793       76.407       41.142     4871.024     5837.988     1692.625        3.434        0.620      233.567       34.103        0.021      340.802       15.071      859.020
09/17/2013  21:43:00     -114.362      117.594      -27.061       53.517       65.063       39.537     2864.032     4233.130     1563.136        1.815        0.433      164.033       37.058        0.051      340.771       15.021      859.014
09/17/2013  21:44:00     -138.113       85.917      -25.205       71.771      127.380       34.293     5151.025    16225.598     1176.034        2.482        1.128      162.656       30.796        0.036      340.764       15.009      859.022
09/17/2013  21:45:00     -172.587       26.749      -24.180       45.377       65.217       35.813     2059.082     4253.283     1282.566        1.934        0.380      174.648       33.909        0.038      340.763       15.007      859.014
09/17/2013  21:46:00     -172.665      -17.963       -1.096       74.382       93.727       43.830     5532.667     8784.827     1921.061        2.318        0.812      173.597       37.529        0.047      340.716       14.926      859.021
09/17/2013  21:47:00     -193.807      -81.393       -8.561       60.786       61.524       38.005     3694.889     3785.186     1444.382        2.659        0.446      210.204       24.961        0.014      340.727       14.944      859.013
09/17/2013  21:48:00     -194.509      -48.622      -10.215       63.394       58.196       26.785     4018.745     3386.760      717.443        2.421        0.406      200.494       22.495        0.013      340.666       14.843      859.012
09/17/2013  21:49:00     -180.474      -39.753      -14.236       52.160       65.921       29.748     2720.644     4345.584      884.961        2.115        0.398      184.800       26.727        0.021      340.620       14.764      858.999
09/17/2013  21:50:00     -184.195      -68.931        7.765       85.870       55.715       35.418     7373.639     3104.162     1254.408        2.523        0.587      196.671       38.428        0.038      340.523       14.599      858.985
09/17/2013  21:51:00     -151.028      -73.772       -7.564       68.337       60.277       28.962     4669.994     3633.311      838.786        1.872        0.457      168.083       32.770        0.038      340.574       14.687      858.966
09/17/2013  21:52:00     -170.260      -79.952       -3.180      101.561       51.281       39.838    10314.737     2629.748     1587.100        2.496        0.727      188.098       45.765        0.059      340.568       14.676      858.978
09/17/2013  21:53:00     -189.842      -63.605      -13.766       91.719       63.062       36.119     8412.325     3976.768     1304.607        2.698        0.685      200.214       37.688        0.035      340.546       14.638      858.992
09/17/2013  21:54:00      -79.181      -17.741        6.705       88.979       54.349       32.240     7917.270     2953.842     1039.412        0.927        0.596       81.144       37.740        0.216      340.425       14.436      859.023
09/17/2013  21:55:00     -120.860        4.538       -9.810       57.901       80.240       27.703     3352.560     6438.487      767.457        1.264        0.528      120.945       13.942        0.013      340.518       14.594      859.031
09/17/2013  21:56:00      -66.191       86.736      -14.532       58.068      134.219       50.842     3371.948    18014.683     2584.864        1.804        1.199      109.107       45.240        0.172      340.483       14.533      859.056
09/17/2013  21:57:00     -199.252      224.981      -48.973       88.367      142.595       55.508     7808.690    20333.370     3081.127        6.196        1.561      300.529       56.515        0.035      340.467       14.503      859.066
09/17/2013  21:58:00     -194.540      259.758      -57.612       83.270       89.390       49.010     6933.913     7990.658     2401.986        6.298        0.866      324.530       49.345        0.023      340.435       14.449      859.081
09/17/2013  21:59:00     -171.921      214.176      -49.945       83.288       76.185       47.620     6936.946     5804.156     2267.627        4.646        0.750      274.643       51.228        0.035      340.411       14.409      859.099
09/17/2013  22:00:00     -120.560      182.805      -30.782       64.136       87.933       44.843     4113.369     7732.202     2010.909        3.138        0.693      218.980       35.432        0.026      340.402       14.395      859.118
09/17/2013  22:01:00     -125.985      190.103      -28.193       70.914       88.596       44.587     5028.815     7849.204     1987.999        3.383        0.743      228.060       35.289        0.024      340.412       14.412      859.135
09/17/2013  22:02:00      -90.316      196.969      -26.694       78.881       90.266       51.508     6222.200     8147.876     2653.042        3.234        0.851      216.688       43.859        0.041      340.376       14.351      859.174
09/17/2013  22:03:00     -159.607      191.375      -29.304       94.226      146.711       60.437     8878.596    21524.162     3652.604        4.850        1.703      249.196       59.820        0.058      340.413       14.412      859.178
09/17/2013  22:04:00     -140.551      227.225      -20.288      112.847      141.354       66.824    12734.491    19980.911     4465.483        5.448        1.859      267.182       61.705        0.053      340.382       14.360      859.190
09/17/2013  22:05:00     -119.059      215.171      -34.291       67.897       85.387       43.258     4610.011     7290.962     1871.213        3.771        0.689      245.913       40.276        0.027      340.350       14.306      859.204
09/17/2013  22:06:00     -122.901      227.278      -27.393       66.270       86.439       50.754     4391.717     7471.635     2575.945        4.097        0.722      258.379       41.416        0.026      340.322       14.259      859.215
09/17/2013  22:07:00     -177.880      166.374      -31.597       99.476      103.629       55.229     9895.551    10738.999     3050.284        4.200        1.184      243.561       57.763        0.056      340.352       14.310      859.218
09/17/2013  22:08:00     -211.991      199.777      -36.663      118.748      113.264       71.582    14101.156    12828.820     5123.920        5.912        1.603      291.292       63.464        0.047      340.326       14.265      859.227
09/17/2013  22:09:00     -152.564      164.168      -23.655       81.947       62.973       51.119     6715.259     3965.546     2613.171        3.204        0.665      224.114       46.053        0.042      340.314       14.246      859.254
09/17/2013  22:10:00     -120.007      185.548      -19.597       77.132       88.690       57.042     5949.399     7865.930     3253.816        3.314        0.853      220.975       46.200        0.044      340.275       14.179      859.258
09/17/2013  22:11:00     -166.228      217.188      -29.952       91.735       91.662       57.137     8415.359     8401.919     3264.653        4.789        1.004      273.500       56.477        0.043      340.254       14.145      859.265
09/17/2013  22:12:00     -203.734      239.859      -47.607       85.806      112.251       53.085     7362.676    12600.348     2817.978        6.204        1.139      314.706       53.003        0.028      340.268       14.168      859.266
09/17/2013  22:13:00     -219.655      161.777      -40.541      112.931       94.094       51.427    12753.503     8853.674     2644.692        5.015        1.213      272.801       55.985        0.042      340.271       14.172      859.247
09/17/2013  22:14:00     -213.999      231.791      -46.737       79.514      124.752       62.354     6322.443    15563.093     3887.974        6.374        1.289      315.472       55.914        0.031      340.256       14.146      859.247
09/17/2013  22:15:00     -241.348      263.459      -58.724      108.681      110.105       68.001    11811.574    12123.049     4624.147        7.983        1.428      357.295       64.720        0.033      340.263       14.160      859.238
09/17/2013  22:16:00     -218.055      170.767      -44.163      105.744       84.248       62.611    11181.859     7097.727     3920.114        5.043        1.110      276.964       46.396        0.028      340.275       14.179      859.236
09/17/2013  22:17:00     -236.054      227.417      -54.832      112.270      134.441       66.339    12604.630    18074.425     4400.866        7.276        1.754      327.780       83.751        0.065      340.264       14.162      859.221
09/17/2013  22:18:00     -161.057      219.143      -32.278       89.475      104.118       66.328     8005.719    10840.625     4399.342        4.912        1.162      271.961       64.075        0.056      340.256       14.149      859.230
09/17/2013  22:19:00     -263.729      266.709      -30.614      146.174      136.811      100.668    21366.921    18717.335    10134.071        9.591        2.511      375.082       84.182        0.050      340.257       14.148      859.242
09/17/2013  22:20:00     -213.238      213.375      -30.787      128.573      103.447       73.081    16531.075    10701.210     5340.789        6.225        1.629      301.661       72.985        0.059      340.251       14.138      859.244
09/17/2013  22:21:00     -136.581      196.844      -26.620      106.057      131.856       72.678    11248.104    17386.099     5282.107        4.601        1.696      239.587       67.928        0.080      340.215       14.079      859.243
09/17/2013  22:22:00     -194.525      201.125      -42.946       96.688      117.441       62.767     9348.582    13792.495     3939.644        5.360        1.354      279.805       58.426        0.044      340.231       14.104      859.238
09/17/2013  22:23:00     -237.513      244.443      -44.835      121.982      119.856       66.174    14879.515    14365.373     4378.938        7.589        1.681      340.830       63.526        0.035      340.180       14.018      859.222
09/17/2013  22:24:00     -213.649      269.443      -50.495      108.127      107.335       70.915    11691.397    11520.909     5029.001        7.451        1.412      343.869       73.898        0.046      340.180       14.018      859.219
09/17/2013  22:25:00     -183.369      208.213      -39.618       89.988      119.691       56.449     8097.905    14325.867     3186.474        5.207        1.281      277.447       54.101        0.038      340.189       14.034      859.227
09/17/2013  22:26:00     -193.067      263.106      -31.645      115.984      115.428       81.046    13452.233    13323.598     6568.430        7.042        1.667      326.343       72.602        0.049      340.172       14.005      859.222
09/17/2013  22:27:00     -187.870      274.468      -48.967       94.182      124.937       64.573     8870.297    15609.342     4169.723        7.083        1.432      332.608       62.772        0.036      340.179       14.015      859.234
09/17/2013  22:28:00     -151.417      269.930      -39.171       80.933      121.378       57.297     6550.177    14732.642     3282.956        6.094        1.228      309.499       54.955        0.032      340.155       13.976      859.233
09/17/2013  22:29:00     -198.446      261.031      -47.141      112.686      102.264       62.490    12698.162    10457.999     3904.945        6.840        1.353      327.899       54.852        0.028      340.162       13.988      859.243
09/17/2013  22:30:00     -250.202      265.798      -52.393       78.104      120.772       61.260     6100.192    14585.805     3752.786        8.021        1.222      365.033       55.609        0.023      340.154       13.976      859.254
09/17/2013  22:31:00     -223.440      246.119      -55.714      102.051      104.799       56.808    10414.494    10982.872     3227.159        6.911        1.231      332.415       61.610        0.034      340.144       13.959      859.254
09/17/2013  22:32:00     -141.429      225.624      -33.457      101.843      108.279       66.400    10371.949    11724.438     4408.984        4.926        1.325      266.287       68.190        0.066      340.148       13.964      859.281
09/17/2013  22:33:00     -152.748      232.603      -34.174       85.757       99.015       53.838     7354.330     9804.017     2898.504        4.933        1.003      278.274       52.597        0.036      340.126       13.928      859.293
09/17/2013  22:34:00     -162.099      280.234      -48.090      104.658      110.290       58.275    10953.299    12163.973     3395.922        6.681        1.326      323.739       54.504        0.028      340.105       13.893      859.303
09/17/2013  22:35:00     -144.729      287.302      -33.694      118.093      144.261       61.506    13945.884    20811.319     3782.928        7.157        1.927      321.697       68.034        0.045      340.084       13.856      859.312
09/17/2013  22:36:00     -160.195      277.610      -31.554       99.664       97.008       65.346     9932.946     9410.641     4270.089        6.366        1.181      320.514       59.932        0.035      340.088       13.865      859.331
09/17/2013  22:37:00     -145.637      226.085      -33.369       85.532       88.371       56.237     7315.799     7809.513     3162.609        4.586        0.914      268.932       61.624        0.053      340.098       13.881      859.348
09/17/2013  22:38:00     -123.445      244.441      -36.176       94.763      112.977       45.962     8980.034    12763.846     2112.519        5.007        1.193      273.843       44.885        0.027      340.075       13.842      859.369
09/17/2013  22:39:00     -189.970      201.373      -34.773       95.624       94.867       66.472     9144.021     8999.838     4418.570        5.020        1.128      276.838       62.511        0.051      340.090       13.866      859.384
09/17/2013  22:40:00      -99.482      310.262      -21.081       75.260      138.076       62.686     5664.142    19064.926     3929.564        6.763        1.433      325.821       61.100        0.035      340.049       13.798      859.414
09/17/2013  22:41:00     -160.401      231.746      -28.368       95.249      126.804       64.571     9072.360    16079.369     4169.412        5.477        1.466      281.841       71.533        0.064      340.056       13.810      859.442
09/17/2013  22:42:00     -184.560      239.921      -43.303      116.676      112.453       64.958    13613.284    12645.682     4219.540        6.198        1.524      302.696       59.697        0.039      340.051       13.801      859.467
09/17/2013  22:43:00     -190.430      292.107      -46.611      105.690       96.278       67.203    11170.345     9269.368     4516.223        7.435        1.248      348.698       65.936        0.036      340.031       13.767      859.483
09/17/2013  22:44:00     -174.418      235.195      -48.406      124.234      122.520       62.579    15434.155    15011.159     3916.167        6.121        1.718      292.811       72.599        0.061      340.011       13.734      859.497
09/17/2013  22:45:00     -211.691      277.038      -48.267       91.204      104.490       59.873     8318.100    10918.110     3584.734        7.335        1.141      348.659       53.166        0.023      340.001       13.715      859.514
09/17/2013  22:46:00     -182.730      300.294      -39.983      120.368      106.439       64.047    14488.341    11329.266     4102.030        7.754        1.496      351.520       61.897        0.031      339.984       13.688      859.526
09/17/2013  22:47:00     -202.091      255.009      -55.175       81.772       91.156       53.101     6686.738     8309.341     2819.736        6.336        0.891      325.377       53.252        0.027      339.985       13.689      859.537
09/17/2013  22:48:00     -222.838      280.913      -63.227      119.487      118.527       67.964    14277.234    14048.538     4619.126        8.275        1.647      358.565       68.546        0.037      339.973       13.671      859.548
09/17/2013  22:49:00     -136.666      218.600      -28.034       78.574       90.167       60.921     6173.919     8130.089     3711.317        4.263        0.901      257.805       54.390        0.045      339.950       13.630      859.554
09/17/2013  22:50:00     -195.718      230.166      -41.142      102.678      105.123       55.951    10542.726    11050.764     3130.550        5.884        1.236      302.129       55.246        0.033      339.949       13.630      859.540
09/17/2013  22:51:00     -190.442      272.386      -48.352       91.922      132.500       57.069     8449.581    17556.233     3256.836        7.103        1.463      332.359       59.714        0.032      339.941       13.617      859.542
09/17/2013  22:52:00     -195.961      283.460      -41.987      115.128      106.907       62.264    13254.411    11429.172     3876.867        7.453        1.428      344.602       71.641        0.043      339.934       13.605      859.539
09/17/2013  22:53:00     -226.120      331.054      -68.641      113.734      117.917       60.862    12935.492    13904.523     3704.182        9.799        1.527      400.908       65.389        0.027      339.924       13.587      859.536
09/17/2013  22:54:00     -176.494      236.043      -44.391       81.703      100.323       59.473     6675.428    10064.644     3537.027        5.455        1.014      294.731       54.615        0.034      339.902       13.551      859.528
09/17/2013  22:55:00     -144.857      215.746      -33.024       98.006      118.451       58.769     9605.266    14030.667     3453.790        4.785        1.354      259.865       68.000        0.068      339.887       13.525      859.522
09/17/2013  22:56:00     -174.425      230.925      -39.844       83.766       90.759       58.037     7016.711     8237.204     3368.291        5.198        0.931      289.397       52.480        0.033      339.888       13.525      859.514
09/17/2013  22:57:00     -199.329      283.666      -53.937       78.286       88.992       56.724     6128.675     7919.526     3217.632        7.018        0.863      346.696       52.533        0.023      339.878       13.509      859.505
09/17/2013  22:58:00     -222.139      328.428      -52.191      101.029      128.210       73.200    10206.850    16437.886     5358.284        9.596        1.600      396.498       66.832        0.028      339.867       13.490      859.509
09/17/2013  22:59:00     -137.495      181.616      -26.461       88.114       97.619       58.669     7764.018     9529.469     3442.088        3.666        1.037      227.792       58.142        0.065      339.855       13.470      859.506
09/17/2013  23:00:00     -183.001      265.528      -35.325      108.567      109.021       58.410    11786.736    11885.525     3411.764        6.616        1.354      322.482       46.415        0.021      339.851       13.462      859.520
09/17/2013  23:01:00     -133.433      196.352      -29.140       73.552       68.065       44.245     5409.910     4632.792     1957.610        3.460        0.600      237.399       47.692        0.040      339.845       13.453      859.515
09/17/2013  23:02:00     -193.643      273.055      -50.141      108.436      115.204       67.036    11758.460    13272.066     4493.852        7.204        1.476      334.748       78.897        0.056      339.841       13.447      859.524
09/17/2013  23:03:00     -220.220      307.769      -58.854      126.400      133.583       73.529    15977.055    17844.441     5406.465        9.295        1.961      378.443       87.824        0.054      339.826       13.421      859.547
09/17/2013  23:04:00     -248.237      314.773      -66.786      106.174      106.072       63.855    11272.943    11251.269     4077.437        9.588        1.330      400.879       65.081        0.026      339.827       13.423      859.566
09/17/2013  23:05:00     -208.420      287.228      -52.932      113.227      139.717       65.656    12820.300    19520.775     4310.670        8.269        1.833      354.878       74.710        0.044      339.821       13.413      859.577
09/17/2013  23:06:00     -208.884      329.696      -53.061      118.881      104.567       72.813    14132.695    10934.265     5301.803        9.275        1.518      390.297       65.212        0.028      339.809       13.394      859.599
09/17/2013  23:07:00     -212.564      274.969      -55.746      100.225      100.012       64.339    10044.952    10002.446     4139.571        7.404        1.209      347.550       43.593        0.016      339.824       13.419      859.607
09/17/2013  23:08:00     -172.369      285.126      -28.797      102.711      125.604       72.078    10549.576    15776.446     5195.210        7.167        1.576      333.179       77.770        0.054      339.797       13.374      859.619
09/17/2013  23:09:00     -217.317      241.274      -45.746       97.347      102.085       58.269     9476.400    10421.272     3395.280        6.541        1.165      324.715       60.474        0.035      339.803       13.384      859.634
09/17/2013  23:10:00     -167.325      139.096      -25.672       95.429       92.781       55.180     9106.729     8608.272     3044.791        3.438        1.038      217.590       56.079        0.066      339.813       13.402      859.653
09/17/2013  23:11:00     -149.863      245.393      -34.911       85.243      101.854       52.272     7266.369    10374.299     2732.375        5.213        1.019      287.536       53.350        0.034      339.773       13.333      859.657
09/17/2013  23:12:00     -188.710      301.695      -43.093      109.290      126.262       65.379    11944.316    15942.074     4274.393        8.032        1.608      355.853       79.887        0.050      339.778       13.342      859.667
09/17/2013  23:13:00     -197.353      195.511      -47.107       95.257       96.603       44.657     9073.893     9332.074     1994.282        4.989        1.020      277.800       49.399        0.032      339.773       13.334      859.674
09/17/2013  23:14:00     -178.445      219.536      -32.789      112.766      108.130       65.143    12716.138    11692.074     4243.571        5.488        1.433      282.910       70.201        0.062      339.774       13.333      859.676
09/17/2013  23:15:00     -221.151      322.953      -66.765      111.998      104.182       55.672    12543.627    10853.959     3099.400        9.208        1.325      391.416       60.705        0.024      339.762       13.314      859.683
09/17/2013  23:16:00     -222.514      323.037      -58.741       84.162      136.244       55.138     7083.204    18562.417     3040.217        9.300        1.434      392.257       45.874        0.014      339.764       13.319      859.682
09/17/2013  23:17:00     -168.015      194.427      -32.250       98.732      111.413       57.020     9747.999    12412.938     3251.224        4.624        1.271      256.964       64.202        0.062      339.777       13.339      859.682
09/17/2013  23:18:00     -174.234      194.640      -38.371       84.275       82.811       50.633     7102.316     6857.642     2563.692        4.312        0.826      261.232       49.203        0.035      339.751       13.296      859.702
09/17/2013  23:19:00     -143.616      270.651      -38.620       84.482       88.899       50.138     7137.159     7903.064     2513.772        5.646        0.878      306.395       45.311        0.022      339.724       13.250      859.709
09/17/2013  23:20:00     -239.016      338.946      -63.921      101.739      101.448       61.294    10350.728    10291.669     3756.961       10.024        1.220      414.744       59.793        0.021      339.730       13.260      859.730
09/17/2013  23:21:00     -238.098      315.858      -66.724      100.534      131.444       61.077    10107.150    17277.599     3730.438        9.601        1.556      395.547       60.063        0.023      339.740       13.278      859.735
09/17/2013  23:22:00     -219.344      239.230      -54.580      106.169       94.216       62.022    11271.766     8876.742     3846.684        6.615        1.200      324.565       60.551        0.035      339.739       13.276      859.734
09/17/2013  23:23:00     -157.569      264.342      -45.621       89.844      109.162       57.094     8071.881    11916.304     3259.676        6.001        1.162      307.741       51.426        0.028      339.731       13.263      859.742
09/17/2013  23:24:00     -154.266      186.810      -13.607      111.596      113.506       66.529    12453.561    12883.516     4426.066        4.432        1.488      242.273       62.476        0.066      339.731       13.263      859.741
09/17/2013  23:25:00     -160.708      226.521      -37.508       96.414      124.482       61.840     9295.599    15495.692     3824.206        5.357        1.431      277.739       58.786        0.045      339.716       13.237      859.759
09/17/2013  23:26:00     -172.274      211.072      -43.540       71.719       67.624       44.385     5143.640     4572.976     1969.995        4.390        0.584      272.451       27.967        0.011      339.734       13.266      859.768
09/17/2013  23:27:00     -224.259      266.293      -54.273      109.064      107.375       63.831    11894.953    11529.447     4074.444        7.582        1.375      348.144       65.686        0.036      339.731       13.264      859.778
09/17/2013  23:28:00     -206.324      267.532      -59.868       91.801       87.948       58.108     8427.488     7734.829     3376.530        6.863        0.977      337.850       57.291        0.029      339.716       13.236      859.810
09/17/2013  23:29:00     -201.379      253.829      -42.236      114.464      113.562       68.082    13101.895    12896.396     4635.177        6.869        1.532      324.011       67.422        0.043      339.716       13.237      859.812
09/17/2013  23:30:00     -146.182      235.351      -38.014      107.203      110.274       63.568    11492.449    12160.327     4040.836        5.294        1.385      277.055       72.192        0.068      339.701       13.213      859.819
09/17/2013  23:31:00     -146.013      206.110      -32.273       78.288      125.360       58.132     6128.972    15715.055     3379.318        4.503        1.261      252.588       47.111        0.035      339.701       13.211      859.845
09/17/2013  23:32:00     -179.059      257.059      -36.458       84.320      119.058       60.136     7109.821    14174.803     3616.280        6.218        1.245      313.275       53.506        0.029      339.700       13.210      859.843
09/17/2013  23:33:00     -195.309      289.440      -55.042      112.367      148.514       61.080    12626.310    22056.443     3730.713        8.167        1.921      349.172       71.351        0.042      339.690       13.193      859.830
09/17/2013  23:34:00     -182.881      335.249      -47.428       87.731      105.481       57.180     7696.686    11126.312     3269.596        8.509        1.105      381.887       50.407        0.017      339.668       13.154      859.832
09/17/2013  23:35:00     -172.621      284.863      -44.988       95.308       95.690       60.996     9083.591     9156.604     3720.463        6.746        1.098      333.084       54.831        0.027      339.663       13.148      859.814
09/17/2013  23:36:00     -230.141      274.194      -51.124      113.325      175.518       74.112    12842.449    30806.421     5492.611        8.994        2.457      357.976       81.538        0.052      339.676       13.169      859.823
09/17/2013  23:37:00     -181.535      310.052      -49.990      101.751      126.833       59.504    10353.309    16086.616     3540.778        8.078        1.499      359.287       57.166        0.025      339.655       13.134      859.818
09/17/2013  23:38:00     -197.468      276.627      -51.927       82.504      122.574       58.941     6806.965    15024.467     3474.042        7.175        1.265      339.876       59.655        0.031      339.677       13.169      859.819
09/17/2013  23:39:00     -193.282      272.922      -49.922       83.928      135.304       53.870     7043.957    18307.283     2901.964        7.129        1.413      334.432       57.773        0.030      339.652       13.128      859.830
09/17/2013  23:40:00     -197.820      319.873      -48.035       94.846      100.906       66.707     8995.795    10182.028     4449.796        8.369        1.181      376.101       63.190        0.028      339.635       13.098      859.854
09/17/2013  23:41:00     -204.674      257.089      -34.312       95.451      103.772       59.483     9110.817    10768.672     3538.173        6.629        1.171      328.613       55.092        0.028      339.642       13.111      859.865
09/17/2013  23:42:00     -214.377      226.005      -46.094      121.294      112.161       72.050    14712.274    12580.088     5191.130        6.582        1.624      311.505       73.817        0.056      339.631       13.093      859.878
09/17/2013  23:43:00     -228.253      310.336      -66.774       99.169      101.577       59.812     9834.525    10317.964     3577.474        8.829        1.186      385.238       58.594        0.023      339.630       13.091      859.891
09/17/2013  23:44:00     -152.849      286.864      -46.734       92.897      107.592       70.041     8629.930    11575.967     4905.685        6.647        1.256      325.044       71.582        0.048      339.595       13.031      859.895
09/17/2013  23:45:00     -200.645      273.586      -37.587       99.265      121.857       69.259     9853.447    14849.055     4796.770        7.300        1.475      339.275       50.040        0.022      339.591       13.025      859.900
09/17/2013  23:46:00     -201.754      285.796      -45.437      132.825      139.015       82.357    17642.521    19325.117     6782.674        8.409        2.188      349.835       93.245        0.071      339.584       13.015      859.931
09/17/2013  23:47:00     -201.839      385.929      -61.977      111.902      128.108       62.410    12521.978    16411.716     3895.024       11.317        1.641      435.522       49.955        0.013      339.575       12.999      859.928
09/17/2013  23:48:00     -132.110      191.853      -19.872       98.861      114.615       64.480     9773.558    13136.584     4157.669        4.086        1.353      232.939       51.559        0.049      339.584       13.015      859.919
09/17/2013  23:49:00     -237.047      379.491      -61.314      134.621      156.706       70.453    18122.839    24556.905     4963.626       12.579        2.382      447.442       87.707        0.038      339.540       12.940      859.927
09/17/2013  23:50:00     -253.020      309.115      -66.836      116.296      108.095       72.903    13524.736    11684.535     5314.782        9.728        1.526      399.464       69.190        0.030      339.558       12.971      859.943
09/17/2013  23:51:00     -238.045      299.213      -65.411      122.554      140.040       68.146    15019.602    19611.271     4643.853        9.487        1.964      382.353       86.215        0.051      339.551       12.960      859.924
09/17/2013  23:52:00     -181.363      250.558      -39.107      110.831      100.408       61.171    12283.517    10081.687     3741.849        6.165        1.305      309.308       60.529        0.038      339.535       12.932      859.923
09/17/2013  23:53:00     -301.705      336.072      -70.209      140.074      152.580       69.634    19620.815    23280.670     4848.912       12.832        2.388      451.630       79.520        0.031      339.532       12.928      859.934
09/17/2013  23:54:00     -259.141      297.917      -63.374       90.613      106.416       64.298     8210.728    11324.391     4134.172        9.179        1.183      394.853       60.004        0.023      339.541       12.943      859.932
09/17/2013  23:55:00     -139.546      225.155      -25.785       85.423      112.557       56.887     7297.022    12669.153     3236.181        4.701        1.160      264.892       59.743        0.051      339.516       12.900      859.935
09/17/2013  23:56:00     -161.565      226.098      -31.314       95.845       91.766       64.041     9186.216     8420.949     4101.267        4.995        1.085      277.891       64.990        0.055      339.523       12.913      859.930
09/17/2013  23:57:00     -171.941      231.669      -28.475      109.804      127.797       61.679    12056.938    16331.982     3804.240        5.811        1.610      288.504       67.175        0.054      339.512       12.894      859.938
09/17/2013  23:58:00     -187.057      225.898      -34.987      114.276       95.985       55.433    13058.891     9213.079     3072.867        5.629        1.267      293.292       51.221        0.030      339.482       12.842      859.954
09/17/2013  23:59:00     -210.281      286.998      -42.834      124.347      178.085       69.699    15462.154    31714.114     4857.909        9.022        2.602      355.789       76.221        0.046      339.478       12.835      859.936
